GFSSW_2pvu_pres_000.txt.gz
Presure
193 182 222 228 278 278 266 124 137 133 249 149 142 124 140 144 132 224 155 141 144 143 202 123 144 146 163 141 134 133 131 129 133 137 172 185 175 128 196 174 114 118 111 151 112
206 202 226 192 271 263 209 126 210 116 165 142 125 271 128 149 127 132 140 263 134 219 147 135 148 139 133 171 144 132 130 130 129 215 250 217 130 248 164 170 215 225 99 109 144
237 179 231 262 278 258 253 252 111 249 159 124 251 185 133 121 124 213 117 138 148 164 131 133 131 212 129 137 151 241 228 136 246 231 249 229 221 227 134 118 108 196 138 123 97
232 182 216 281 274 246 110 127 148 236 123 124 242 120 142 150 119 137 237 152 198 211 146 142 198 262 149 134 253 254 249 249 242 243 223 116 229 148 214 167 116 148 207 132 128
224 182 258 281 263 250 244 243 299 176 280 291 286 278 203 117 133 139 177 123 192 128 132 242 156 138 130 252 249 247 248 245 239 233 192 165 167 192 180 218 185 129 143 203 210
227 203 273 281 255 243 243 275 317 285 277 301 307 300 313 256 151 215 122 250 216 241 238 236 172 104 174 249 241 241 249 250 164 129 162 132 225 134 171 136 134 222 222 212 133
188 301 289 270 247 241 241 293 323 271 297 290 299 299 302 325 240 254 143 252 251 215 234 230 224 222 227 243 243 238 238 127 118 237 228 229 122 120 122 122 118 125 123 134 217
199 254 282 245 238 228 294 321 282 292 295 164 156 290 311 250 249 250 142 156 243 243 246 244 245 238 232 168 222 241 234 231 207 238 237 133 139 234 120 125 122 147 131 143 206
154 290 277 231 239 295 320 309 280 216 144 309 187 228 234 244 143 177 248 243 248 245 245 248 240 237 191 131 168 241 236 230 230 231 173 237 199 119 118 128 125 172 163 209 213
156 283 248 231 280 290 312 282 170 252 162 172 150 172 141 217 251 252 253 257 245 239 238 241 203 132 137 228 229 226 225 213 223 153 116 117 116 120 143 123 233 232 222 227 236
138 280 238 265 337 322 306 298 164 124 119 225 198 231 233 234 233 234 231 230 132 143 135 140 172 115 222 224 223 224 223 223 218 218 219 217 217 219 220 221 221 222 224 229 230
287 266 241 320 279 285 295 270 184 224 179 223 232 233 232 136 231 228 227 224 212 133 128 122 219 198 219 221 226 225 225 223 224 222 218 216 215 217 218 217 219 219 230 242 226
277 246 259 128 317 287 255 240 222 221 222 225 225 228 226 225 223 228 225 138 131 133 178 221 195 178 126 221 224 223 221 219 218 220 222 223 221 220 227 230 235 233 228 226 221
267 236 309 182 231 187 260 143 216 222 221 222 220 226 234 253 142 139 120 220 217 222 221 221 218 118 225 225 224 222 224 224 225 231 233 230 228 230 228 225 227 227 222 237 238
263 252 345 139 125 243 223 219 225 218 219 215 217 243 210 223 222 125 127 224 133 220 223 225 122 130 225 189 236 236 127 124 125 133 222 232 233 225 232 228 224 218 219 221 221
238 336 182 130 125 213 216 211 214 248 236 216 230 217 207 226 218 132 138 166 241 136 230 237 235 131 234 194 122 124 118 124 226 220 216 215 215 218 220 220 225 225 231 241 235
234 288 268 230 215 208 207 211 220 217 224 230 234 237 233 167 131 141 220 225 223 226 227 227 228 152 221 224 226 179 225 224 235 231 226 224 223 224 226 230 234 222 213 207 204
234 285 262 222 239 221 211 230 217 203 215 220 220 222 126 123 120 125 223 223 146 218 215 217 218 205 212 234 242 269 251 233 231 230 236 239 230 214 206 205 198 199 201 198 192
246 260 191 236 240 209 229 208 208 215 214 213 191 180 203 127 124 125 208 207 208 210 212 212 218 119 252 246 139 227 223 221 216 210 206 203 205 203 196 194 195 197 198 201 202
269 233 176 238 205 218 202 208 215 223 217 206 185 178 214 162 207 208 207 209 205 201 229 259 117 122 127 196 218 215 213 205 199 202 202 203 197 197 199 205 204 200 197 196 196
259 241 167 219 215 217 206 207 223 219 212 209 205 207 184 204 205 205 206 206 207 220 184 205 206 221 215 207 205 205 194 196 190 210 205 202 205 203 198 197 193 194 196 202 201
249 247 242 215 217 209 210 204 207 210 209 199 202 200 198 197 204 197 206 203 205 211 204 218 213 208 203 205 200 197 191 195 206 203 200 200 199 196 193 195 200 199 193 187 187
239 219 222 206 213 212 207 200 207 206 206 203 201 198 201 199 209 209 202 207 215 216 204 206 200 200 204 205 208 206 199 198 195 191 193 194 197 197 197 193 190 188 188 196 204
225 233 207 210 218 211 202 206 201 201 202 194 196 198 198 207 203 198 212 213 209 194 191 196 200 197 195 204 197 190 189 195 191 196 197 193 195 190 190 189 194 197 202 204 219
238 212 207 214 211 203 202 201 201 204 194 191 192 196 201 198 197 158 192 194 201 201 189 188 189 187 189 197 191 193 196 196 196 191 197 196 194 191 195 203 206 204 205 201 213
236 205 215 217 208 200 198 195 198 207 201 193 193 197 198 196 192 195 192 192 194 191 191 191 190 191 191 185 186 188 193 194 194 189 194 189 195 200 202 201 200 205 208 214 205
210 205 218 210 207 201 197 197 191 197 199 197 194 198 199 195 190 190 197 196 195 192 189 189 190 191 193 196 194 194 192 193 187 187 194 202 188 194 199 201 201 204 200 202 203

GFSSW_2pvu_pres_003.txt.gz
Presure
227 177 204 200 235 210 224 221 273 219 103 127 112 122 132 255 129 134 125 120 139 127 135 128 200 210 134 128 121 140 133 136 132 95 132 133 143 138 141 137 136 143 127 188 138
193 175 213 211 212 223 242 280 271 156 109 182 148 218 204 179 116 150 135 127 137 138 124 189 165 136 124 149 125 143 139 134 140 140 135 135 134 127 158 176 166 211 232 167 239
187 205 245 180 237 210 282 280 269 124 234 226 241 238 251 246 131 183 138 133 142 133 121 124 157 127 142 142 131 137 140 135 161 138 136 138 136 138 132 230 243 268 237 254 124
226 171 171 208 217 231 270 276 256 246 245 255 217 195 133 148 152 249 142 139 130 213 151 134 151 130 142 133 246 139 179 136 143 138 125 116 249 245 234 243 269 230 188 127 202
206 181 218 186 209 219 282 261 253 245 265 326 288 118 117 191 118 141 134 119 191 129 125 125 146 144 121 162 144 125 145 119 179 142 164 237 237 243 247 250 241 117 131 192 134
240 152 214 178 205 220 267 245 246 242 291 320 277 272 121 266 249 207 214 175 152 141 119 137 169 127 138 191 246 199 141 131 143 206 235 236 177 154 231 199 123 126 233 134 141
236 198 211 192 182 219 253 245 251 281 321 277 294 287 293 299 321 252 251 243 196 139 150 233 139 136 232 226 238 248 247 137 202 239 242 228 237 230 121 130 132 212 136 110 122
176 194 235 215 235 266 245 244 259 278 309 287 296 306 298 306 329 150 254 249 258 148 244 242 197 229 230 234 233 246 243 235 234 237 232 240 240 153 206 222 217 129 210 114 124
128 225 188 206 293 256 249 254 322 309 287 296 298 319 138 312 282 235 234 192 259 256 252 196 228 180 228 224 231 226 232 234 183 178 234 185 229 231 233 228 119 117 118 188 119
214 205 192 272 300 252 262 335 316 298 283 279 175 248 254 255 228 209 247 245 242 192 143 216 239 241 247 242 241 234 229 235 237 206 232 229 228 231 232 186 117 230 229 165 184
230 190 237 290 282 259 319 321 311 297 275 277 294 234 231 227 239 242 243 244 238 237 250 249 246 245 232 227 116 122 141 226 228 228 227 225 224 223 220 220 222 225 224 225 224
183 146 203 227 252 262 322 317 317 197 236 153 232 147 233 130 238 168 243 238 242 239 234 230 232 231 129 118 122 187 128 219 218 167 220 219 220 223 223 222 223 222 218 217 219
233 254 210 187 256 160 219 225 222 208 224 227 223 227 229 229 231 171 231 229 230 221 167 209 165 127 124 174 174 118 132 222 223 222 220 221 218 217 220 222 221 219 220 228 233
202 185 197 245 237 120 273 280 151 224 221 221 225 223 224 227 224 225 222 224 220 218 218 219 172 127 129 213 211 219 222 222 220 217 213 215 213 216 218 224 233 231 228 223 229
207 167 193 259 117 291 255 251 227 221 221 221 220 220 226 225 219 220 215 221 208 199 217 214 218 220 223 222 221 132 219 210 208 122 123 125 233 234 232 236 231 228 221 215 219
266 173 213 263 244 121 128 133 221 223 220 224 213 213 238 255 245 212 214 223 128 123 218 218 193 224 223 221 183 157 223 197 158 133 156 229 239 235 221 218 224 234 236 230 219
191 182 205 348 286 128 185 176 222 220 216 215 221 235 216 208 209 213 181 215 218 168 223 228 231 167 226 251 235 118 224 221 225 224 228 232 234 239 240 237 221 211 207 203 199
202 188 218 251 141 228 212 210 203 228 226 219 237 221 226 232 231 235 239 234 130 145 233 231 224 224 119 218 225 117 235 239 128 223 234 229 218 212 208 208 206 200 192 192 192
245 183 151 288 174 245 211 206 207 224 213 199 203 232 227 230 226 225 208 125 122 134 219 216 218 212 228 231 241 235 117 122 220 215 206 204 206 205 199 198 189 192 197 195 193
189 180 245 279 266 208 211 211 212 217 200 215 226 219 219 220 158 125 215 126 126 153 212 208 212 249 245 228 188 116 120 218 209 199 194 193 196 197 200 197 201 196 197 194 194
253 217 255 208 241 247 214 208 220 232 225 220 215 215 214 123 215 181 181 151 209 204 204 213 238 239 229 209 123 198 203 204 196 195 192 206 205 204 198 196 196 186 191 193 187
194 177 239 252 201 160 204 211 205 220 217 219 213 212 209 208 210 207 203 132 201 206 208 200 226 218 212 205 204 201 198 194 192 206 200 194 183 191 195 191 196 191 190 190 190
186 211 262 246 233 210 209 206 205 211 221 210 211 209 208 206 206 201 205 201 195 203 212 197 207 204 197 202 203 206 209 209 202 194 194 195 193 191 187 190 190 189 192 201 204
208 244 261 237 232 217 213 201 223 195 208 209 206 199 207 199 207 206 202 200 201 209 208 201 198 201 197 195 200 205 202 200 201 198 193 193 191 192 195 191 193 196 191 203 201
247 234 244 239 221 216 211 205 200 199 211 207 203 204 199 201 207 196 200 212 201 205 191 191 191 189 189 187 188 195 195 186 186 192 196 194 192 187 186 196 195 190 198 198 199
242 232 237 239 218 215 209 209 212 204 207 205 202 200 198 203 196 197 199 197 196 199 201 191 194 188 195 192 194 194 197 197 198 197 192 188 193 195 197 194 201 201 196 195 192
229 236 233 215 219 208 209 208 204 208 204 204 197 196 196 198 199 195 193 196 194 197 199 197 189 194 195 195 192 190 194 188 188 182 186 197 199 194 193 196 197 195 194 199 200

GFSSW_2pvu_pres_006.txt.gz
Presure
157 185 228 206 240 209 223 169 230 230 289 259 261 263 254 261 173 157 135 139 143 131 137 139 136 142 148 125 141 141 139 143 125 168 143 140 129 144 128 129 136 134 130 131 139
188 170 111 221 214 221 211 210 223 213 291 270 194 228 252 133 135 116 199 129 129 134 128 118 145 138 125 127 126 138 136 128 125 139 134 136 146 147 137 147 133 134 138 147 125
214 190 214 182 220 212 243 232 207 169 275 250 250 160 344 309 189 154 138 115 122 113 143 149 141 132 131 117 116 121 157 121 254 144 150 156 135 138 137 141 136 133 135 134 210
216 181 202 198 227 207 195 199 218 191 270 252 115 274 322 127 123 124 154 132 124 150 144 113 194 130 155 127 144 122 134 127 165 149 142 122 142 129 147 136 135 137 141 142 270
187 199 174 206 177 204 245 161 259 299 260 254 214 312 112 184 307 224 118 141 211 130 215 112 129 141 142 195 140 134 134 188 138 134 134 152 159 153 129 134 135 135 135 228 261
181 199 230 221 194 240 190 216 231 300 247 256 307 321 283 299 318 248 255 153 128 151 118 154 151 226 126 122 185 133 131 158 154 134 133 153 239 137 159 235 230 144 240 225 242
201 193 181 232 201 181 176 224 292 297 243 279 324 284 298 291 288 246 243 113 250 134 134 246 142 131 141 201 138 147 141 132 138 142 158 152 231 146 123 143 231 230 236 241 236
204 188 193 223 220 192 182 206 307 248 284 326 301 292 308 293 298 284 220 146 247 247 252 149 189 235 138 157 183 213 151 226 146 246 232 236 234 238 154 235 238 235 232 226 231
183 162 194 185 183 223 206 211 299 269 338 313 289 303 310 295 327 311 245 242 243 241 258 242 240 234 152 210 147 186 181 240 204 147 232 230 233 233 237 237 233 232 226 224 224
210 228 201 187 181 182 206 221 255 334 323 295 286 312 301 295 305 274 255 247 237 246 251 169 156 232 164 137 174 171 143 222 223 232 232 232 231 227 160 224 229 230 231 232 230
192 195 191 212 207 211 198 314 286 344 314 294 286 284 234 297 238 201 235 217 244 247 241 233 230 228 223 221 226 225 228 232 231 229 234 186 129 228 223 226 228 229 228 227 224
191 209 197 204 166 191 214 280 337 274 303 277 306 282 232 225 232 179 244 243 240 221 170 232 232 226 231 238 232 231 230 130 223 135 122 135 228 225 222 221 220 219 215 215 215
210 150 181 199 233 156 220 289 302 326 285 219 209 232 174 129 175 202 130 237 235 193 236 241 234 233 233 223 220 221 175 177 140 117 127 217 217 220 223 224 221 218 218 217 216
144 139 209 185 188 152 197 330 270 219 237 222 221 224 225 227 231 240 241 240 173 225 226 226 228 229 144 227 227 223 133 133 120 190 184 224 226 224 221 142 125 131 202 227 229
156 213 188 237 195 178 196 138 271 131 222 222 162 224 224 224 226 225 226 223 232 222 220 217 220 222 218 167 205 147 204 216 218 221 222 222 149 119 123 121 139 219 217 221 231
161 150 170 179 181 183 215 169 325 234 224 225 220 223 223 221 222 220 223 218 221 211 220 214 217 182 184 216 218 218 215 217 219 219 220 223 130 216 228 229 223 215 236 225 219
183 143 161 181 230 179 145 267 247 177 219 223 210 220 218 227 235 222 217 207 221 215 215 206 153 174 213 210 166 182 216 215 218 165 185 215 215 157 246 243 230 222 213 204 201
173 176 233 195 213 177 123 235 142 173 222 217 217 212 225 218 209 207 221 211 225 218 218 215 184 131 220 219 239 225 119 228 221 137 205 201 118 123 136 208 202 202 196 199 199
196 175 227 247 195 212 275 234 213 215 209 218 227 217 223 212 211 218 225 222 222 230 233 216 130 126 227 218 212 211 226 228 226 230 117 116 131 145 204 199 200 199 204 204 198
184 162 176 277 206 179 273 265 214 213 212 219 208 201 241 235 235 233 227 222 194 218 124 122 122 152 207 215 226 253 238 226 220 178 116 136 196 202 203 203 206 200 197 197 194
182 269 242 206 182 232 273 252 216 210 209 216 201 233 220 225 220 217 214 211 210 166 121 132 215 230 257 248 231 218 213 210 203 204 200 199 199 199 198 198 193 197 184 193 190
202 218 248 173 261 275 242 225 250 210 214 220 222 227 217 216 212 212 208 129 170 124 127 215 233 233 229 220 214 204 198 205 198 194 195 199 196 188 195 191 197 185 191 191 191
177 159 218 181 237 226 134 246 219 214 206 219 221 217 214 210 211 209 212 207 210 207 199 201 231 220 203 201 202 202 198 198 197 196 200 194 188 185 190 191 188 192 193 193 199
166 205 225 184 204 223 238 233 218 214 204 197 209 217 208 203 211 207 206 208 200 210 217 215 204 203 200 199 195 196 204 207 201 198 193 192 195 190 193 194 191 191 201 192 198
187 200 195 177 208 229 230 216 200 213 218 205 216 206 212 206 205 208 209 204 197 207 203 201 200 196 197 196 196 196 193 196 196 193 194 190 189 193 189 189 191 195 199 192 196
259 231 186 230 244 221 235 199 206 215 229 213 211 205 206 206 199 207 199 194 213 204 206 190 195 194 193 192 191 189 193 188 194 194 195 193 198 189 182 196 198 194 196 197 197
257 187 254 238 175 233 219 203 211 207 220 199 210 198 206 202 209 203 195 207 200 193 206 201 197 194 194 194 195 194 196 196 192 189 188 191 191 190 193 199 191 192 190 192 192

GFSSW_2pvu_pres_009.txt.gz
Presure
187 167 206 201 142 118 217 218 229 164 234 104 249 195 253 253 220 259 253 256 254 258 138 165 137 121 145 139 148 147 121 127 133 153 125 141 114 153 142 163 121 139 128 130 129
202 200 98 203 207 209 217 197 191 209 206 230 191 314 109 253 276 281 206 253 270 205 187 184 148 119 183 142 152 140 135 141 181 112 136 139 151 138 127 137 130 148 141 133 140
186 148 132 207 186 221 176 176 226 190 209 223 265 309 121 258 345 201 257 139 189 176 136 114 193 214 145 228 138 145 252 143 185 150 115 117 144 138 136 118 154 143 128 136 143
183 168 176 206 210 188 219 206 182 188 169 224 265 301 253 294 323 286 254 261 130 119 129 136 123 132 155 138 129 140 145 134 136 119 133 192 245 129 146 136 148 137 125 121 163
192 185 199 184 198 212 173 229 186 222 197 229 266 261 323 331 295 315 251 242 117 144 123 150 127 144 124 122 139 177 139 146 120 150 135 121 145 117 137 218 131 128 165 139 136
182 181 203 196 195 190 218 188 198 189 210 230 292 297 319 293 240 300 246 250 168 177 153 120 122 129 117 126 153 125 189 141 118 127 142 226 166 128 136 243 129 134 136 136 140
178 177 164 207 208 201 202 185 183 225 222 241 283 330 305 293 312 289 152 143 134 250 108 138 128 122 234 154 138 131 100 199 142 133 136 178 133 140 230 142 229 145 139 139 218
203 150 185 149 214 170 211 175 198 204 222 245 317 325 291 317 300 302 247 149 257 247 250 241 133 242 131 145 138 131 145 135 196 126 212 139 147 154 151 138 139 142 164 223 235
189 154 191 178 212 211 202 158 186 213 224 254 337 302 283 303 312 305 244 244 225 248 181 177 217 235 235 138 140 138 146 133 135 179 140 225 189 136 135 139 227 240 241 232 231
178 157 131 171 212 174 220 186 229 209 233 269 341 287 320 289 310 304 242 234 240 237 237 213 237 138 228 222 227 224 230 234 191 136 140 140 231 224 225 232 226 227 227 225 226
172 199 131 186 199 216 185 204 174 219 235 274 343 299 270 290 299 303 253 236 235 235 235 242 230 228 227 195 139 142 219 224 218 142 224 220 223 232 225 222 225 231 225 225 222
203 178 179 205 198 192 159 192 201 210 229 302 335 274 300 240 228 269 238 240 237 230 244 238 229 228 225 223 219 217 219 223 214 219 166 220 203 118 232 226 201 133 223 221 221
171 162 176 189 194 206 209 190 144 213 241 348 309 230 226 227 226 233 235 240 238 239 242 229 233 228 219 221 217 213 220 216 220 221 220 195 118 117 119 197 219 217 216 219 221
176 139 201 182 200 164 196 191 204 235 251 305 273 221 215 228 232 236 236 232 143 133 241 240 220 229 222 217 220 227 221 221 222 224 124 125 118 123 200 122 217 217 190 167 218
124 182 171 206 200 189 206 212 188 226 248 345 212 217 217 125 134 230 125 239 229 232 229 228 228 227 226 228 227 206 216 217 224 210 214 219 219 214 220 210 211 118 221 167 223
189 198 152 201 167 201 188 226 184 229 258 327 208 159 216 223 222 227 233 237 241 240 236 233 222 222 224 225 225 222 211 207 211 216 214 215 211 212 221 218 222 129 175 217 219
164 164 178 203 205 194 160 205 250 214 243 125 227 221 217 219 218 219 220 224 219 222 207 210 215 216 212 209 129 130 213 215 214 214 217 217 224 219 212 218 214 210 228 140 162
216 210 132 205 191 204 168 238 207 242 250 126 217 215 222 216 225 220 211 211 204 215 207 227 214 215 210 143 211 205 214 213 212 217 222 221 222 213 252 246 230 124 121 205 143
132 215 199 194 165 189 214 222 200 224 115 124 216 214 211 206 236 215 232 215 215 210 206 207 213 200 138 137 129 211 209 224 216 213 219 217 234 221 210 155 110 200 188 199 207
198 206 148 223 172 192 178 230 190 206 118 167 210 214 223 220 217 211 212 213 210 210 210 214 215 213 214 123 200 125 165 216 214 220 230 217 210 205 201 149 201 198 209 198 188
193 180 219 207 168 211 203 194 233 258 273 216 205 214 233 201 233 228 236 230 223 218 223 223 209 231 126 124 181 186 202 222 223 215 207 205 199 200 196 198 198 204 189 200 200
174 200 210 174 176 165 180 193 187 248 261 212 207 217 205 233 225 230 223 221 218 217 207 150 210 215 125 156 212 241 226 214 212 205 202 203 201 205 199 204 189 191 200 192 189
238 239 179 165 179 230 242 197 197 281 238 218 206 212 219 227 223 217 216 215 210 210 206 126 207 215 244 246 232 217 210 204 198 203 201 200 195 200 199 193 197 191 190 192 194
246 233 176 241 187 219 219 194 245 259 227 218 212 224 216 215 209 213 209 209 205 211 201 231 238 247 239 212 208 202 199 197 201 198 205 209 203 197 188 187 191 185 196 193 200
236 178 242 183 239 220 186 279 183 120 225 182 209 208 222 212 206 206 209 205 210 205 208 244 197 233 206 205 196 198 199 197 198 205 202 201 196 193 194 188 196 198 192 191 201
180 175 165 258 230 240 177 189 253 242 225 211 222 210 198 212 208 206 213 202 206 206 199 221 212 204 203 200 195 195 197 198 197 189 188 188 195 195 195 190 192 190 191 192 202
241 234 259 250 228 258 210 176 239 231 222 215 214 206 203 211 208 208 208 207 207 205 205 202 209 198 199 200 198 196 196 191 195 196 193 192 193 191 192 192 192 195 195 205 204

GFSSW_2pvu_pres_012.txt.gz
Presure
193 192 129 117 181 180 204 131 202 207 220 189 128 177 130 225 214 209 261 322 140 217 268 110 277 137 228 251 149 147 136 158 146 140 141 160 120 149 233 136 123 134 109 129 131
148 195 189 192 181 197 141 159 211 189 152 225 213 189 234 237 299 272 333 319 265 268 267 175 234 147 149 157 151 116 133 122 135 212 134 156 152 139 135 171 152 121 137 134 113
196 191 193 195 193 112 188 88 206 208 212 214 205 205 200 294 355 196 321 295 253 266 273 263 268 271 145 262 142 122 139 133 159 116 216 114 143 156 104 123 144 113 139 136 147
181 184 181 181 163 204 185 186 203 218 223 211 183 210 251 360 329 243 303 323 246 248 132 218 242 251 253 210 130 144 146 114 132 140 156 143 150 112 132 119 136 147 124 112 124
184 184 196 202 125 198 208 206 197 228 219 182 223 193 245 342 345 309 314 330 249 184 263 260 248 180 241 185 137 137 240 139 129 147 115 137 127 127 151 136 133 130 103 128 126
190 192 183 150 195 198 206 195 188 204 213 184 215 221 260 343 316 315 295 329 243 261 264 211 162 238 151 142 165 256 142 165 163 123 145 151 114 105 114 139 138 141 120 124 153
183 176 176 143 187 195 194 192 215 218 216 220 206 229 262 357 302 305 310 282 237 261 266 110 248 226 135 103 123 141 121 131 128 142 213 130 135 143 140 182 127 126 131 232 127
154 152 186 184 184 194 213 170 201 216 195 193 213 228 262 350 313 326 317 303 237 257 259 249 245 113 251 183 216 116 225 129 124 118 146 218 147 137 147 123 129 138 137 157 140
185 197 172 194 155 202 191 181 208 197 204 217 206 231 260 285 293 329 324 278 247 257 247 248 243 183 190 145 146 122 147 127 138 233 150 129 130 137 141 133 135 134 228 229 141
182 195 168 168 167 182 198 156 214 214 196 174 208 225 259 304 296 272 315 249 245 252 251 174 239 246 227 136 147 138 221 165 228 202 127 130 140 142 139 136 135 213 242 240 233
187 190 182 184 185 166 163 202 199 221 170 227 203 230 263 332 274 226 310 251 257 256 242 232 235 233 117 227 226 227 226 228 191 142 230 240 246 249 134 215 214 212 143 221 120
190 106 177 158 179 169 192 184 215 203 229 209 232 234 259 313 223 244 277 252 238 239 232 235 239 231 226 229 223 227 223 221 226 208 218 219 223 224 200 220 226 226 224 228 118
183 166 170 192 158 200 187 177 217 175 196 183 232 244 271 215 210 218 224 228 239 237 238 236 240 231 228 227 218 216 223 225 217 217 217 213 222 223 226 197 228 171 115 115 165
186 168 190 184 192 189 190 214 190 180 228 174 243 237 276 214 209 213 228 225 233 235 237 244 248 229 229 225 225 225 222 217 217 217 218 225 227 217 218 182 124 119 131 220 202
153 153 196 201 141 182 173 197 219 203 196 225 228 249 266 214 206 213 219 232 233 234 246 243 232 213 233 224 219 221 217 213 223 220 227 221 220 205 134 137 133 213 213 208 212
188 184 175 155 182 188 191 187 208 174 214 227 227 240 259 305 207 211 183 120 212 239 168 230 235 227 218 226 221 220 226 229 217 221 214 207 206 133 214 211 207 202 223 222 211
179 161 175 168 195 194 180 195 194 180 166 232 223 232 257 172 211 187 134 215 226 223 233 239 229 227 220 218 220 219 220 221 209 156 204 198 205 212 171 180 229 211 211 216 208
192 183 152 131 183 176 199 234 198 205 161 225 225 249 256 209 209 213 208 212 211 214 221 231 232 216 223 221 223 209 205 160 209 208 210 209 208 210 224 214 214 206 201 231 205
193 180 195 190 210 179 166 209 210 172 227 228 226 222 217 152 207 207 209 221 209 204 205 210 213 218 213 216 202 211 199 205 126 201 207 207 221 217 216 232 245 228 213 205 204
194 193 203 126 136 178 162 206 207 198 215 188 206 215 213 207 206 202 229 222 224 210 210 210 204 205 204 209 128 205 171 196 124 125 219 214 213 214 225 212 210 200 203 201 206
130 167 196 201 137 198 200 165 167 171 221 184 208 249 260 196 218 220 216 207 196 207 203 217 207 207 211 211 209 227 133 150 219 217 217 226 227 213 211 209 200 200 202 198 193
197 132 176 205 192 191 204 205 182 194 232 184 219 256 281 195 213 206 198 201 222 216 213 210 214 219 225 220 168 219 223 217 216 231 228 219 212 210 204 203 199 198 205 196 191
221 193 205 211 197 204 188 199 196 191 197 192 245 246 214 198 211 199 235 230 235 227 226 218 227 223 217 207 214 205 214 215 231 223 216 214 202 200 200 193 192 207 193 198 198
187 213 221 212 193 193 192 186 218 167 184 189 214 242 239 208 210 214 226 222 220 220 218 218 216 216 203 210 211 228 222 229 219 212 201 203 198 199 206 205 201 199 193 197 193
213 178 147 204 195 216 206 218 217 168 230 193 251 283 238 210 207 215 221 211 212 213 210 206 207 200 211 222 248 237 225 216 209 201 200 197 206 206 200 192 189 196 192 197 194
150 173 205 233 197 185 201 170 180 208 230 198 262 260 233 206 208 217 214 208 204 206 203 211 207 207 242 247 196 217 206 208 204 200 197 207 195 193 193 196 193 192 192 186 191
258 247 214 215 238 240 233 176 185 242 235 254 266 194 191 212 207 215 207 205 202 205 214 204 203 205 213 233 213 201 210 200 197 204 194 195 196 198 192 189 193 193 193 197 201

GFSSW_2pvu_pres_015.txt.gz
Presure
184 197 190 190 197 202 200 198 188 210 172 216 144 176 212 208 173 283 349 347 350 286 244 347 238 103 118 274 135 209 144 140 137 141 157 122 183 134 141 149 115 125 127 142 129
195 187 194 195 191 198 187 198 208 199 199 148 199 215 197 202 202 154 372 197 304 298 253 199 269 113 259 275 255 142 148 149 194 273 142 140 139 148 131 125 114 130 137 145 142
189 197 188 186 191 193 194 200 202 203 205 217 210 227 219 199 229 346 350 337 341 297 300 229 271 273 254 192 200 244 175 147 152 152 156 133 137 134 145 139 144 132 156 121 135
193 184 186 187 194 185 194 186 181 140 105 217 213 200 219 213 245 339 366 322 227 292 254 269 260 247 244 243 181 260 184 205 149 151 136 139 155 137 116 145 148 139 110 132 132
178 185 184 185 188 184 197 178 215 143 204 206 202 212 198 201 249 334 307 309 226 241 260 273 204 267 176 242 244 245 134 145 238 147 158 124 143 135 120 155 134 115 127 121 131
185 181 182 174 119 190 181 191 208 192 188 175 200 222 177 187 238 326 286 344 334 246 257 270 200 249 252 178 246 155 199 223 241 165 153 135 122 156 127 128 136 136 120 138 145
178 180 157 180 185 190 174 161 206 184 193 186 200 225 186 218 235 327 261 304 306 241 261 260 238 151 235 238 125 241 238 244 147 140 147 148 139 142 198 118 117 116 113 131 127
178 106 192 184 188 187 186 190 196 182 178 215 197 206 215 214 248 342 251 328 301 243 260 238 265 245 228 207 225 229 153 136 126 117 118 117 127 142 110 128 131 118 134 124 124
181 177 181 186 184 176 195 171 189 166 193 213 169 217 226 214 245 352 250 317 293 236 267 233 247 242 181 199 238 137 230 134 123 139 220 141 152 145 105 129 138 129 166 131 128
179 182 175 186 175 184 158 185 197 166 182 222 206 226 179 216 242 293 238 227 256 249 268 249 243 244 244 139 121 142 232 195 234 117 153 186 138 131 124 129 142 127 121 127 133
188 181 193 191 184 193 172 182 167 193 202 188 191 221 228 219 239 240 227 224 235 261 254 248 242 238 236 227 229 229 116 193 229 233 150 134 137 134 130 140 218 136 139 147 145
188 191 175 181 182 136 174 166 150 189 209 200 181 219 180 217 239 263 215 223 230 236 259 248 239 238 240 228 229 228 205 223 133 132 132 219 223 155 218 214 214 213 210 184 214
191 178 156 187 148 137 182 149 187 181 154 183 208 229 228 218 234 252 214 219 279 220 227 245 237 233 249 228 228 228 222 221 217 221 223 207 222 223 219 219 213 211 210 220 225
190 183 164 172 182 192 168 190 196 180 198 201 216 171 231 219 240 261 212 220 219 223 228 229 239 238 257 239 232 228 225 224 216 222 216 212 215 207 208 222 224 226 222 218 139
177 194 192 191 168 192 186 201 208 189 192 214 219 199 228 235 249 260 213 219 219 221 224 229 233 239 255 231 232 226 218 220 218 212 212 219 217 220 223 230 238 209 217 229 134
101 194 159 192 160 203 193 126 199 181 185 193 199 202 227 239 231 257 213 216 219 220 220 207 194 240 241 229 219 224 221 218 208 207 173 233 205 220 220 216 212 182 161 225 222
182 182 134 177 161 198 189 178 178 160 203 208 204 207 196 235 229 241 211 133 213 210 221 224 234 238 231 212 218 226 225 223 219 226 225 223 213 209 211 205 211 209 227 239 202
192 142 189 195 181 192 167 199 183 177 194 194 221 191 164 231 224 258 208 214 208 209 132 212 229 232 233 232 220 223 224 221 223 222 212 129 205 219 209 215 210 217 231 217 220
183 196 184 136 197 209 151 178 172 198 186 192 220 211 217 233 220 224 212 214 208 214 212 200 208 217 211 204 224 226 219 224 209 207 208 164 191 211 210 210 220 216 214 219 221
209 192 149 165 204 200 183 202 176 170 185 190 208 169 209 237 219 118 209 172 213 237 217 201 205 214 217 220 220 214 213 207 206 156 205 196 151 126 217 222 210 235 237 220 203
204 199 191 138 205 152 170 193 191 138 177 211 224 173 218 186 240 146 204 231 212 221 200 220 212 211 203 207 204 204 210 209 211 211 122 151 219 222 223 235 228 209 205 200 200
208 197 210 199 219 195 157 186 188 189 152 200 193 163 208 227 245 171 197 212 209 215 206 209 206 203 214 209 212 212 210 210 210 209 216 220 221 214 229 219 212 214 206 201 206
196 163 124 213 199 188 197 196 151 204 141 209 197 166 223 208 250 268 197 218 207 217 232 225 220 214 207 215 126 156 217 226 224 219 219 215 238 229 218 208 200 200 198 198 198
187 217 209 201 189 194 202 196 168 200 180 218 208 201 178 208 191 264 206 213 217 225 228 231 234 224 225 227 225 221 219 215 209 205 213 239 216 212 200 198 201 203 207 202 190
141 161 208 216 178 130 198 203 204 193 192 207 201 184 189 242 230 206 261 214 211 226 220 217 217 213 213 212 208 199 209 207 210 226 236 222 199 204 197 201 200 192 196 196 205
227 117 187 212 207 206 208 208 205 213 224 211 199 187 183 249 243 266 258 206 210 221 213 214 208 208 205 207 202 208 208 239 233 243 218 199 197 202 199 190 189 194 189 186 189
209 221 201 199 208 206 190 218 217 211 226 205 200 184 178 253 168 111 247 211 212 213 210 203 205 204 206 203 206 205 246 250 239 213 200 193 193 189 188 189 192 195 193 192 193

GFSSW_2pvu_pres_018.txt.gz
Presure
202 193 195 193 191 200 190 192 197 198 198 191 183 201 208 202 221 161 235 224 278 335 335 306 297 382 236 260 282 289 268 278 118 187 275 124 127 140 126 134 144 138 122 129 122
193 201 153 198 191 193 193 195 195 197 199 195 192 201 199 196 152 222 234 306 330 98 307 272 361 276 177 230 290 217 250 129 200 140 129 203 156 138 142 106 140 133 141 134 134
189 185 191 197 194 187 198 184 169 196 188 182 199 196 95 186 229 220 202 307 312 358 371 261 268 259 277 269 251 253 125 110 260 255 157 182 141 143 159 145 150 143 211 142 140
204 193 195 192 188 191 185 190 195 187 192 166 190 107 193 195 216 210 236 353 252 370 256 261 269 275 260 263 256 260 147 264 263 243 127 127 149 150 210 120 138 146 140 123 127
172 188 200 194 182 186 182 175 185 181 197 176 149 195 173 206 193 223 221 278 243 308 237 252 267 271 195 251 253 242 246 257 257 232 237 171 236 131 151 150 127 141 140 145 190
192 205 201 194 183 190 183 124 167 170 210 195 188 186 201 204 201 212 228 262 245 304 239 253 259 267 238 238 217 263 151 236 232 144 230 199 164 146 239 151 193 121 125 115 126
197 212 190 180 189 182 182 184 161 182 121 195 199 172 203 190 202 212 233 280 238 290 248 270 256 253 238 237 233 235 144 253 242 246 142 217 231 158 188 158 152 114 119 112 128
217 203 193 182 183 183 180 178 193 191 187 192 187 191 196 209 211 218 206 337 232 254 234 266 257 240 225 207 232 225 244 240 197 130 230 148 201 223 220 158 250 153 147 125 116
206 185 189 192 181 171 178 171 200 184 156 174 190 200 188 187 210 223 212 302 225 225 246 265 251 243 162 157 218 237 233 230 226 242 228 223 135 228 178 166 140 133 135 113 119
196 194 172 185 151 186 164 176 186 184 189 162 189 174 200 196 203 205 214 253 225 237 255 275 252 254 236 229 225 218 225 169 233 241 211 226 213 142 208 141 150 149 136 131 125
186 193 192 196 183 176 192 193 168 196 157 190 172 206 188 201 211 217 222 286 222 231 231 261 256 245 238 237 226 227 243 232 238 221 215 118 194 136 216 219 162 147 138 119 127
184 180 179 200 192 181 190 168 178 185 163 168 198 192 192 197 195 182 219 267 215 225 230 248 235 246 248 246 240 238 233 235 180 151 223 210 223 134 201 129 133 129 149 138 199
192 176 185 177 188 182 172 189 110 165 186 175 200 158 190 201 200 201 181 251 219 222 228 229 233 233 240 242 217 226 219 226 128 173 219 217 221 226 131 194 185 177 215 223 179
182 187 185 185 180 186 178 189 176 177 174 201 184 192 186 192 202 204 221 253 219 220 226 229 224 226 224 239 222 213 214 218 218 216 213 217 219 203 222 226 224 215 222 216 217
192 179 191 185 191 185 182 192 199 187 193 168 169 189 184 193 197 194 224 254 218 218 220 229 231 229 225 229 240 217 215 221 216 218 216 221 219 222 213 214 213 206 213 213 220
191 188 190 190 192 156 187 186 195 198 181 168 167 186 201 208 210 212 210 238 233 218 215 222 238 235 232 159 245 227 223 221 217 217 223 221 210 214 218 221 221 215 215 217 217
187 186 187 200 200 195 198 198 177 175 177 164 191 184 195 202 208 178 196 230 214 189 215 215 226 223 237 243 240 221 218 230 220 223 215 212 210 232 201 220 225 220 211 210 209
205 195 163 198 172 183 198 199 194 173 179 197 185 191 208 204 177 186 219 224 248 219 129 214 213 225 228 229 229 227 226 220 221 219 219 221 227 222 214 210 212 212 214 219 212
204 194 181 195 194 186 195 197 191 174 199 190 187 211 169 210 198 215 209 220 245 213 212 215 214 208 226 224 226 238 228 219 217 219 222 220 217 199 193 174 126 197 224 256 226
214 202 197 148 196 208 208 186 161 189 187 187 200 208 173 196 195 187 224 241 253 213 207 214 224 216 205 218 209 217 213 216 217 214 213 211 206 205 206 215 214 127 166 217 242
196 209 204 210 172 198 200 194 178 192 208 198 200 184 191 191 183 208 121 239 241 227 224 208 239 207 206 218 203 213 208 203 204 212 215 212 210 215 212 126 126 137 218 229 214
226 190 210 201 219 210 176 198 179 196 211 192 207 173 200 188 214 212 121 232 225 274 207 226 217 206 206 211 209 210 211 211 203 210 212 212 209 215 154 219 207 224 219 211 202
226 219 197 213 212 209 178 192 155 188 166 189 201 184 185 179 204 167 177 201 208 283 206 214 204 243 225 220 218 207 207 208 214 216 124 148 229 221 214 222 228 216 208 199 197
214 225 193 237 226 223 191 203 201 211 215 208 187 193 143 205 196 176 181 201 231 272 215 217 236 240 235 244 228 228 222 237 191 121 124 217 205 209 236 223 217 202 202 199 199
231 228 148 129 169 211 209 196 205 222 175 192 214 199 150 198 215 171 183 197 190 276 247 207 231 233 226 224 216 216 214 209 200 207 208 220 220 244 226 202 200 202 207 200 191
238 243 232 130 126 202 208 160 205 205 190 193 188 202 218 217 197 178 201 188 223 278 245 212 231 219 217 214 209 206 208 209 208 210 217 216 243 223 196 198 198 198 190 195 196
225 240 223 220 221 215 133 144 145 180 211 190 203 171 199 199 215 183 225 178 212 281 244 218 220 220 219 209 203 209 217 205 211 226 227 255 228 204 191 191 191 189 190 195 193

GFSSW_2pvu_pres_021.txt.gz
Presure
192 118 171 174 186 192 186 194 189 200 157 191 194 190 194 196 209 124 193 180 122 244 272 404 301 266 353 280 259 250 259 279 284 270 175 135 128 292 173 131 248 151 133 146 164
197 192 191 194 193 195 200 197 193 192 195 192 184 192 174 195 194 200 173 153 231 260 253 393 267 388 372 282 264 258 277 242 274 262 147 202 225 265 140 140 159 138 135 112 193
190 184 175 193 205 202 185 197 184 184 193 182 188 196 194 215 167 196 210 212 235 266 242 369 257 270 267 265 269 274 274 283 269 260 275 258 255 244 234 247 169 149 138 194 133
192 190 196 187 197 195 195 183 171 205 193 150 191 197 196 191 144 194 196 191 234 281 238 269 257 271 280 262 272 283 286 280 171 247 115 187 233 236 249 230 169 131 139 142 133
189 183 200 194 183 182 191 193 199 201 160 192 187 186 186 138 191 204 199 209 221 275 230 245 259 275 261 253 264 249 257 279 252 225 209 128 135 229 168 255 123 139 173 139 129
190 185 197 192 190 188 194 186 204 183 189 179 195 194 200 180 188 198 200 199 223 265 229 265 269 270 253 253 252 251 245 257 235 232 194 216 231 234 171 218 137 139 241 169 136
189 164 174 175 187 194 191 186 197 189 169 152 180 191 176 194 181 193 196 186 211 268 225 245 274 260 244 247 252 252 236 246 238 222 225 226 227 232 227 245 255 141 139 195 161
183 185 184 182 194 184 176 186 173 190 180 188 195 179 198 197 194 206 171 199 209 322 226 231 277 256 251 243 240 229 243 227 225 230 218 233 232 229 244 226 243 218 117 141 147
182 173 170 184 185 195 186 197 208 142 182 154 188 191 170 194 190 193 203 195 191 239 227 254 282 248 253 238 231 227 233 239 233 227 230 248 228 215 228 219 198 218 200 143 210
187 172 169 184 177 184 195 199 181 184 180 190 192 196 181 188 188 185 190 202 183 225 231 239 277 253 245 242 237 232 241 238 209 236 232 242 230 215 215 226 222 125 217 208 196
170 166 197 170 197 189 192 190 179 186 204 196 181 181 161 183 179 202 189 200 191 219 243 226 259 260 251 237 230 221 224 240 228 219 215 234 194 126 208 214 126 122 208 125 112
197 201 185 163 195 172 191 199 185 179 189 193 181 183 184 190 176 168 197 203 226 231 246 218 253 248 238 240 231 223 217 216 230 233 224 222 213 199 203 132 181 208 141 159 158
164 195 208 204 198 191 188 177 195 190 170 195 188 183 191 194 185 165 202 202 206 220 366 216 238 232 250 233 236 227 224 222 229 225 228 228 228 218 117 125 119 132 128 127 178
191 204 192 193 203 192 179 183 193 184 190 188 193 195 189 187 201 201 194 183 199 217 360 215 222 236 228 223 218 242 232 241 239 229 213 219 219 198 178 120 220 222 219 149 131
192 198 201 189 200 214 208 191 178 183 197 190 179 180 187 184 182 194 184 207 209 214 350 210 213 232 229 229 235 225 241 218 222 228 231 225 216 207 215 216 210 212 213 214 214
183 191 177 188 179 196 206 207 181 187 189 192 189 190 199 165 197 178 198 189 198 176 277 208 214 219 236 235 231 229 239 226 211 215 216 214 214 215 217 211 218 216 212 217 220
235 202 222 193 178 191 183 198 204 187 186 193 195 206 167 178 182 177 205 205 202 196 260 215 215 212 226 234 239 238 238 228 211 218 219 217 216 221 216 210 209 213 216 216 220
228 213 228 221 188 186 189 198 204 189 204 195 177 210 158 199 187 183 203 182 167 203 254 262 208 209 216 211 236 243 240 228 219 219 228 218 217 209 207 200 227 223 214 219 223
241 217 225 218 219 204 187 167 196 178 184 195 189 184 158 179 179 200 190 175 196 182 215 281 174 128 139 217 213 229 237 231 227 221 223 219 214 210 222 224 218 220 216 206 136
249 241 233 223 225 214 173 205 175 187 152 194 187 189 181 186 175 195 199 190 203 175 210 257 239 224 210 228 214 213 208 231 234 224 219 222 219 220 222 215 213 205 209 146 208
244 241 234 230 226 193 199 202 188 188 186 203 197 186 168 206 193 205 182 206 207 185 198 236 270 206 215 229 201 206 211 214 211 213 218 206 204 207 205 203 207 210 189 164 222
257 248 240 236 206 225 125 164 186 162 199 185 188 171 192 183 182 190 205 200 209 189 210 205 272 221 216 212 209 222 211 210 219 213 212 213 211 208 205 201 140 209 221 222 216
252 248 219 243 238 214 206 199 197 206 117 193 189 191 179 192 167 186 157 178 201 212 214 212 275 249 210 204 219 216 215 211 208 211 211 216 219 119 210 129 212 211 210 229 226
261 253 206 178 236 217 191 188 194 200 202 208 190 185 183 175 204 197 218 191 201 200 199 197 276 252 218 199 240 237 226 214 214 212 223 229 236 233 128 211 207 203 228 222 217
256 252 170 201 242 225 218 211 206 201 204 205 204 191 200 205 206 214 210 156 200 165 182 198 278 254 230 208 232 233 231 226 225 227 217 202 214 215 224 206 199 225 221 212 200
279 258 257 224 226 217 179 210 206 165 210 204 200 203 213 209 205 182 195 218 197 218 177 191 200 257 236 212 227 222 217 221 211 210 207 215 208 206 208 216 237 223 208 197 193
272 270 254 140 165 208 213 216 192 204 209 216 211 218 161 204 188 198 202 197 207 216 178 193 186 260 238 230 222 218 218 215 213 213 215 211 225 219 227 249 233 217 191 190 194

GFSSW_2pvu_pres_024.txt.gz
Presure
200 173 199 173 195 185 135 134 204 190 130 207 193 189 190 188 192 202 202 215 187 209 138 221 275 237 274 344 313 280 257 187 253 281 279 273 275 273 132 276 211 178 200 129 130
203 186 186 213 197 184 204 204 206 202 102 190 194 198 190 200 207 206 210 192 195 175 208 222 226 237 286 284 303 269 248 254 254 287 272 270 255 216 181 275 197 259 147 149 126
191 211 193 196 198 184 186 181 182 154 189 192 188 185 182 210 201 190 212 217 150 108 208 234 261 246 306 288 261 248 251 247 285 153 266 269 251 152 254 227 225 213 143 206 181
151 207 183 192 180 181 185 206 195 181 187 192 172 196 181 148 162 204 188 216 210 191 201 214 259 244 287 268 265 262 272 272 268 260 270 148 257 245 229 124 150 236 262 214 243
192 197 184 204 193 198 200 189 178 187 187 190 193 181 177 163 205 152 183 182 198 193 199 223 275 226 274 256 272 259 272 279 198 254 246 249 233 247 227 202 255 232 228 230 195
191 189 198 182 186 197 187 199 189 163 180 186 190 175 194 182 194 203 189 199 199 201 200 211 252 225 266 252 261 254 258 261 249 238 232 217 238 229 231 115 240 246 201 224 206
185 191 189 184 195 190 193 185 193 194 185 179 191 196 183 204 213 186 174 186 207 191 216 229 254 227 261 254 250 247 257 250 233 230 243 223 235 234 112 176 124 145 130 216 223
182 182 189 183 175 178 185 178 189 194 170 178 186 194 157 202 189 200 195 174 201 198 162 221 252 225 260 253 243 244 248 242 227 231 227 245 237 241 147 146 230 247 252 231 215
207 180 169 176 180 184 185 184 184 183 186 187 170 180 166 203 204 190 200 198 188 206 202 212 251 220 259 254 235 237 242 238 244 239 235 237 225 185 232 232 220 232 233 165 234
185 194 186 163 178 185 181 215 183 173 170 166 197 210 190 204 199 181 185 193 183 201 202 223 268 217 262 253 243 234 230 236 237 228 228 241 164 230 224 221 214 232 214 142 217
169 207 189 195 192 192 182 189 182 193 201 206 196 169 163 204 198 187 212 193 207 184 209 213 252 214 248 258 243 244 225 235 240 245 244 241 235 227 220 218 234 213 147 206 217
177 191 214 168 197 190 195 183 182 181 174 181 179 201 202 208 194 185 188 195 196 208 195 211 227 215 222 235 247 235 226 222 232 209 237 238 240 233 215 200 215 223 219 205 206
188 189 197 173 204 191 158 180 181 192 188 203 189 183 191 193 169 197 179 181 186 207 213 217 229 211 211 240 249 236 227 226 219 218 231 223 219 227 232 207 222 128 217 199 164
149 165 155 200 180 198 190 195 171 186 197 200 193 209 182 189 202 182 196 208 194 208 198 187 276 211 213 244 237 246 236 237 225 223 224 223 226 222 211 213 220 211 212 123 142
191 160 182 178 170 163 202 191 203 185 182 183 198 201 203 206 188 194 203 186 185 198 197 203 224 265 212 210 238 232 234 230 243 227 241 221 217 220 227 223 225 218 179 130 127
224 162 190 205 241 197 191 172 182 167 163 182 177 205 205 205 191 203 204 186 209 196 161 204 214 295 210 208 230 234 235 240 224 214 221 226 220 222 227 224 217 218 220 221 213
212 205 240 189 162 223 222 161 236 186 176 159 180 185 205 205 203 197 206 204 190 202 189 191 211 228 223 206 207 241 239 240 244 212 205 215 215 214 213 211 212 215 213 217 222
247 215 263 208 208 205 205 240 178 179 201 178 178 187 189 211 199 209 186 165 176 199 198 206 201 206 287 201 205 216 237 243 240 230 218 217 219 212 212 214 208 216 211 209 202
256 261 253 262 251 212 243 250 221 211 204 188 173 156 192 200 198 213 186 185 186 209 186 199 199 207 292 216 208 209 217 233 239 237 227 223 220 229 214 214 207 212 202 218 219
258 257 269 249 252 244 260 246 217 190 209 186 194 197 189 205 210 195 182 170 206 182 203 190 200 196 207 182 210 220 218 202 222 236 233 231 229 223 221 219 219 218 218 212 202
266 259 253 253 256 252 264 237 129 210 150 211 205 186 187 187 197 179 203 167 195 192 208 183 187 208 223 280 205 211 213 203 210 221 221 223 214 220 225 225 219 214 202 205 199
275 265 251 254 265 262 246 234 213 210 212 210 188 176 182 202 192 196 188 194 177 192 202 196 190 174 215 252 243 216 198 205 212 204 205 208 221 218 210 213 212 208 210 207 209
279 260 251 249 274 233 237 122 213 213 217 210 206 198 199 206 172 187 196 181 198 195 214 191 208 191 204 285 266 238 205 234 223 229 212 202 211 205 204 206 207 211 205 209 215
279 273 259 252 186 257 217 167 214 212 218 210 196 200 200 203 181 196 159 179 197 189 221 185 220 203 170 243 266 239 226 240 242 227 220 214 208 208 207 209 211 213 226 223 217
288 272 255 97 262 252 233 229 221 200 220 179 182 204 191 203 198 194 204 174 200 209 213 202 205 195 182 213 265 235 232 229 251 235 221 226 219 238 223 218 220 217 213 220 214
318 280 269 99 116 256 239 229 233 229 218 219 208 201 196 189 196 201 205 206 213 194 180 156 166 178 180 220 274 234 220 209 227 224 218 217 213 216 201 228 203 203 220 215 216
356 281 81 137 200 254 247 233 225 221 216 210 152 192 182 192 193 194 206 194 208 197 214 204 202 200 193 198 211 238 232 226 212 210 210 207 205 205 200 211 216 221 217 224 237

GFSSW_2pvu_pres_027.txt.gz
Presure
204 216 202 192 211 217 194 192 208 198 193 212 187 193 190 195 203 191 197 153 205 190 213 189 202 224 88 272 261 338 290 265 249 248 276 295 269 258 262 268 143 222 228 185 144
206 211 206 159 194 192 208 195 188 195 197 197 197 187 203 187 188 196 209 204 197 189 222 189 163 224 215 236 271 281 261 248 244 248 288 266 259 266 267 111 270 256 269 226 190
207 202 205 196 188 201 224 183 202 170 194 184 215 187 186 186 193 196 201 196 202 219 191 106 196 180 220 246 280 281 260 253 251 276 267 255 260 244 262 278 246 248 133 245 240
195 204 206 203 204 212 195 193 191 214 186 193 196 212 198 202 169 175 200 209 206 215 103 193 191 214 242 238 268 290 265 267 278 273 254 259 269 245 247 235 235 223 126 240 223
216 209 194 210 189 192 203 182 194 178 198 195 195 204 185 201 200 196 198 190 210 175 201 197 191 205 270 222 265 270 292 268 267 253 261 245 246 239 234 241 241 192 234 239 134
227 206 200 179 195 191 200 197 190 205 191 181 184 200 187 180 195 181 194 186 207 206 180 208 191 216 298 220 266 260 268 279 248 254 247 236 233 234 213 248 224 225 204 206 231
209 205 195 186 191 197 191 193 185 190 189 191 181 188 186 199 191 197 176 227 200 174 179 199 192 214 233 221 262 251 278 263 245 244 238 241 117 249 235 162 217 259 234 223 242
189 199 204 206 183 183 187 174 178 192 163 192 185 180 185 190 182 180 199 198 194 173 214 198 192 216 230 215 258 251 254 254 247 237 238 234 238 235 225 221 236 241 244 221 143
174 184 196 194 182 199 178 181 186 187 184 179 172 182 196 196 155 211 210 208 208 192 203 191 199 216 232 212 264 246 233 238 242 242 244 229 239 239 231 230 223 247 118 149 129
179 173 186 186 189 190 203 194 166 179 181 196 181 191 196 191 186 204 215 194 207 205 192 179 200 210 235 213 245 251 239 238 239 242 231 229 232 231 234 240 231 228 134 233 142
168 170 176 195 161 152 218 191 176 222 183 192 174 199 201 179 188 197 201 204 200 198 203 215 201 200 218 209 215 254 246 225 237 240 236 234 234 228 229 227 228 221 221 227 221
157 165 180 158 180 187 182 174 158 198 166 195 184 171 191 200 193 178 190 168 217 197 198 178 191 214 220 236 211 248 239 236 225 228 240 242 225 232 229 222 212 226 221 221 218
192 180 192 184 164 201 178 183 205 183 191 188 180 167 169 175 176 181 165 181 211 202 189 194 187 202 217 249 211 249 239 236 232 219 209 226 240 230 248 209 214 215 215 206 221
165 195 176 164 143 171 195 174 187 183 180 186 173 186 200 179 183 184 190 191 194 211 170 184 190 185 206 238 209 210 243 227 232 232 221 220 223 208 233 228 218 211 124 214 202
202 205 192 212 156 142 195 201 173 167 169 176 197 194 190 196 194 176 178 206 205 214 203 187 197 191 205 230 227 206 211 240 229 237 239 228 226 216 236 216 226 211 211 217 199
194 214 192 181 146 193 161 177 181 184 164 154 167 158 166 167 167 183 187 213 197 218 171 202 196 188 201 212 262 205 208 236 237 237 220 225 234 220 217 226 225 216 216 217 220
208 222 206 151 187 199 199 198 205 180 202 165 188 198 223 183 207 193 190 190 155 211 164 188 206 189 186 204 223 213 203 206 237 240 229 206 216 224 229 220 224 222 218 214 214
242 239 240 207 187 205 176 195 171 177 167 174 187 165 227 233 183 214 199 178 210 192 168 164 184 201 196 201 213 307 217 210 200 248 240 224 207 216 217 214 213 213 210 211 218
278 276 243 231 232 213 228 221 217 201 213 191 225 196 204 182 215 178 196 203 188 181 176 154 188 201 193 210 206 231 204 172 133 204 242 230 222 227 217 216 214 214 208 212 217
301 278 263 260 259 253 262 220 243 238 251 216 203 213 238 207 194 212 211 183 182 205 178 168 206 200 194 180 202 174 276 229 210 201 205 237 221 222 216 213 218 212 214 213 209
374 302 257 278 275 269 250 233 211 253 197 232 206 210 231 204 182 201 191 204 190 192 213 171 182 191 188 180 186 231 274 203 222 217 210 198 237 229 228 225 215 220 218 219 215
340 388 317 251 269 281 273 254 260 259 239 216 237 224 226 209 211 211 177 213 216 218 215 169 166 195 213 199 185 224 290 231 210 195 217 201 220 207 227 215 214 219 213 206 206
358 387 370 347 298 297 272 269 256 225 230 237 237 228 213 218 201 212 204 202 195 210 187 176 182 206 184 209 192 208 273 258 220 204 217 217 208 212 198 202 208 205 204 210 211
334 389 355 355 318 257 287 265 259 233 118 234 235 224 215 214 208 214 218 186 198 197 203 184 169 205 187 179 195 189 238 261 242 240 234 229 227 222 212 207 207 207 205 211 211
328 417 351 359 353 339 289 226 238 233 235 246 241 222 218 214 207 204 180 205 184 200 187 183 212 205 197 208 191 186 182 265 244 240 234 275 249 225 212 209 206 210 238 222 221
318 443 375 102 108 199 89 259 236 234 234 237 237 122 216 207 208 169 200 206 170 205 167 207 203 212 191 208 169 173 191 180 257 238 222 220 222 227 220 220 218 223 216 207 220
324 447 376 280 123 333 180 224 227 231 217 249 226 223 183 209 208 190 191 204 195 206 208 196 200 203 161 193 208 197 192 224 251 240 220 204 208 217 214 211 203 209 203 200 216

GFSSW_2pvu_pres_030.txt.gz
Presure
219 201 208 222 201 174 221 211 203 204 206 158 206 209 194 191 182 191 187 216 209 212 171 162 200 231 213 211 234 240 294 238 259 250 248 280 279 279 260 259 270 308 269 213 235
217 211 201 203 206 215 187 215 208 188 180 205 190 210 192 205 195 201 201 209 217 220 201 222 213 208 192 161 236 172 99 273 261 250 273 291 270 257 268 262 270 288 252 220 212
225 215 207 207 199 210 209 209 215 197 217 190 202 186 188 191 193 213 206 217 200 188 197 205 217 211 212 211 256 245 284 282 265 253 276 241 240 255 247 266 262 245 262 230 209
221 184 215 214 218 224 204 185 202 203 197 206 208 202 191 199 198 193 193 204 200 207 190 223 203 185 103 211 254 238 292 271 271 285 267 253 250 242 246 258 242 240 243 239 217
198 194 200 219 218 218 190 215 204 204 196 184 210 193 190 198 207 200 196 209 202 212 205 215 183 193 195 209 275 236 266 286 284 268 252 263 242 238 232 238 233 230 243 252 207
184 189 198 193 201 208 206 205 200 197 207 196 200 193 201 196 196 202 199 200 197 210 214 206 201 184 209 215 257 230 269 301 260 261 255 241 235 232 235 230 235 231 238 238 240
179 162 160 195 194 186 166 195 198 192 199 192 192 197 201 199 178 196 176 176 192 202 220 217 170 206 206 218 247 220 261 280 255 273 244 242 236 239 235 227 236 230 228 209 240
167 204 168 187 189 199 190 197 193 190 188 182 181 179 178 185 179 181 196 191 193 213 192 214 188 202 189 220 247 213 247 250 255 260 244 244 241 238 231 237 223 230 235 215 130
177 169 187 186 169 166 194 180 185 183 191 191 187 182 176 179 187 195 181 207 205 201 220 207 215 193 181 213 225 213 233 240 237 264 258 243 235 247 242 239 233 228 259 195 223
196 173 184 208 138 177 156 159 184 177 183 188 194 186 189 196 193 188 204 204 186 204 195 201 179 196 177 206 213 242 218 248 232 241 236 252 230 238 242 234 224 234 241 248 221
227 195 174 185 213 187 195 178 183 199 182 192 169 176 191 178 193 196 206 176 190 189 178 198 195 190 179 197 212 247 208 243 232 235 239 228 233 220 231 228 229 235 222 235 221
207 176 184 205 185 168 186 193 174 179 171 186 194 170 182 182 191 181 193 207 175 206 168 195 208 188 213 196 209 249 207 223 237 221 236 240 219 245 233 242 233 231 224 217 218
182 204 180 192 196 176 186 200 172 158 183 185 192 183 191 178 198 182 201 187 204 165 210 193 204 175 171 192 202 228 207 210 231 236 221 220 231 240 153 163 231 223 224 219 223
198 202 175 203 156 170 203 184 152 168 155 192 199 200 187 175 186 202 193 195 177 203 176 221 202 177 186 189 197 202 254 206 225 240 239 229 220 220 236 234 238 216 206 210 214
200 212 194 167 185 175 191 184 170 181 183 185 166 176 194 193 179 175 169 172 191 218 173 197 187 179 195 190 197 204 221 205 209 238 235 233 229 223 220 213 234 133 215 209 213
225 197 196 196 142 189 191 180 209 175 195 182 191 181 168 162 161 161 200 194 182 204 192 231 200 189 171 190 205 201 207 243 204 208 229 238 230 230 226 223 221 217 217 211 210
212 207 215 221 162 191 196 166 163 211 159 183 148 153 177 194 159 194 170 191 198 199 191 165 204 175 170 173 197 200 209 219 245 209 210 242 232 226 242 228 220 226 217 211 207
235 230 239 207 220 188 185 201 203 168 170 186 160 186 162 181 195 189 167 180 185 150 226 217 219 176 178 169 185 195 209 208 265 204 210 212 244 232 220 221 226 222 221 222 221
325 266 247 216 220 224 231 201 193 162 187 173 163 182 194 190 183 159 189 194 219 176 195 212 194 203 175 176 194 212 204 215 263 233 224 209 215 243 232 217 219 218 213 213 213
359 333 304 259 260 220 245 228 214 210 194 171 210 173 168 167 171 183 212 208 168 226 178 196 199 175 175 183 194 204 208 210 250 207 165 211 203 211 245 232 229 217 218 220 217
325 339 302 322 289 285 261 264 233 203 210 204 214 207 210 205 198 198 194 230 209 185 216 198 197 192 212 180 173 200 195 198 218 258 250 203 224 213 201 248 228 221 215 219 220
317 324 317 355 331 350 267 285 153 243 231 215 219 225 198 198 212 171 197 198 205 200 200 215 220 213 181 181 182 189 208 205 195 262 241 212 210 211 219 219 206 235 215 227 227
323 311 304 314 343 413 330 303 295 277 246 239 223 226 236 225 205 200 163 235 193 215 200 148 202 192 176 177 173 194 222 205 189 265 242 237 204 210 226 203 225 203 210 223 206
384 345 236 307 322 280 92 370 266 297 284 276 256 257 207 212 200 218 237 227 216 216 205 223 216 207 185 184 209 196 197 207 193 199 255 233 229 244 238 223 212 208 209 211 207
354 371 299 317 146 297 355 360 360 344 155 139 249 243 266 237 220 235 233 207 216 196 177 223 199 184 193 207 190 187 213 192 207 180 209 251 230 232 229 250 232 221 218 211 228
339 384 347 304 316 309 331 370 354 341 139 241 252 253 248 251 244 224 221 235 212 209 209 204 218 202 175 205 179 198 216 215 166 184 194 261 233 225 219 221 261 230 223 227 219
354 368 373 149 126 206 330 199 144 339 297 274 244 244 239 237 240 220 217 216 211 201 201 211 199 211 196 192 189 209 194 173 211 221 201 192 245 227 220 208 211 211 210 208 205

GFSSW_2pvu_pres_033.txt.gz
Presure
195 173 141 187 226 206 191 208 215 213 201 198 190 217 194 205 203 204 166 218 190 195 198 206 195 231 226 190 133 211 276 250 196 275 264 279 297 282 276 277 279 294 203 205 216
201 203 206 218 202 193 221 211 221 219 211 218 201 209 202 202 200 191 196 209 192 202 214 199 236 213 216 175 217 220 202 256 160 281 266 266 218 264 276 284 256 304 217 206 200
143 197 215 194 218 175 221 214 203 203 209 207 212 202 213 196 201 192 195 204 196 224 228 201 235 230 212 208 216 236 230 243 289 291 259 250 244 266 229 223 204 299 213 193 224
187 181 211 200 219 183 209 223 222 223 229 199 197 195 192 193 195 206 208 195 206 211 210 196 193 220 209 201 127 235 244 252 284 295 261 252 255 266 224 228 211 237 259 198 188
194 190 193 137 182 194 209 208 228 218 221 210 210 202 215 205 185 194 203 199 212 202 200 189 213 205 199 201 208 226 247 240 303 286 262 253 257 249 222 233 236 245 250 244 202
184 182 181 171 168 168 181 174 200 208 198 212 206 205 193 199 205 201 194 205 194 194 210 197 210 204 210 202 202 218 248 230 273 272 261 258 240 240 244 223 248 232 243 245 228
195 167 182 179 207 167 189 175 207 179 209 182 165 201 185 199 193 193 184 194 186 197 187 215 195 199 175 194 203 219 241 219 248 259 274 231 247 240 238 234 233 240 235 245 231
190 184 186 174 187 201 157 189 170 181 179 172 189 191 189 178 193 171 189 187 193 197 191 187 188 227 140 194 201 213 229 219 242 280 261 215 214 236 238 228 233 229 236 229 230
194 186 174 177 182 183 198 167 169 183 169 179 185 183 173 188 178 184 189 186 179 189 176 190 197 193 212 199 203 208 222 222 245 230 254 206 197 272 240 223 239 228 230 228 232
196 182 166 155 163 197 198 193 168 166 186 155 177 184 188 180 191 161 201 186 200 168 194 181 189 202 201 217 187 200 210 239 214 235 244 240 217 233 228 236 236 233 233 228 227
191 174 170 164 201 195 212 200 177 192 180 174 206 192 188 190 164 187 170 196 185 180 179 204 194 177 197 207 201 201 206 257 207 232 231 237 228 235 241 235 240 223 237 204 219
189 192 178 174 190 205 192 158 193 190 156 173 176 169 170 175 198 171 201 185 188 167 199 177 188 184 243 208 179 192 205 213 213 215 236 228 234 226 230 225 231 227 228 231 229
190 168 169 180 180 172 204 210 188 174 182 185 179 188 180 194 196 187 181 209 161 191 184 188 211 179 185 202 196 186 192 208 242 204 223 234 223 238 234 234 238 247 220 227 220
190 199 191 198 212 191 190 179 222 177 168 190 180 157 188 166 173 172 187 203 201 190 175 179 196 174 211 182 204 177 188 210 212 205 207 228 241 224 222 249 227 195 233 229 214
185 222 209 207 197 216 181 180 191 215 188 202 191 174 198 187 176 183 183 175 194 177 165 184 205 174 219 215 176 179 181 195 210 217 205 209 232 240 227 218 228 253 226 215 211
220 207 213 208 231 201 218 200 175 177 192 189 178 173 180 186 180 171 170 187 195 160 198 170 197 186 200 202 205 189 182 189 209 210 248 214 212 233 243 231 220 227 235 219 209
233 212 213 226 225 229 214 232 161 172 156 173 189 182 184 185 181 176 186 158 173 156 196 160 186 178 170 207 208 181 190 185 199 215 225 236 213 213 242 236 230 219 231 230 220
260 250 224 218 233 216 200 195 195 215 183 200 191 175 197 198 183 185 178 188 157 185 198 182 165 189 201 205 225 194 170 175 203 210 215 269 217 215 222 237 222 236 219 224 221
273 270 270 257 232 236 212 222 219 210 201 178 180 192 187 170 189 191 150 185 196 187 197 198 164 204 185 221 220 182 172 178 185 205 211 263 255 221 198 218 238 229 236 230 223
267 327 309 296 278 261 253 256 221 231 189 193 198 204 196 190 173 197 179 186 189 171 166 164 181 177 191 212 204 203 170 182 194 207 215 210 270 241 216 202 213 247 224 220 230
312 326 319 333 344 356 286 267 263 220 190 234 206 198 194 193 170 189 181 196 182 174 161 200 194 170 207 178 178 175 179 188 178 184 216 204 244 267 231 219 208 208 242 231 228
301 316 312 302 315 341 355 313 263 269 252 222 217 209 215 195 195 194 187 174 174 168 188 169 193 194 207 196 209 207 165 172 183 172 217 211 207 264 256 203 206 227 219 236 236
300 297 283 316 312 288 328 346 271 229 253 236 244 215 216 202 195 193 195 195 182 198 205 210 212 202 189 226 175 209 190 176 200 178 218 214 204 213 253 244 229 209 205 212 213
301 300 289 97 296 326 210 319 244 177 275 309 262 221 228 211 210 200 200 203 204 198 198 208 207 190 155 207 206 197 186 185 189 186 186 206 205 197 235 252 231 231 245 214 215
301 293 140 298 121 261 257 297 306 332 345 383 335 252 244 223 225 205 207 211 206 200 209 205 210 201 210 187 210 207 198 178 186 198 186 220 224 179 187 187 239 224 227 270 235
324 315 311 112 336 210 286 113 105 319 327 399 359 298 248 217 229 218 216 212 215 211 214 208 208 197 221 209 177 194 185 206 174 197 184 213 216 185 190 192 190 231 221 222 276
360 365 332 332 349 337 299 315 182 140 322 388 314 309 282 275 239 239 230 233 226 230 225 190 240 216 212 219 206 209 189 182 177 189 191 197 177 206 217 206 180 232 223 217 212

GFSSW_2pvu_pres_036.txt.gz
Presure
181 199 169 196 188 219 176 225 212 220 172 218 225 223 216 215 216 206 192 203 200 204 208 214 209 195 202 203 241 233 195 230 270 301 296 293 309 244 247 193 182 194 174 137 203
194 94 144 195 190 202 186 177 161 118 194 205 194 203 202 223 195 203 200 208 205 199 220 215 214 223 194 223 221 224 219 222 287 174 269 192 298 224 249 224 179 188 209 191 192
185 154 186 203 193 172 212 199 142 219 229 190 220 221 207 202 209 208 201 205 209 200 200 210 220 191 187 205 210 217 222 234 295 313 275 260 279 281 238 220 222 213 212 235 258
195 166 192 174 200 192 192 193 186 112 192 220 226 231 228 220 211 208 198 202 209 210 206 189 197 188 199 197 212 199 223 88 316 320 262 262 243 244 217 206 199 219 245 289 201
169 172 198 186 170 199 185 196 202 206 201 191 196 179 230 217 208 204 209 208 210 205 206 194 193 201 202 219 210 216 213 223 272 286 270 270 219 234 230 232 217 225 233 213 198
193 187 184 198 162 190 163 188 191 187 186 172 206 177 203 217 207 204 203 204 201 202 200 195 202 184 203 221 194 213 207 229 234 278 272 237 228 250 258 246 220 226 225 211 200
137 182 182 179 188 174 182 194 182 180 210 199 196 194 216 182 150 200 193 191 196 196 189 202 181 209 190 233 201 217 203 220 216 245 231 221 202 231 206 223 222 256 226 259 182
183 181 188 182 171 158 186 189 174 190 181 182 161 207 177 197 173 190 193 165 192 178 190 181 213 174 188 209 190 194 199 209 232 227 234 226 219 210 223 208 256 257 220 253 245
191 184 189 183 182 184 178 208 205 151 177 183 170 168 167 204 165 203 170 181 182 189 196 180 205 210 190 207 203 207 201 198 216 201 221 221 204 208 224 231 232 245 208 224 244
183 190 183 183 186 188 189 198 190 190 160 184 191 158 185 200 167 181 178 193 192 184 176 188 163 190 199 186 175 195 208 198 204 230 222 234 214 211 201 206 252 220 242 222 233
186 186 185 185 178 172 185 194 196 208 180 186 185 169 188 190 181 181 192 188 173 175 179 204 221 186 213 194 207 206 198 197 197 213 233 252 252 206 199 216 253 243 235 219 222
189 189 181 164 163 165 181 198 166 198 195 152 166 168 197 179 169 173 168 182 187 184 199 173 213 172 175 183 203 178 187 198 192 208 213 204 254 231 210 220 240 236 225 237 228
191 193 185 178 182 190 176 192 170 180 172 182 177 190 203 179 189 165 198 171 189 178 197 195 197 182 186 207 177 203 207 181 187 192 206 239 206 244 243 239 224 228 225 221 239
178 191 185 196 191 193 180 189 152 184 137 171 169 162 201 194 165 141 183 199 186 166 176 190 193 166 176 192 211 194 211 192 188 191 207 206 234 206 241 229 246 237 243 230 233
202 175 175 176 199 190 184 196 181 188 205 198 194 192 206 196 183 182 179 174 165 185 193 175 185 179 198 199 174 185 204 212 191 193 192 204 247 230 213 242 232 245 226 220 219
219 203 202 206 209 203 214 196 194 187 189 180 192 162 175 188 176 179 163 179 173 196 183 186 177 173 191 199 183 196 206 211 193 185 194 209 211 255 215 218 256 224 225 244 224
238 224 216 224 205 209 222 193 216 206 188 173 206 192 169 212 187 197 185 192 173 185 171 186 161 158 207 199 174 200 187 201 197 194 194 194 212 214 265 228 223 239 230 233 236
222 238 222 222 226 219 206 215 200 205 231 215 191 206 190 179 190 187 173 177 155 180 179 182 169 156 188 203 170 184 200 178 209 192 183 214 190 213 237 264 225 238 237 225 233
247 246 249 242 247 221 238 244 182 221 225 217 229 212 192 181 206 195 190 166 191 147 178 177 192 156 197 178 196 187 197 217 212 187 185 192 192 222 215 275 199 198 211 245 217
269 263 279 267 269 252 234 244 232 118 187 219 205 232 230 195 186 210 187 161 183 180 205 181 192 164 198 187 189 183 175 196 179 190 195 193 194 188 224 210 277 204 207 206 248
321 284 299 282 292 307 299 278 229 115 206 220 216 231 235 218 199 194 197 196 190 185 185 188 156 192 198 167 192 176 191 180 199 205 175 188 186 188 239 220 219 260 237 211 207
313 316 311 315 321 330 342 282 279 211 111 248 169 218 237 209 214 199 203 189 202 183 191 150 173 164 199 197 187 176 196 186 201 212 194 177 192 206 193 205 203 216 256 199 213
306 308 301 286 314 293 138 319 330 334 293 308 277 250 221 208 203 199 209 205 185 193 197 190 199 200 171 164 186 174 198 204 195 207 198 191 202 174 154 217 202 199 225 250 234
296 294 185 302 133 321 318 91 324 175 230 109 324 233 229 224 209 205 216 204 194 196 204 197 170 200 158 181 192 187 198 169 198 174 200 186 199 195 198 225 222 200 190 200 246
274 284 299 291 301 213 304 290 295 287 300 324 134 348 305 279 224 214 221 174 196 203 205 197 204 203 197 194 195 190 173 198 180 206 209 198 186 189 186 204 212 173 218 187 198
286 299 273 83 271 310 284 96 292 314 303 304 324 333 368 373 294 243 232 216 204 214 211 205 196 202 205 198 189 198 188 200 198 191 204 186 178 173 193 206 213 222 237 217 241
286 296 295 162 125 95 291 275 113 110 236 254 304 273 314 361 315 263 244 232 217 211 213 211 206 207 205 202 200 207 197 199 186 216 218 197 191 180 180 184 199 197 217 224 205

GFSSW_2pvu_pres_039.txt.gz
Presure
170 190 174 197 196 198 172 202 192 192 193 199 214 207 166 156 195 197 204 212 201 223 215 206 204 226 210 159 203 205 226 216 235 256 331 324 258 227 214 234 213 213 202 226 229
199 190 190 202 162 201 195 199 199 191 206 188 201 226 220 205 141 176 183 216 207 205 211 207 209 211 210 208 197 216 187 211 228 348 303 295 231 228 225 145 156 151 222 217 240
182 177 197 180 184 190 169 97 203 200 190 200 207 202 181 184 226 231 218 216 213 207 204 212 216 212 199 199 202 198 206 214 209 354 298 273 222 223 220 235 206 211 209 222 243
186 182 203 190 143 202 200 203 159 191 191 196 180 191 224 211 194 232 226 209 213 212 212 204 198 202 210 194 185 202 200 230 271 333 288 274 254 211 205 245 204 216 212 207 236
179 183 180 188 191 187 178 184 181 181 196 191 177 199 202 188 169 206 211 216 211 214 202 200 201 193 190 188 197 209 212 193 226 227 264 278 264 239 233 212 219 209 208 200 196
173 192 182 166 185 188 185 193 190 189 198 183 132 170 192 182 200 193 195 216 196 200 197 192 193 202 190 207 212 212 180 219 209 226 246 256 237 206 234 191 184 224 204 205 185
201 192 194 180 174 179 181 180 193 173 177 183 194 174 186 194 177 193 201 192 188 163 197 195 194 193 187 185 207 213 211 196 197 248 221 259 228 208 212 223 200 227 233 206 221
189 198 190 198 184 181 188 184 156 182 185 183 190 191 187 188 172 202 215 190 163 185 187 155 179 183 177 178 185 197 199 204 210 201 247 217 242 229 242 214 219 235 216 207 235
194 196 184 187 183 183 174 177 185 184 187 150 177 187 194 200 179 180 185 189 197 187 183 194 175 169 195 193 185 170 196 214 200 195 221 219 237 218 243 216 210 218 239 214 221
207 191 199 190 199 194 195 188 181 176 185 185 180 196 169 193 168 182 193 192 177 188 165 178 174 190 190 189 189 190 168 193 196 204 201 229 238 218 223 220 209 223 237 238 203
195 191 201 199 185 188 183 198 183 163 187 182 189 188 194 198 189 163 173 167 198 189 169 151 187 185 196 205 164 198 195 174 203 226 187 195 240 256 215 219 205 210 245 243 230
186 196 194 193 195 184 190 189 176 191 186 183 179 166 193 192 191 173 171 191 167 199 191 199 193 170 187 205 169 178 198 197 186 212 223 203 212 239 271 222 222 242 169 248 232
208 199 197 184 189 182 195 189 179 187 187 188 182 187 179 179 164 182 168 174 197 195 178 203 194 178 165 203 178 166 183 187 191 190 220 203 193 208 231 216 245 231 256 241 241
198 200 207 181 181 189 187 188 195 190 180 179 170 143 169 201 179 197 162 185 182 196 174 170 174 192 195 195 172 159 183 200 178 189 208 224 198 208 228 224 208 239 245 235 237
202 204 196 204 199 197 200 177 183 183 186 195 188 134 189 191 187 190 192 165 175 197 200 177 169 172 192 203 166 153 177 207 173 195 203 214 196 206 217 274 233 223 242 255 249
211 203 197 195 193 205 202 198 201 186 167 174 171 170 164 176 171 181 195 184 193 195 205 191 186 192 185 191 164 166 195 171 192 190 176 210 218 193 200 210 269 232 219 227 247
214 208 207 207 212 200 187 187 193 202 201 195 194 199 194 192 188 198 188 201 192 188 203 194 183 179 164 188 174 163 172 193 175 183 191 203 210 191 173 223 215 250 218 216 239
230 234 227 205 211 207 203 215 217 202 190 201 199 198 200 201 197 196 193 193 186 195 171 185 183 170 159 188 180 161 182 190 190 197 208 204 207 220 189 193 219 229 232 201 209
241 229 239 223 226 218 218 221 221 206 94 189 206 208 206 204 206 204 208 197 202 193 194 182 192 183 166 190 177 162 163 206 165 199 203 187 202 187 222 188 197 211 238 232 205
250 245 246 237 237 238 248 175 230 178 214 219 213 220 219 225 200 224 210 211 212 192 205 217 185 157 180 194 190 187 160 203 196 179 168 200 200 221 197 200 197 213 202 238 273
268 259 255 253 253 245 245 237 84 162 247 145 227 239 221 225 226 222 219 205 210 219 196 198 187 200 197 181 168 200 157 199 176 197 184 198 178 219 197 198 197 213 233 207 220
289 310 302 284 284 287 273 107 95 172 84 116 245 227 231 221 221 219 227 208 217 217 221 200 199 185 197 203 183 164 174 199 195 182 185 182 192 207 208 197 197 204 221 227 236
336 339 289 285 206 270 278 280 293 220 268 299 276 138 210 238 245 235 238 251 216 218 222 198 206 193 202 191 174 159 166 199 200 196 197 190 195 194 210 188 197 198 210 210 219
308 309 310 318 315 90 323 317 292 330 209 321 342 320 338 289 276 239 237 238 219 213 218 214 204 210 215 185 174 189 201 201 198 191 193 188 203 189 194 213 200 193 211 219 227
285 302 306 240 311 305 304 306 300 134 305 315 111 323 314 335 336 276 254 227 228 213 219 219 220 207 199 197 192 209 199 203 170 185 177 192 191 200 194 186 198 184 198 200 218
281 287 290 293 293 200 296 296 289 303 301 305 316 300 288 321 333 329 291 278 229 213 235 225 215 206 204 193 202 205 189 212 160 197 185 196 192 192 202 197 190 204 197 198 195
278 279 272 292 294 219 301 280 257 241 250 298 178 246 311 316 293 331 287 290 273 218 219 208 214 212 217 207 202 206 201 200 198 201 184 193 188 196 198 205 201 188 189 182 193

GFSSW_2pvu_pres_042.txt.gz
Presure
201 208 221 198 199 197 142 204 148 203 195 195 206 204 206 216 223 215 209 222 205 226 226 223 157 194 209 201 218 212 218 204 181 230 345 309 324 242 256 256 236 235 226 244 218
199 228 188 144 156 163 180 216 192 193 196 193 192 198 201 194 215 201 228 235 210 168 213 213 201 213 216 214 202 204 213 199 231 218 345 291 280 252 239 249 229 230 221 238 250
256 149 185 205 215 200 199 205 182 185 190 182 186 193 182 176 187 168 180 203 220 233 224 219 213 214 211 212 192 201 196 223 205 226 324 254 262 233 249 226 227 230 236 212 251
181 222 208 201 212 194 192 194 188 197 191 167 199 174 201 193 202 202 203 193 180 186 216 219 215 202 200 192 201 188 188 218 204 212 260 279 250 217 226 225 225 242 210 244 221
232 226 216 194 205 195 168 192 197 205 190 189 175 182 178 199 184 193 203 197 216 198 219 204 197 200 196 200 188 195 187 193 214 227 243 282 252 223 218 228 216 220 223 216 221
223 234 210 191 206 205 189 194 177 178 178 215 183 180 191 132 173 196 187 200 189 203 196 181 203 201 197 187 187 183 187 189 233 221 241 264 246 231 213 244 210 202 220 187 202
217 232 206 207 204 193 204 178 191 179 203 188 189 192 188 149 191 166 193 170 190 205 215 184 187 192 177 188 176 190 178 159 225 196 209 211 231 219 251 240 237 175 199 212 157
213 226 204 213 200 202 190 201 201 195 182 188 186 175 178 183 178 166 190 189 189 192 211 197 170 174 200 192 176 202 183 213 188 200 210 202 215 235 223 223 212 237 235 262 214
219 220 208 219 197 190 194 194 194 179 194 181 175 177 176 186 192 189 185 194 194 197 212 199 167 178 191 173 183 163 193 172 166 182 221 192 204 214 233 230 239 229 222 246 256
230 223 206 203 208 198 199 190 195 191 191 179 180 174 173 181 178 189 174 190 192 186 167 195 173 188 194 151 187 174 210 199 181 189 198 206 193 206 235 216 234 220 215 220 251
208 226 212 204 196 194 192 204 191 186 194 171 178 171 187 182 180 191 182 189 200 187 177 167 199 212 164 193 171 180 188 171 172 191 201 207 220 196 207 251 252 235 219 227 257
218 216 224 207 203 205 197 202 203 187 190 185 186 189 181 179 174 188 168 175 185 202 177 178 183 193 150 177 177 192 188 184 195 197 180 190 204 206 197 215 265 257 238 237 253
211 214 216 213 211 202 213 204 218 199 171 193 191 180 179 173 167 158 186 185 190 184 194 188 181 188 202 195 190 166 196 167 163 174 194 192 195 236 201 210 253 235 255 235 247
215 214 216 203 215 209 201 213 204 175 195 192 194 184 172 180 171 189 190 159 151 186 200 186 165 198 208 188 197 163 191 166 180 173 198 174 187 204 213 202 201 262 212 246 249
225 225 212 208 215 208 212 181 207 196 182 194 192 199 200 199 182 188 192 191 187 177 196 167 190 179 174 206 174 170 174 194 164 193 171 187 175 207 201 219 198 208 254 221 241
213 221 216 215 207 213 212 203 204 193 184 193 184 167 170 174 163 179 160 183 180 187 187 184 192 197 179 200 169 165 182 199 167 160 189 200 173 186 196 200 199 196 250 255 216
240 228 226 221 229 217 217 206 198 201 199 192 187 189 191 186 177 181 184 183 187 181 171 163 180 193 193 183 189 199 202 191 180 164 181 201 170 203 203 197 213 193 206 281 222
240 229 229 224 231 226 230 225 208 81 181 190 214 193 191 189 192 190 190 187 186 185 182 198 196 197 209 193 200 215 202 184 198 160 165 195 174 195 180 194 210 209 194 208 281
236 244 224 236 234 228 229 104 222 196 175 208 100 142 199 199 203 186 195 190 196 205 204 192 196 202 202 196 181 169 157 181 195 157 153 199 177 184 193 197 175 222 187 209 199
246 246 239 234 235 237 228 222 210 148 213 210 205 201 204 203 195 191 196 196 196 198 196 202 196 205 214 174 186 180 167 191 180 159 166 198 195 199 186 189 215 174 192 192 227
268 262 239 245 246 247 127 227 93 84 93 132 215 162 210 205 203 203 196 199 201 204 204 205 205 204 207 221 208 192 157 207 182 200 179 197 199 168 182 184 201 178 217 220 209
298 274 274 269 263 265 256 241 229 229 234 229 225 227 219 210 211 209 202 204 206 202 204 216 218 207 223 201 216 186 197 208 183 169 193 188 193 209 183 182 201 183 205 187 213
296 270 293 289 282 260 166 92 260 257 244 240 225 229 229 229 229 225 220 221 224 225 218 213 216 216 213 216 221 223 195 167 193 163 159 191 187 207 191 191 206 192 213 203 188
354 334 375 377 225 282 78 297 268 217 257 255 255 209 240 240 187 228 226 226 216 225 225 224 220 227 210 200 202 211 222 202 201 205 160 179 189 200 191 192 202 198 195 190 188
335 350 360 340 152 297 262 322 324 221 317 280 133 316 320 250 258 217 250 242 245 237 227 223 224 212 212 214 206 205 218 210 209 160 165 186 199 193 201 183 197 193 190 194 179
313 319 315 310 308 302 305 309 305 311 309 315 317 228 324 333 342 326 340 297 280 251 242 234 242 241 236 223 225 217 217 217 202 162 199 192 191 197 199 208 191 208 193 195 181
291 294 292 292 264 227 290 119 208 295 300 295 296 298 309 303 307 313 325 337 323 291 274 270 248 237 243 232 226 230 219 220 210 201 202 177 195 192 191 195 186 205 205 179 191

GFSSW_2pvu_pres_045.txt.gz
Presure
191 187 160 182 199 176 235 214 209 201 178 193 210 192 132 197 147 204 201 159 193 241 234 233 208 176 223 216 218 216 210 206 214 207 205 219 230 249 267 206 269 246 245 249 253
220 203 178 207 188 233 161 210 157 215 206 204 194 181 183 203 181 199 206 205 208 200 199 202 225 157 226 223 219 201 204 186 200 205 213 219 277 295 254 245 257 243 225 244 240
197 230 221 204 256 217 232 224 216 215 197 195 166 208 187 197 182 182 202 190 195 214 203 204 193 160 219 217 178 203 202 196 201 212 251 228 284 271 241 232 254 221 242 221 252
230 185 216 272 254 253 209 250 216 207 199 179 158 186 202 189 169 181 173 190 203 200 199 215 212 213 217 199 199 207 198 195 198 204 221 207 279 272 240 228 244 242 243 228 207
232 256 256 253 250 245 246 229 228 210 194 206 194 185 192 196 194 187 193 192 179 200 211 186 206 220 187 196 205 200 188 188 193 194 181 196 261 247 250 227 224 238 219 209 224
261 270 257 245 241 228 244 226 228 214 210 188 184 178 160 184 199 179 194 188 128 196 199 191 211 183 195 201 189 192 201 176 182 184 157 205 207 234 234 229 221 206 202 212 202
279 273 251 244 225 236 229 219 218 213 217 204 178 181 181 192 162 182 192 189 190 183 187 193 181 197 181 186 186 196 204 175 187 211 186 176 215 208 213 250 243 214 229 193 177
267 247 248 232 240 229 229 235 210 213 204 202 191 172 177 184 184 172 183 183 182 172 190 187 197 186 177 177 168 182 201 190 179 208 206 180 218 205 218 237 259 238 233 247 219
247 242 242 240 232 226 220 230 207 207 194 204 186 192 189 189 191 185 178 168 174 185 184 187 195 208 188 192 200 190 179 170 176 182 194 176 210 215 205 209 257 251 206 264 220
258 235 244 215 233 227 217 227 207 213 193 197 193 184 201 187 187 178 174 189 170 178 179 189 189 192 206 184 195 187 183 177 185 177 191 196 204 181 241 201 216 258 235 238 210
248 231 227 220 215 226 221 225 213 214 199 191 195 184 197 183 189 179 193 189 184 181 184 184 188 201 198 173 171 179 192 186 192 190 184 193 168 205 219 213 216 212 262 259 251
247 232 226 217 220 227 221 222 217 203 206 202 189 179 192 185 187 189 176 165 177 186 189 186 180 182 199 180 174 196 208 166 178 189 179 180 185 191 192 217 207 214 235 215 253
232 236 228 217 221 221 226 219 214 203 205 217 191 187 192 183 182 192 182 181 182 179 170 177 186 193 191 196 162 181 193 188 181 189 173 171 199 175 197 198 196 211 213 256 229
241 237 217 216 217 210 228 199 214 195 204 195 207 196 175 194 194 191 183 188 187 185 178 179 182 179 179 184 178 189 194 204 199 186 171 168 164 181 177 187 214 225 205 217 263
255 235 226 218 222 217 221 217 216 213 192 197 195 189 192 199 191 190 188 191 179 188 188 164 187 195 173 181 166 194 173 171 180 182 177 168 160 201 198 187 202 188 222 208 219
246 240 235 222 219 226 222 210 223 220 210 199 213 205 199 199 201 194 198 190 190 189 186 189 189 188 190 192 150 176 187 180 187 191 186 184 161 165 187 203 197 203 215 206 212
227 242 236 228 203 228 221 219 205 213 215 213 213 209 202 214 208 199 195 194 191 185 191 186 162 181 179 188 187 158 194 193 182 184 193 208 173 158 188 178 186 203 208 212 200
250 220 240 221 232 224 232 223 215 204 217 215 208 199 207 201 204 198 201 198 202 198 187 170 182 182 184 171 186 160 194 199 202 199 192 202 193 161 166 194 196 183 201 209 182
254 247 229 244 253 228 246 234 216 229 213 215 98 148 188 198 196 195 195 189 189 190 186 148 185 186 188 176 182 193 204 197 198 190 179 177 203 162 161 188 196 194 196 200 195
279 257 248 248 242 240 248 232 167 227 220 219 226 207 205 200 196 194 194 189 189 195 190 193 189 189 194 195 178 203 191 201 205 202 191 169 192 165 158 190 194 180 185 197 178
272 281 273 252 254 242 137 228 244 231 229 226 223 220 140 214 202 201 205 204 193 203 192 186 185 193 198 198 193 194 195 203 206 215 164 177 196 155 161 191 190 174 179 206 194
274 279 279 293 275 255 243 239 233 240 238 218 89 162 95 222 219 211 197 190 199 201 203 204 198 192 191 191 194 197 196 207 217 216 164 208 193 203 189 189 192 192 199 179 202
394 403 338 279 301 288 272 253 235 231 237 233 231 224 217 221 214 214 217 207 199 192 191 193 189 193 195 199 200 202 198 199 206 205 216 193 185 198 188 159 177 174 200 188 210
387 431 401 197 205 287 272 278 265 250 239 233 230 227 222 224 224 219 213 223 221 213 209 207 202 198 197 193 201 203 204 209 216 213 216 212 212 179 193 161 182 185 199 174 176
377 395 396 350 346 261 256 278 286 276 252 250 244 237 234 233 198 226 223 221 223 225 227 219 214 212 208 206 209 210 212 221 221 215 225 203 179 206 189 189 175 198 193 191 182
346 337 366 316 309 310 324 269 276 282 280 287 253 248 247 244 247 243 239 245 239 218 225 228 228 231 230 222 222 225 224 215 223 220 226 204 192 207 208 171 197 187 196 191 201
339 350 336 351 330 347 357 153 342 342 293 253 145 288 279 268 261 256 258 253 252 253 254 254 257 252 241 236 224 222 218 223 220 213 209 207 195 201 207 199 183 195 193 196 189

GFSSW_2pvu_pres_048.txt.gz
Presure
198 201 176 167 180 215 212 207 171 185 185 171 184 232 222 205 209 183 173 199 204 201 196 175 210 159 203 231 212 231 225 215 212 206 210 219 217 226 255 281 268 245 281 244 236
202 195 222 222 234 206 233 203 186 214 174 195 189 225 212 161 162 199 206 201 191 201 176 209 204 220 225 224 227 191 213 207 187 206 176 208 202 228 256 272 251 236 257 236 232
205 197 241 235 222 220 234 206 275 245 193 144 211 190 202 200 201 196 194 189 197 186 183 210 195 211 211 221 217 212 206 199 207 195 198 204 236 107 250 263 252 217 260 200 228
215 217 205 225 230 224 223 271 217 218 165 187 200 189 208 201 205 201 199 199 202 184 195 192 193 208 207 219 215 205 191 170 177 201 193 197 203 166 219 249 247 217 211 210 211
214 191 232 263 225 234 270 210 238 266 196 243 229 218 224 210 195 184 205 188 167 191 186 192 191 212 213 229 203 194 195 189 195 165 178 182 206 187 216 209 243 242 218 213 221
249 230 245 244 295 300 271 268 254 253 243 238 202 206 218 212 185 196 195 201 182 199 191 194 197 189 193 201 180 191 189 180 185 201 199 197 201 191 227 212 215 259 235 228 221
196 224 221 242 312 286 273 255 253 251 246 252 230 216 151 223 194 187 197 195 195 180 172 191 198 201 193 211 189 189 183 188 184 191 195 186 214 180 205 263 208 220 275 240 219
222 218 230 302 314 296 260 256 250 243 246 240 223 212 216 206 189 185 188 193 192 191 191 191 175 202 189 183 210 198 198 191 171 188 177 191 191 201 202 214 210 225 222 262 240
221 270 287 289 275 264 246 254 241 240 237 240 219 210 212 198 200 198 181 171 185 183 183 191 176 190 169 178 202 188 187 189 182 193 174 150 166 187 183 203 227 209 233 258 231
275 286 272 283 268 268 251 247 239 238 229 230 210 209 204 192 202 186 186 189 185 178 190 175 184 180 177 190 200 182 190 190 191 180 186 179 190 189 186 182 208 215 216 242 281
276 262 257 270 260 252 249 238 229 231 233 226 220 206 200 202 209 196 183 191 186 188 176 178 172 183 184 170 188 173 203 177 187 195 193 181 198 184 190 190 194 205 201 220 235
266 261 254 262 250 254 239 226 227 222 222 220 220 202 205 202 198 199 189 186 196 187 186 178 186 182 187 186 187 171 196 197 180 180 197 188 188 177 181 197 180 188 209 206 219
269 254 243 258 254 243 233 232 225 232 225 218 223 202 201 199 188 200 195 184 196 179 189 175 178 178 169 177 181 186 178 170 176 189 199 190 197 201 165 175 195 206 201 209 217
276 253 246 254 250 234 228 226 219 211 229 220 210 205 213 197 197 200 197 183 184 189 185 183 185 185 187 167 171 186 181 180 182 189 184 187 182 169 196 169 177 187 207 199 202
274 256 258 252 242 240 237 220 226 216 218 225 227 205 198 214 193 187 193 195 186 183 187 186 187 179 192 188 180 179 199 175 197 184 168 176 185 182 195 186 174 194 206 190 224
282 268 254 261 255 243 237 221 230 210 213 218 215 218 211 199 208 202 193 191 185 188 186 185 188 179 158 191 186 188 177 189 167 175 175 174 180 199 194 198 168 176 171 190 200
251 279 261 242 257 236 239 228 221 229 219 212 210 202 214 208 199 198 202 201 193 187 193 187 179 187 186 182 191 186 182 185 173 158 156 189 192 201 195 185 172 173 183 201 188
264 272 242 253 250 253 248 229 224 230 230 221 218 209 207 205 202 193 198 194 185 187 195 196 195 186 189 189 186 192 174 168 188 186 186 190 168 195 181 191 193 165 183 200 177
256 262 271 261 234 241 240 253 227 232 213 233 217 214 107 189 201 198 196 192 194 195 196 200 202 195 199 193 190 194 184 192 179 188 173 183 195 194 196 186 189 169 189 193 206
284 269 276 290 265 255 242 247 248 245 227 216 165 137 198 216 221 163 208 199 197 190 195 197 192 201 194 193 183 176 198 193 183 189 179 182 194 191 196 213 190 179 168 195 199
269 265 264 270 305 286 260 249 245 239 246 234 217 217 219 206 207 211 208 216 129 216 214 217 212 204 202 202 200 191 169 185 173 183 191 191 183 195 199 208 207 187 167 183 191
251 272 262 253 259 297 292 261 248 238 244 233 232 248 217 215 214 201 208 211 201 204 203 198 201 194 197 198 197 197 192 196 187 193 199 192 184 195 197 201 199 206 160 187 190
349 346 361 152 310 287 273 292 251 241 240 239 240 228 132 246 219 211 220 211 210 203 208 199 195 194 195 195 195 189 186 187 195 197 206 187 194 167 196 205 183 215 189 195 183
398 405 408 413 421 423 430 275 292 253 241 238 240 242 157 231 229 230 174 169 231 223 208 208 206 202 202 204 207 204 205 208 211 202 198 191 197 168 199 203 192 193 208 189 169
393 380 394 411 137 400 400 370 266 279 259 244 237 233 228 231 231 235 229 228 230 230 223 220 214 212 203 197 196 198 194 196 196 202 198 200 193 171 182 207 220 212 211 196 171
378 376 372 409 409 390 390 388 230 256 266 267 247 245 236 231 228 226 233 232 226 216 219 221 220 222 220 216 212 207 210 207 205 203 200 205 195 198 162 209 225 164 208 206 186
396 409 376 371 365 372 367 354 348 155 260 259 269 270 209 240 234 227 227 227 228 229 226 223 223 220 210 218 221 220 208 211 212 213 214 213 209 214 210 166 216 213 195 197 208

GFSSW_2pvu_pres_051.txt.gz
Presure
199 180 189 194 191 198 212 186 197 201 223 227 205 207 191 225 206 190 201 195 227 213 207 204 174 199 197 213 211 176 220 238 223 223 216 216 223 217 181 208 250 256 238 228 229
185 191 189 173 200 203 197 212 194 225 191 206 225 213 203 140 230 213 189 193 228 215 216 199 174 176 205 196 200 220 217 212 214 211 215 209 218 208 215 239 225 249 245 208 232
186 189 175 193 190 201 226 157 224 191 188 178 192 226 174 198 169 201 245 182 222 213 189 202 199 197 198 201 205 203 214 218 214 215 211 207 211 196 191 191 188 217 244 258 233
191 194 186 184 199 232 222 230 276 212 219 229 234 231 284 264 177 165 162 222 170 208 193 182 170 188 200 189 191 179 216 210 200 203 188 210 207 209 224 197 239 189 215 244 234
198 195 215 238 205 226 232 225 212 245 244 183 253 279 262 203 177 225 236 213 204 204 200 199 196 200 188 179 197 225 207 202 202 198 182 203 206 199 213 205 165 223 219 236 244
212 154 230 238 223 259 224 268 254 275 293 255 279 276 258 247 249 211 211 215 203 206 196 198 190 172 197 195 201 192 213 193 205 192 192 192 196 194 195 202 206 233 209 245 201
227 227 213 249 198 250 257 325 329 318 297 265 256 254 251 248 238 230 216 211 203 212 187 190 195 193 176 205 193 191 206 189 196 191 188 188 188 176 202 214 201 224 206 221 271
227 225 208 225 270 256 309 315 303 299 271 257 265 259 253 226 227 229 215 205 205 202 199 173 193 186 166 163 193 183 200 210 196 197 192 181 197 187 191 196 206 213 214 211 253
231 223 219 244 249 264 302 300 309 281 261 258 239 247 241 233 223 231 209 206 208 193 189 195 182 192 191 193 189 185 177 204 189 186 189 188 187 189 202 190 197 194 209 212 209
209 208 221 249 231 249 289 293 285 282 256 239 249 248 233 234 223 218 211 202 210 194 182 194 191 167 185 189 195 177 180 201 189 183 193 186 187 199 179 192 186 200 192 208 211
222 227 254 225 261 241 276 283 261 253 236 239 239 240 243 226 223 218 211 219 200 190 194 188 178 186 176 198 169 170 176 188 190 180 179 185 187 204 177 198 176 187 198 200 205
219 232 229 243 312 286 273 273 265 237 236 242 235 232 232 220 204 216 213 214 200 189 195 182 178 185 192 183 169 181 187 185 190 196 194 173 183 205 201 196 177 181 198 188 202
221 241 263 272 304 281 266 260 255 246 234 233 235 226 227 212 207 214 219 208 196 209 187 188 183 177 187 188 172 184 184 195 179 186 178 183 181 196 181 187 189 166 189 193 199
233 273 313 311 302 280 256 261 246 242 238 239 233 228 216 212 206 209 211 208 199 208 188 180 177 183 186 182 180 181 181 182 182 183 179 189 169 187 188 184 176 189 188 187 191
251 318 312 303 298 283 259 250 255 241 228 222 220 203 216 214 209 209 203 202 199 200 191 194 185 176 188 175 193 186 191 177 180 191 187 188 182 179 191 182 197 190 159 182 183
322 309 307 299 299 280 257 249 251 238 224 217 215 221 214 217 211 213 203 199 200 199 202 189 191 180 188 187 182 185 180 170 191 194 182 174 175 168 184 194 200 201 196 196 200
304 298 304 283 285 286 276 261 251 240 231 212 220 227 224 207 211 211 206 198 195 198 195 195 189 181 186 185 183 183 187 193 202 181 178 184 168 159 167 173 199 183 195 211 174
288 280 288 277 270 260 253 252 249 243 231 226 220 216 213 218 207 217 212 197 206 192 190 189 193 194 189 191 193 188 188 183 189 190 172 191 159 166 184 186 198 205 198 204 169
308 289 271 272 278 279 270 277 258 252 237 232 218 219 211 107 214 198 205 200 198 204 202 194 190 186 194 179 186 196 177 188 193 192 181 172 169 191 179 186 189 193 192 203 207
281 285 267 277 267 287 307 293 266 260 244 236 200 217 143 212 217 165 133 208 201 203 197 207 207 206 189 190 189 194 196 188 201 192 185 176 166 185 173 173 189 184 197 207 204
279 271 250 257 278 275 303 311 276 259 264 239 236 227 212 213 217 213 220 211 207 149 200 194 196 200 199 193 193 195 193 200 199 182 177 175 172 185 177 180 190 194 197 196 203
283 282 252 76 249 286 277 295 266 264 261 257 234 237 219 226 219 215 215 206 206 216 204 202 92 192 190 196 198 205 204 197 198 196 195 171 191 187 184 184 192 198 187 195 194
284 282 283 272 299 272 258 274 284 308 265 254 257 241 231 228 219 224 219 218 212 197 209 197 204 201 194 203 198 198 199 204 203 211 180 205 179 186 166 175 189 191 181 187 192
302 310 323 316 328 330 333 266 255 279 318 266 252 257 249 232 234 131 222 222 217 213 207 206 204 205 204 195 197 211 213 214 208 210 206 202 195 192 179 190 192 199 196 188 198
316 310 314 327 327 333 347 409 394 268 277 321 260 247 250 257 237 227 226 230 221 222 219 225 215 219 206 213 212 208 205 200 197 192 193 187 185 186 192 186 197 187 197 198 174
314 313 322 317 353 89 382 394 395 405 330 262 304 262 250 240 243 246 248 231 224 220 223 215 206 207 205 204 203 204 209 203 201 201 201 195 198 201 202 204 194 187 192 187 189
319 319 307 355 345 374 387 389 382 334 388 377 268 297 156 242 247 232 240 244 240 244 230 220 219 214 212 214 212 207 206 207 211 211 204 205 202 206 200 190 183 194 194 190 198

GFSSW_2pvu_pres_057.txt.gz
Presure
188 194 186 193 187 185 182 196 194 184 196 192 193 203 209 203 206 207 209 202 208 212 235 196 236 227 201 210 204 182 222 201 213 206 210 155 235 211 210 214 139 220 175 221 177
195 191 195 195 191 191 191 193 184 156 195 193 201 200 199 208 172 202 226 235 221 274 221 206 239 215 213 202 197 203 187 211 209 203 200 189 203 219 185 219 220 215 223 225 249
193 185 188 185 188 191 184 184 187 191 189 193 215 207 197 216 231 205 225 264 229 254 266 272 205 247 236 225 212 188 216 202 209 206 204 174 228 213 193 210 209 211 200 215 243
193 186 175 144 183 185 190 166 160 182 192 193 197 211 210 254 210 202 169 274 354 281 181 253 169 238 216 216 208 196 210 208 196 196 202 195 204 212 213 203 199 202 203 214 228
189 185 185 185 195 189 185 187 193 191 201 203 201 232 248 221 192 299 282 388 285 224 233 195 265 175 251 202 212 205 200 199 132 198 198 203 200 210 200 203 201 193 202 208 220
188 193 196 190 201 203 201 205 204 197 211 213 237 212 222 209 247 288 361 231 233 239 204 232 232 223 209 212 207 212 186 182 199 197 205 195 211 201 206 202 208 199 205 202 200
208 199 202 189 198 188 195 194 210 216 214 209 233 193 185 267 330 337 370 295 240 270 223 226 236 255 223 210 212 184 177 197 186 195 197 207 207 204 190 213 189 195 201 189 207
206 216 196 205 196 217 196 198 217 199 206 214 241 235 185 158 318 349 316 277 272 269 276 248 257 257 215 212 196 208 194 157 197 199 188 207 202 199 198 204 203 203 200 195 196
186 203 195 212 228 207 217 206 221 223 215 245 213 246 240 314 311 283 261 255 252 246 254 254 260 220 203 204 201 200 178 198 195 191 190 195 201 194 200 194 202 187 200 200 190
204 217 200 225 233 222 212 195 234 241 207 215 213 244 305 310 307 270 262 251 252 244 251 251 224 218 211 197 197 183 199 195 184 192 184 184 207 198 192 201 195 195 203 204 191
211 226 214 207 225 203 237 226 195 207 203 250 241 258 303 311 288 262 250 236 239 237 241 248 223 201 207 194 199 193 198 187 187 178 187 191 201 201 199 190 180 188 201 198 204
212 216 211 221 206 208 224 231 203 215 237 230 240 326 307 252 250 257 246 233 247 241 235 250 218 203 205 194 196 196 195 190 191 178 188 171 187 176 187 202 188 188 193 195 200
223 224 218 217 227 212 218 220 215 219 235 254 236 352 283 246 246 232 232 232 239 232 239 235 208 204 199 193 197 193 192 193 182 186 176 188 186 179 193 198 200 189 178 194 195
215 227 212 210 233 229 216 241 234 228 239 225 234 324 259 252 243 235 225 224 237 232 242 229 210 205 199 190 201 194 188 186 177 179 174 184 186 180 189 188 193 192 178 183 199
241 228 227 237 230 224 227 242 223 228 220 252 327 312 259 260 242 238 232 217 222 233 239 238 207 204 196 196 192 192 187 186 177 175 183 183 180 176 189 184 187 193 190 180 173
244 248 244 230 250 248 227 228 231 244 230 234 333 305 272 249 239 230 220 222 221 235 238 240 208 199 189 197 190 191 187 187 188 177 175 183 181 175 178 178 186 189 188 188 184
255 238 247 258 237 236 246 236 228 226 255 292 323 315 266 250 230 220 225 227 226 226 224 245 204 201 194 196 196 190 187 182 185 174 175 184 179 183 174 182 186 186 191 185 188
239 253 241 239 239 248 230 267 244 247 241 326 317 318 265 243 237 220 231 218 216 211 218 230 210 203 194 198 196 189 184 187 168 168 173 176 176 181 180 185 180 185 183 184 188
244 251 254 254 239 248 255 241 234 246 250 312 309 318 250 250 233 231 227 216 216 207 219 235 215 194 195 195 199 189 178 181 183 169 175 177 170 181 180 184 171 184 183 177 186
272 270 262 254 259 259 265 265 268 303 303 301 300 311 260 245 241 226 228 219 222 220 218 235 224 204 200 198 192 198 188 180 174 180 181 175 178 182 178 186 180 176 185 187 176
307 313 311 288 274 267 298 298 302 295 293 293 293 296 273 239 250 232 229 215 221 207 229 217 226 217 205 195 200 200 187 192 184 175 179 176 171 185 192 188 176 179 156 179 191
290 287 288 299 298 298 290 287 289 272 286 288 292 285 306 247 236 243 226 221 224 211 204 128 241 214 213 198 198 198 194 200 186 182 179 183 185 176 175 184 179 181 187 187 181
321 335 302 287 292 289 276 281 281 281 276 280 287 287 289 259 243 213 120 224 215 217 210 204 217 236 205 207 205 197 202 205 206 201 187 194 192 183 185 184 188 189 186 192 183
422 390 332 322 309 293 276 279 279 279 274 272 275 287 269 293 253 230 238 236 218 217 210 204 202 216 218 207 202 200 196 201 202 193 195 180 180 197 189 186 188 186 189 191 192
394 413 401 330 320 315 304 287 283 273 268 270 272 278 289 270 265 241 235 245 232 216 213 218 210 205 217 219 210 201 197 196 196 199 199 189 192 188 186 188 185 185 192 190 196
366 381 397 391 364 335 319 307 293 275 270 275 281 279 283 291 294 268 243 239 230 228 213 214 205 211 206 219 220 217 200 195 195 197 196 196 197 198 199 202 195 195 191 188 191
350 357 380 389 376 351 326 319 310 305 293 290 289 281 282 280 299 306 267 243 238 233 228 211 215 201 209 211 209 212 214 207 204 200 208 208 202 207 204 197 197 190 192 189 189

GFSSW_2pvu_pres_060.txt.gz
Presure
147 192 199 196 197 175 200 189 191 191 199 200 193 196 194 195 177 204 205 214 206 201 212 188 189 230 248 211 257 199 202 227 208 214 216 207 198 222 209 197 160 195 220 224 235
195 199 189 195 186 183 183 190 202 192 188 196 188 194 198 203 203 136 210 203 222 207 225 223 175 194 170 255 232 178 185 207 227 185 207 195 218 188 210 204 230 228 216 227 180
186 192 152 184 198 189 185 183 187 184 189 198 184 183 183 195 203 205 202 215 229 218 191 271 255 164 260 252 178 256 176 227 218 213 200 211 208 210 203 205 207 193 219 199 215
194 189 185 189 191 191 179 183 183 191 185 186 190 183 189 197 182 213 220 217 253 219 282 254 274 376 271 170 251 255 230 228 219 198 206 217 207 202 199 209 192 204 204 210 206
195 186 191 189 184 189 185 187 185 186 187 182 193 194 194 215 224 210 235 246 211 246 261 390 262 279 273 271 262 238 222 177 212 219 215 197 192 169 198 157 211 204 200 204 203
202 204 190 193 179 181 205 188 213 194 193 195 201 210 213 209 213 160 231 222 222 250 359 356 304 335 274 254 255 243 231 223 210 198 211 206 177 180 203 200 210 206 208 208 207
216 206 200 202 203 195 193 196 200 209 206 217 216 219 198 226 226 209 239 214 183 311 300 295 308 268 230 228 213 222 234 215 213 198 206 200 194 198 198 206 195 199 188 206 198
177 168 210 200 211 200 202 206 202 207 209 219 218 228 232 208 247 203 254 153 278 309 313 270 286 249 230 228 243 219 206 214 214 204 206 196 168 194 191 190 204 198 209 200 203
213 198 188 200 205 180 197 185 204 209 189 218 206 226 189 249 211 244 161 212 319 346 282 272 276 243 233 220 224 232 223 212 202 202 194 195 192 198 192 200 192 187 201 202 202
195 195 183 190 189 202 196 184 204 207 217 228 234 202 235 213 249 214 241 325 332 275 272 268 270 233 212 198 234 200 214 211 196 202 197 165 193 191 193 220 194 192 203 199 195
202 205 205 202 199 190 211 215 200 225 230 224 228 213 229 230 211 251 251 317 266 251 260 276 271 253 212 243 232 219 211 206 201 196 197 188 186 191 189 192 197 200 187 194 189
208 211 202 203 217 213 214 223 219 231 225 220 232 228 218 243 203 236 299 268 251 242 258 252 251 238 246 235 216 207 210 193 199 196 183 194 186 184 185 186 190 196 208 198 189
201 206 203 207 206 206 202 202 217 203 217 228 228 230 234 235 264 223 287 260 251 250 239 237 242 234 236 216 214 206 205 191 192 194 184 186 186 180 187 180 183 183 182 206 199
214 210 203 207 217 228 213 227 230 225 235 219 227 232 218 262 220 220 276 254 247 243 248 229 233 233 226 210 206 211 197 198 193 193 190 186 185 177 181 184 185 184 183 201 195
218 219 224 231 225 216 262 243 253 236 248 255 224 232 247 254 265 225 252 242 237 238 229 230 231 228 216 208 209 206 203 201 193 189 194 184 186 182 176 172 185 183 188 186 192
224 242 228 238 248 247 258 258 251 242 245 247 246 244 251 235 237 297 264 236 227 225 229 242 237 237 214 207 204 201 205 193 186 192 185 184 181 180 177 181 181 179 182 182 189
248 254 240 283 267 256 262 255 246 253 247 246 238 234 244 259 236 348 263 232 235 221 223 245 233 230 214 202 198 199 205 192 188 186 183 181 182 181 177 176 184 174 176 178 182
285 270 253 265 256 260 258 252 243 245 235 245 243 252 245 265 243 343 248 236 233 225 216 220 230 231 210 206 200 196 205 196 190 183 176 180 178 176 177 172 184 177 173 176 180
277 274 260 257 259 266 252 256 244 234 247 237 236 252 226 254 261 353 249 239 231 227 225 213 219 230 218 207 199 195 202 192 192 186 178 184 180 181 178 175 180 181 179 178 180
301 310 292 283 278 274 279 265 243 242 236 236 250 247 249 246 260 340 251 240 230 228 226 219 214 226 226 211 199 197 200 186 196 185 183 181 176 176 182 177 172 174 172 169 181
293 295 285 295 310 315 282 272 261 256 251 249 260 258 264 279 325 325 251 243 237 227 221 224 219 228 228 219 196 190 193 195 193 192 182 180 174 180 190 178 177 179 185 181 174
362 398 340 295 291 292 309 307 271 256 261 267 232 273 269 319 313 313 264 249 237 228 220 234 224 214 211 221 207 202 192 199 192 191 183 182 177 186 186 176 187 187 170 175 187
418 422 437 421 335 328 288 284 299 288 279 293 274 258 294 303 287 308 275 249 231 224 235 221 216 213 202 217 224 195 193 185 191 192 189 187 183 178 184 178 179 177 180 176 179
393 395 395 423 375 410 370 324 277 273 279 290 289 278 284 293 284 304 306 255 238 231 228 225 214 203 205 216 220 228 200 189 181 193 197 188 178 182 187 182 178 180 184 186 169
365 367 370 376 398 412 394 376 316 310 270 279 283 275 275 284 286 300 302 256 239 232 223 223 223 220 216 212 224 227 211 193 198 189 198 195 189 188 189 191 188 190 181 186 197
344 342 349 360 363 388 402 387 363 310 304 274 281 272 266 281 277 287 299 253 259 236 226 222 217 220 214 222 225 220 214 202 195 190 195 201 203 193 189 200 194 183 182 192 189
366 368 350 343 353 364 390 390 351 329 310 296 280 282 279 274 287 286 294 302 249 256 237 229 225 222 206 213 216 222 201 212 214 207 201 202 201 201 200 206 200 199 202 191 195

GFSSW_2pvu_pres_063.txt.gz
Presure
202 212 186 198 194 196 195 187 190 201 185 199 163 193 185 193 203 205 194 194 194 197 204 206 213 201 194 222 210 224 149 194 216 198 204 224 186 221 121 223 201 220 219 218 215
182 205 184 189 209 215 149 200 191 193 208 182 186 192 187 205 192 194 192 193 197 196 196 206 195 177 230 228 175 235 220 252 195 204 258 193 205 154 176 223 210 186 206 216 185
230 152 227 207 206 192 185 195 188 191 197 199 198 178 194 185 190 189 192 185 192 202 200 212 219 234 227 209 161 255 265 155 243 182 184 228 228 93 217 212 204 210 223 218 211
210 204 169 197 222 198 195 199 196 201 191 189 185 184 183 185 188 194 195 193 200 202 220 212 233 247 211 223 272 359 350 256 252 226 234 221 228 208 215 214 217 197 221 208 207
223 208 213 208 203 206 194 194 187 191 193 192 198 183 182 191 192 199 198 202 206 204 237 243 223 294 194 240 330 374 353 323 239 255 230 226 216 193 197 206 194 185 214 205 208
210 220 202 184 210 186 202 208 196 205 182 194 194 190 182 198 195 194 202 228 231 241 248 261 284 224 247 345 305 345 293 253 220 245 233 220 215 225 207 221 203 188 219 204 212
217 207 219 191 205 203 193 203 166 186 197 202 214 208 205 180 216 204 219 228 233 224 257 240 235 232 334 314 307 328 155 268 252 232 221 211 217 197 217 197 188 204 218 203 202
209 207 202 206 202 192 208 194 203 216 202 212 204 206 176 207 211 209 221 225 248 249 231 264 225 177 301 314 317 269 261 265 243 234 215 209 210 212 205 207 194 200 201 194 206
221 212 208 196 209 209 212 207 196 189 207 207 200 203 199 192 197 214 219 211 188 248 215 182 194 322 305 300 260 259 264 246 225 233 225 216 204 202 203 196 198 172 199 207 194
219 214 211 201 202 205 201 163 200 195 204 192 192 197 208 211 203 228 216 238 234 238 218 242 343 298 266 314 259 235 241 223 227 222 218 209 206 204 206 193 191 197 194 195 193
225 218 212 204 207 196 203 189 197 198 208 198 201 185 214 211 210 227 225 232 230 237 277 231 293 285 267 254 235 227 226 223 231 210 225 215 204 202 192 183 200 193 190 196 202
226 218 218 208 210 204 190 199 192 203 204 193 213 213 211 205 219 213 220 223 240 245 221 293 258 267 266 260 241 218 232 231 228 204 211 200 191 202 194 188 189 193 201 195 198
226 216 225 214 208 197 205 210 213 207 220 211 205 198 209 213 214 223 228 237 214 283 227 268 266 255 258 251 246 223 229 219 216 216 213 194 195 198 190 194 191 185 189 184 186
228 228 225 223 204 226 201 217 221 213 219 203 200 208 213 216 229 247 259 254 212 270 313 253 259 254 254 255 244 252 221 223 206 212 203 184 200 192 187 187 187 181 186 187 180
227 219 232 206 226 216 225 232 219 206 227 210 226 223 235 256 263 251 246 257 263 248 312 249 260 247 247 231 233 217 227 213 217 209 202 194 193 185 188 184 186 178 182 187 180
233 225 228 230 233 232 218 224 217 232 225 234 242 230 229 270 255 246 250 254 254 233 259 266 248 237 239 232 225 226 223 211 215 206 198 190 189 192 186 185 187 181 180 179 183
250 242 242 256 254 234 243 257 247 248 258 257 266 275 263 259 250 244 255 249 263 234 250 250 259 239 230 224 228 222 216 212 223 200 194 185 192 188 187 180 185 180 179 181 182
257 256 251 254 259 262 267 261 288 285 265 284 277 263 253 260 249 251 247 251 238 279 242 246 240 236 237 225 213 217 209 210 209 202 187 194 190 182 194 182 184 176 179 180 185
275 265 260 261 285 284 281 295 276 258 249 250 269 254 252 259 249 250 240 259 235 277 248 226 239 238 230 225 214 206 221 209 205 209 196 192 180 188 189 184 179 181 178 179 176
290 285 278 278 287 280 279 289 274 273 265 264 256 257 253 258 254 247 252 249 239 295 258 226 228 234 226 229 213 214 213 214 217 204 190 192 182 187 189 183 177 177 178 179 177
300 305 288 288 296 297 299 293 307 307 292 275 277 265 259 253 247 245 247 249 253 289 258 233 227 225 240 226 225 213 209 205 209 203 196 189 193 182 188 189 181 177 177 180 175
327 326 330 339 345 326 336 328 282 279 302 316 279 266 264 258 256 244 253 267 255 286 239 240 228 228 233 218 223 229 204 208 207 207 194 192 187 189 179 189 179 180 178 178 179
342 332 327 324 358 431 436 448 360 335 281 284 310 277 272 268 260 257 258 277 281 288 238 247 223 231 220 224 224 212 226 204 204 204 206 194 192 189 186 188 192 181 181 181 179
351 389 308 408 401 401 407 441 429 382 328 285 278 292 287 273 273 267 263 274 288 308 245 242 234 242 227 222 215 210 222 221 194 205 202 196 183 191 186 185 189 189 180 181 187
415 391 375 374 374 376 381 410 415 385 337 315 282 273 293 297 271 268 265 304 312 314 249 241 234 229 231 219 217 218 223 220 207 194 201 190 189 186 181 185 189 191 198 194 187
365 352 355 352 353 358 369 380 405 377 362 320 304 287 274 291 289 284 290 286 306 293 250 240 235 232 223 233 222 235 221 216 213 218 193 197 190 192 186 199 192 188 191 187 182
337 338 338 336 338 343 348 360 386 387 363 360 328 310 280 270 296 286 291 292 291 284 266 240 236 236 225 223 222 224 217 208 206 216 218 196 198 190 192 189 199 200 192 187 184

GFSSW_2pvu_pres_066.txt.gz
Presure
180 195 181 209 180 211 198 223 209 201 129 195 193 195 196 200 194 185 202 186 202 188 199 209 209 204 204 212 203 210 224 204 193 204 205 211 175 218 229 191 190 223 190 208 219
181 197 187 182 188 224 187 214 191 175 208 200 141 180 198 197 201 200 208 205 198 199 205 209 194 201 206 202 204 215 210 215 224 227 244 238 229 224 190 230 208 223 218 219 187
207 178 201 204 176 204 218 219 214 213 204 213 200 195 210 194 205 199 194 201 201 195 195 199 201 202 206 211 203 201 275 262 285 288 221 200 259 154 232 219 170 222 219 214 218
163 201 190 218 187 172 211 207 209 212 189 173 205 183 207 198 197 189 186 192 192 193 193 195 206 204 199 221 223 228 243 270 253 270 165 245 275 254 250 229 223 218 215 214 206
176 189 192 199 212 202 213 206 211 207 197 198 205 196 190 195 198 200 196 200 198 199 197 196 202 202 211 233 235 286 241 274 248 240 296 331 297 249 247 232 219 218 213 202 210
191 197 205 178 224 208 211 185 205 203 205 196 204 195 198 178 195 198 191 189 194 190 197 193 211 211 235 218 277 270 244 202 372 344 338 343 279 225 240 230 221 210 187 203 190
214 200 202 192 218 222 219 205 209 216 207 206 197 190 214 200 189 209 186 214 202 213 223 215 194 235 226 237 255 281 193 300 360 324 278 288 195 246 226 222 210 207 195 207 204
204 192 219 208 241 223 214 225 210 208 197 207 215 194 200 193 205 193 213 183 210 213 219 213 222 238 180 252 223 265 327 309 332 316 257 262 239 234 224 225 202 198 216 204 185
216 203 214 213 256 227 224 217 219 213 202 199 190 177 210 207 189 202 193 206 204 213 199 190 223 218 250 245 274 271 303 315 315 302 261 246 237 186 229 220 203 200 201 205 186
216 221 219 234 245 232 222 223 211 228 207 214 192 206 201 200 205 203 193 188 204 206 202 201 199 236 257 249 249 312 289 324 242 241 263 264 239 245 233 215 205 206 204 193 204
228 226 234 243 241 225 221 215 213 210 225 204 203 204 207 192 208 187 209 203 194 201 210 230 196 246 243 281 187 300 315 287 267 263 264 242 234 236 210 185 189 204 192 192 198
232 232 249 243 244 236 222 216 215 214 214 213 199 200 207 209 189 198 194 196 206 224 221 211 224 234 256 257 291 281 325 239 258 263 250 236 232 236 218 194 197 203 185 194 202
252 255 249 242 242 235 232 227 224 219 212 213 209 216 203 208 207 199 199 220 207 217 216 209 227 285 270 228 277 276 291 229 230 247 228 229 237 216 196 201 205 198 192 184 203
257 257 258 244 239 236 233 227 225 229 217 212 205 205 216 214 201 207 214 206 227 209 225 243 287 271 257 256 269 251 243 235 221 249 219 239 229 197 202 182 178 193 185 187 189
272 271 257 246 241 239 238 239 229 225 229 220 216 213 215 211 211 219 217 232 221 222 230 238 277 270 261 249 265 262 247 264 221 233 215 227 206 210 199 197 190 191 186 186 183
269 277 268 253 246 239 234 236 239 232 223 228 224 227 217 216 221 223 238 228 242 232 273 271 266 249 279 247 248 242 248 239 207 214 212 217 204 210 197 187 196 191 185 182 182
300 272 268 276 263 260 249 230 233 236 237 237 235 231 224 229 223 216 228 236 223 279 264 264 264 235 275 243 247 242 243 241 226 214 199 208 209 204 187 193 193 188 187 184 182
275 276 293 275 274 268 262 261 264 251 252 259 254 258 255 258 254 249 256 269 289 271 256 250 261 231 255 244 240 234 247 242 213 198 217 210 207 203 198 190 195 187 185 184 183
276 271 275 283 274 268 263 271 267 256 261 255 257 266 259 266 264 280 291 292 276 261 253 254 248 219 270 245 230 231 240 216 232 201 212 215 202 197 202 195 191 183 179 187 182
285 291 300 300 304 294 287 288 272 264 243 269 268 276 264 287 286 284 283 271 266 256 250 258 235 261 243 243 226 227 229 229 216 210 218 219 202 199 196 190 189 187 185 182 181
312 294 287 289 290 291 301 308 306 286 289 91 291 290 291 264 277 272 243 264 256 260 252 253 234 264 245 247 225 221 230 223 217 209 213 201 206 204 201 190 193 194 188 179 179
275 277 280 293 305 317 292 281 287 287 283 292 303 311 278 320 318 279 279 270 256 253 248 253 233 261 238 237 229 225 218 223 221 216 206 193 204 197 191 199 186 179 191 180 181
314 313 341 344 348 345 341 345 348 345 335 323 322 282 282 282 300 315 268 268 263 257 257 253 220 245 241 239 238 229 222 218 218 214 214 200 199 204 197 192 198 170 189 185 175
330 390 390 467 446 430 368 369 331 320 323 337 330 320 313 279 289 289 300 290 267 257 252 246 233 240 243 230 244 230 220 223 211 213 225 200 188 202 209 194 195 192 183 185 189
435 416 418 412 407 405 397 403 398 402 438 396 396 326 312 314 284 285 307 287 273 264 255 246 256 234 258 229 231 222 227 231 221 210 212 213 202 199 189 196 198 190 190 184 179
381 383 388 379 377 366 372 371 370 381 403 393 386 260 341 312 324 283 296 309 283 277 261 259 261 227 283 248 229 225 225 219 226 219 212 217 204 203 193 190 190 199 197 198 189
342 331 346 348 352 352 348 350 352 363 372 386 367 367 354 319 317 281 271 299 299 270 275 262 278 238 307 249 233 223 218 222 213 218 222 214 209 205 198 205 198 190 201 197 196

GFSSW_2pvu_pres_069.txt.gz
Presure
160 183 201 173 180 204 187 188 197 185 202 195 217 220 214 132 156 196 197 184 186 198 212 204 208 213 200 216 221 200 206 212 199 204 185 212 195 207 210 237 201 212 238 241 239
177 167 195 203 180 177 199 182 188 170 211 189 217 208 213 185 216 199 208 220 194 197 187 213 209 207 213 210 210 214 194 204 209 210 198 189 207 260 254 304 298 233 231 235 246
157 173 155 183 183 192 198 195 181 202 214 209 148 213 215 194 194 195 201 201 214 198 199 205 197 209 197 192 203 207 197 208 198 190 211 237 241 268 297 282 239 236 240 235 245
176 189 175 166 193 166 202 179 190 207 207 170 198 166 197 206 208 195 178 204 200 209 205 209 201 202 195 201 210 215 207 203 185 232 241 260 282 296 268 263 229 223 243 228 239
189 191 199 198 191 178 189 195 192 204 231 198 216 204 202 215 213 183 204 212 202 195 198 201 200 202 199 188 196 207 176 235 222 220 254 276 229 270 257 232 240 243 240 235 236
190 205 190 206 198 186 189 185 219 210 193 214 219 211 173 192 208 200 190 207 193 201 192 198 189 185 198 197 196 224 183 230 230 216 267 271 274 240 365 356 239 241 217 237 233
212 196 176 214 195 210 193 183 242 236 228 232 231 216 201 206 185 213 193 196 202 203 200 179 207 198 195 197 217 209 191 252 193 242 280 289 219 154 344 312 132 244 232 238 228
212 212 231 221 204 229 209 231 250 241 258 242 235 217 212 206 193 213 198 209 198 194 201 187 194 192 210 213 199 211 202 253 208 259 321 353 328 342 307 253 249 245 238 230 223
213 227 229 224 236 241 228 237 260 250 252 250 230 214 222 203 212 205 199 196 203 205 203 202 219 213 191 216 210 211 95 186 241 273 340 313 367 315 268 257 250 248 233 229 218
219 234 227 248 238 236 248 267 276 257 252 243 217 218 213 206 212 213 199 195 209 200 193 218 202 212 218 227 224 139 237 237 254 310 336 346 337 269 267 257 248 241 229 211 199
227 211 225 245 230 246 270 271 265 258 253 239 221 212 216 210 209 217 230 199 207 200 217 193 208 210 212 226 219 233 234 242 295 309 313 337 300 242 263 235 247 239 234 200 205
231 234 215 243 254 271 273 272 258 252 245 241 234 218 224 220 225 211 215 219 215 207 200 195 207 203 203 208 229 186 235 281 213 297 333 319 246 258 242 231 239 236 215 206 203
220 219 248 245 243 275 278 267 264 254 253 236 228 220 211 215 207 206 205 210 220 210 198 207 209 211 214 183 216 219 233 272 272 307 323 273 248 245 240 237 236 219 197 197 201
235 231 243 228 285 269 284 269 258 255 250 247 235 220 218 213 214 217 204 207 220 219 221 217 199 202 213 222 227 184 254 281 276 296 270 248 245 247 225 231 216 201 183 204 195
224 242 247 239 273 269 268 266 267 257 258 241 240 238 229 222 223 217 219 217 216 217 211 214 217 224 216 184 248 252 273 261 268 277 230 235 244 225 221 215 203 199 200 193 196
236 289 276 289 288 291 293 280 283 269 250 248 240 233 232 232 231 227 231 217 215 211 211 216 222 218 237 234 229 273 276 254 265 264 234 235 213 220 214 205 205 201 200 176 192
256 282 300 292 293 283 280 300 292 276 267 250 246 241 238 237 240 231 229 229 236 225 230 234 233 231 220 243 207 268 258 254 265 273 205 213 206 212 212 210 201 200 199 188 172
262 306 287 295 288 287 273 285 290 283 269 266 249 246 244 243 245 244 238 235 235 233 237 237 232 245 247 157 264 252 251 249 263 263 201 200 206 211 216 208 199 204 191 196 190
287 279 280 270 270 262 269 283 275 274 291 270 274 263 255 249 245 238 239 241 241 238 236 235 255 277 303 269 259 238 259 245 263 201 246 196 202 196 220 207 198 203 191 185 191
287 283 274 261 312 309 311 300 284 282 237 188 167 278 260 268 262 257 257 239 241 247 263 258 274 301 279 254 247 241 236 250 248 255 231 202 202 202 224 206 192 187 193 189 190
302 287 299 300 298 292 291 294 293 298 306 323 237 174 282 262 272 263 260 257 259 255 268 254 279 276 261 256 248 242 236 241 237 254 218 203 205 200 209 211 199 191 193 188 182
293 292 294 283 279 280 276 276 278 277 283 281 297 306 315 295 289 287 278 269 265 264 259 278 266 265 256 248 240 239 234 235 236 252 209 203 208 199 210 214 204 197 188 179 186
292 281 285 284 296 335 348 349 353 322 275 135 307 282 281 294 303 316 295 292 296 289 287 269 244 261 253 247 233 254 238 227 228 228 218 207 208 200 206 222 206 199 198 184 182
273 277 317 333 400 464 477 469 455 410 326 344 326 311 312 296 274 287 288 301 314 292 280 260 245 252 256 255 234 243 246 226 226 239 213 206 213 202 198 204 194 198 193 189 173
302 331 334 394 421 435 437 437 409 406 408 379 310 329 333 329 310 316 277 283 283 278 314 265 255 252 260 260 229 243 234 227 223 235 220 210 206 208 197 201 212 193 190 194 187
330 400 394 370 362 379 401 392 385 378 383 384 400 310 310 313 324 330 330 298 279 282 303 289 267 250 254 250 232 256 240 234 226 223 224 213 205 198 206 207 208 202 207 181 185
391 384 374 357 348 338 369 368 365 365 361 362 376 417 418 359 305 318 324 315 322 275 276 302 271 255 251 256 233 246 249 239 222 219 216 229 209 201 200 213 207 208 199 200 190

GFSSW_2pvu_pres_072.txt.gz
Presure
154 153 190 138 208 197 196 172 177 176 182 180 180 215 135 201 162 156 217 229 226 204 204 179 193 203 202 203 202 197 204 202 216 210 222 215 215 218 206 216 212 219 211 202 266
170 166 184 160 160 167 197 198 192 194 196 178 180 210 184 205 207 195 210 221 185 209 225 182 211 226 222 220 227 217 224 221 217 214 207 197 210 203 209 183 221 156 238 303 279
198 186 164 181 194 174 194 177 177 136 211 193 162 192 199 157 208 195 198 207 136 215 201 219 223 219 209 212 219 214 210 211 209 216 209 204 213 209 197 233 183 261 299 283 273
182 162 193 201 167 188 187 190 189 184 184 170 196 190 196 215 206 220 181 204 208 120 211 209 211 163 197 213 209 202 203 206 196 206 209 197 220 224 237 219 225 250 280 263 284
168 175 182 202 189 200 197 203 193 172 204 215 227 201 195 189 208 201 228 216 204 213 221 207 207 209 204 210 209 205 202 207 198 201 215 222 213 240 192 228 232 327 272 254 257
163 173 194 201 207 182 172 203 202 209 222 214 229 214 199 200 206 217 215 225 208 202 210 214 197 194 193 191 209 211 202 196 194 210 226 229 233 216 216 235 242 356 235 229 247
177 199 206 208 203 200 198 223 214 188 207 216 228 236 209 213 204 211 199 185 215 202 199 203 211 213 201 196 202 197 168 199 209 198 211 201 191 208 224 250 348 365 203 224 244
174 209 213 211 220 215 216 218 215 220 217 232 257 224 246 214 240 237 224 248 219 205 203 192 197 208 212 203 200 200 213 210 198 195 226 198 181 223 235 331 345 390 334 216 252
216 224 228 227 234 225 222 228 214 252 220 238 309 292 265 259 243 226 229 246 224 213 199 208 193 207 198 197 210 199 190 214 211 214 214 211 246 231 345 333 376 355 297 269 244
223 223 229 229 233 227 233 221 245 237 264 242 293 276 264 249 248 236 232 240 224 213 215 207 200 195 208 208 209 219 222 203 193 222 152 225 234 326 323 333 347 277 250 256 242
214 225 250 229 230 235 228 246 246 229 308 291 284 275 264 246 243 241 239 229 221 216 216 207 201 207 205 216 203 197 220 215 198 90 200 234 246 339 315 346 326 286 228 250 240
222 227 238 241 231 225 252 246 283 272 286 294 280 275 264 256 239 239 233 221 210 214 217 213 213 212 222 221 200 209 217 203 214 224 230 227 280 309 316 326 221 260 233 238 245
227 222 243 239 235 244 241 246 264 265 287 284 290 282 267 256 240 237 231 213 210 213 208 213 216 217 220 215 214 200 214 214 203 210 171 226 302 321 154 235 246 249 239 242 232
223 225 237 244 255 242 238 230 281 263 281 277 253 279 269 252 247 234 232 222 218 225 213 217 225 217 210 213 218 224 197 229 231 233 235 289 284 308 289 244 246 237 226 226 229
229 241 259 244 232 234 273 277 287 266 286 262 259 272 261 261 246 240 226 237 223 227 217 215 220 212 213 223 210 220 229 223 233 230 237 304 267 289 260 229 234 226 224 220 214
251 250 245 242 231 285 301 313 280 295 280 268 278 282 259 257 256 246 234 234 228 219 219 221 219 211 224 223 219 219 219 217 235 237 276 283 266 280 250 220 223 223 219 211 210
261 239 269 249 294 306 295 299 326 305 289 284 294 293 291 265 251 257 247 238 223 216 222 225 219 223 227 223 220 213 223 232 247 247 286 263 233 260 225 226 221 222 212 208 211
237 249 237 287 251 288 302 301 295 291 289 293 293 297 291 287 272 251 257 245 237 228 226 222 221 227 231 236 240 238 234 234 253 288 273 261 265 266 242 217 216 221 200 204 198
231 283 286 272 303 302 295 292 296 291 275 262 264 295 290 289 298 279 250 250 248 241 237 236 238 238 240 235 243 240 242 247 158 272 253 257 233 253 207 221 218 218 199 199 192
286 297 252 305 293 294 288 299 302 300 320 326 322 213 210 290 290 283 265 250 248 243 238 239 242 237 241 246 250 246 244 187 236 282 251 252 215 230 207 216 211 211 198 193 206
284 303 300 289 290 298 297 294 297 301 303 300 299 270 159 328 297 287 169 267 251 253 242 243 239 247 238 239 243 248 291 284 256 266 249 248 211 247 202 203 206 204 205 182 199
294 290 290 302 302 299 297 298 296 286 287 285 283 75 267 284 174 331 298 290 271 266 249 245 245 246 246 259 257 237 278 255 259 252 258 243 241 210 208 208 209 204 204 195 191
285 301 309 307 297 296 287 279 298 345 344 335 119 207 297 282 278 277 284 309 305 289 269 266 260 255 254 261 284 277 261 246 257 242 256 229 217 204 209 232 199 194 195 194 194
304 298 213 285 282 281 332 383 422 442 482 484 338 458 353 327 315 303 279 271 297 299 291 266 266 258 252 281 283 260 252 247 247 236 249 250 205 202 205 221 190 204 197 196 190
286 282 282 284 326 337 408 390 377 378 427 420 440 429 418 384 338 303 314 291 265 285 296 308 304 287 289 284 272 256 251 244 242 239 251 247 210 206 200 211 191 194 207 200 199
278 275 311 323 334 407 385 371 366 398 413 398 388 413 404 399 325 322 290 310 297 266 280 283 303 299 282 298 266 249 247 239 234 233 249 244 230 210 203 206 204 191 200 199 200
292 306 315 336 397 375 369 360 359 373 386 380 378 372 395 389 371 312 319 292 299 309 274 276 275 310 277 286 256 249 245 234 243 233 241 238 226 222 209 202 214 197 200 195 199

GFSSW_2pvu_pres_075.txt.gz
Presure
124 135 185 191 119 142 119 165 179 193 183 167 150 183 196 170 170 182 197 181 197 193 203 173 148 206 220 195 202 199 193 133 190 196 197 204 205 211 204 228 193 224 207 224 230
112 153 143 173 165 161 197 162 169 140 158 179 194 195 196 175 203 175 210 190 209 192 162 211 177 204 192 231 220 202 195 201 214 192 197 201 220 231 222 215 221 231 190 221 168
116 150 142 161 137 166 161 159 191 184 192 184 190 192 187 191 191 208 204 204 179 200 196 196 197 192 209 225 229 229 213 215 151 212 225 225 223 219 213 209 214 218 223 216 226
158 145 177 148 140 152 159 173 202 136 196 165 192 185 197 173 117 171 206 212 198 227 221 185 200 211 208 205 222 222 211 218 163 211 209 205 208 199 171 205 208 198 223 217 109
178 162 162 171 155 181 161 174 187 196 181 196 193 195 207 210 207 217 215 223 216 241 240 213 194 199 187 194 196 210 201 201 200 202 176 207 205 211 221 202 212 220 214 213 222
174 169 169 148 177 174 173 186 196 194 197 218 222 222 220 211 222 206 203 234 213 232 244 232 204 201 191 221 199 210 203 192 204 200 194 198 202 213 205 198 225 209 205 245 246
173 139 176 194 172 197 187 202 209 228 217 205 241 216 217 211 225 216 227 233 225 227 236 239 203 215 235 221 211 192 212 202 204 205 204 204 212 219 203 218 216 224 228 204 268
185 189 175 157 180 216 223 222 229 226 223 214 191 237 225 225 240 237 239 259 278 239 248 223 232 205 202 190 204 198 204 199 209 214 213 210 211 211 206 221 205 224 199 254 329
204 183 209 180 214 221 223 229 227 218 215 217 224 239 258 251 285 284 298 286 285 256 269 249 227 213 220 212 208 206 195 203 201 201 203 204 220 129 195 209 229 227 232 275 350
212 221 202 221 225 180 231 225 214 227 225 228 243 263 257 255 293 297 287 274 271 249 239 246 239 222 218 214 217 195 203 200 194 200 210 220 224 219 209 228 210 238 273 330 393
234 231 228 219 227 229 234 222 224 225 231 274 282 255 298 314 314 288 277 264 257 244 245 241 228 215 228 220 213 211 207 199 195 194 195 228 184 198 204 217 228 256 349 353 337
221 230 227 229 228 228 230 227 232 247 267 271 300 290 297 310 293 282 269 263 253 239 239 240 229 219 225 230 224 214 212 203 204 210 224 221 177 219 126 173 245 278 345 331 318
230 221 224 223 224 229 229 237 238 263 261 250 293 284 294 252 287 282 281 274 254 237 248 239 232 228 229 226 223 215 215 212 205 214 225 226 187 205 189 233 248 333 342 321 269
224 226 238 234 233 219 237 247 241 256 240 282 276 280 282 271 270 276 276 265 252 241 241 232 235 231 229 219 215 215 214 216 217 193 228 228 226 211 208 235 280 321 322 259 260
228 218 221 232 226 243 260 252 244 253 256 301 301 293 271 279 270 272 263 271 254 248 240 233 231 228 224 207 217 217 220 207 231 214 197 213 207 201 227 233 295 312 289 261 234
220 224 235 239 224 244 234 254 262 249 295 304 313 310 295 294 278 272 264 268 261 244 247 235 229 224 223 217 215 211 211 221 219 234 227 213 218 228 231 286 298 305 238 243 249
238 234 231 232 239 234 252 248 307 298 307 308 311 308 304 302 293 292 272 273 259 252 240 241 230 228 221 217 216 207 214 224 228 226 197 214 217 241 228 283 291 297 231 239 231
226 231 234 249 262 244 305 296 298 292 308 308 311 303 299 298 295 293 281 291 296 256 248 241 232 228 228 232 229 222 227 225 235 201 226 224 232 240 277 280 281 243 222 234 219
238 237 237 241 259 262 263 251 296 309 307 297 289 294 296 293 289 279 290 293 289 271 253 247 234 231 232 230 227 223 224 228 227 232 231 232 235 251 256 281 285 219 211 229 220
230 226 262 266 252 288 306 308 300 299 294 296 300 305 304 306 268 278 272 283 291 289 271 252 248 238 232 229 227 230 229 228 232 232 248 251 209 287 243 242 232 218 217 225 219
248 260 286 260 244 293 299 310 307 299 314 312 307 305 307 154 307 309 323 285 273 279 286 270 253 249 243 237 232 226 234 245 250 251 261 254 271 273 236 219 225 224 219 219 212
235 272 252 281 293 297 305 302 309 307 309 306 301 298 291 292 297 307 303 303 322 275 278 278 266 250 248 247 243 241 242 245 245 237 245 281 194 157 241 216 253 227 226 201 212
253 295 279 292 298 306 311 304 298 294 283 279 297 317 341 344 319 295 280 279 287 304 289 284 270 264 249 249 247 243 244 255 256 252 267 278 251 255 237 265 242 223 209 200 218
274 293 284 304 306 307 298 290 282 313 374 423 417 414 420 525 483 362 333 281 273 275 297 317 283 269 264 254 245 245 248 247 258 260 289 265 238 248 233 249 227 221 209 205 211
286 294 296 301 298 287 276 332 416 416 396 390 388 391 437 461 486 458 352 320 296 268 273 288 302 300 283 266 261 253 247 254 254 276 258 268 238 251 232 245 218 211 209 200 217
294 297 300 288 279 312 323 421 404 388 374 371 440 408 396 415 433 444 408 336 307 297 269 269 271 287 321 291 285 265 268 270 251 270 247 256 240 246 230 232 220 214 199 204 206
302 288 277 277 311 316 382 348 350 382 370 365 391 396 387 391 406 412 395 357 312 297 297 276 273 281 298 299 288 282 262 260 268 259 245 249 235 236 219 228 217 220 210 208 201

GFSSW_2pvu_pres_078.txt.gz
Presure
131 157 125 107 164 140 122 133 170 127 152 127 181 193 187 183 146 180 175 179 184 193 182 200 206 215 225 130 200 194 196 185 231 223 183 162 139 203 198 178 198 194 196 198 214
136 154 149 148 171 179 127 157 150 187 144 178 149 179 179 194 191 191 184 186 193 193 187 189 200 201 213 233 210 213 167 174 185 169 234 214 216 158 202 191 191 200 201 215 223
182 169 124 153 166 169 167 160 160 172 156 189 180 162 171 191 188 187 163 185 176 185 185 201 189 216 208 219 214 214 229 191 191 149 228 221 236 228 205 203 195 229 204 155 221
171 185 141 167 131 134 179 147 136 125 184 173 191 172 181 187 172 182 194 195 199 217 218 220 220 224 218 197 227 144 227 215 190 200 190 222 222 215 212 188 218 212 213 213 206
178 159 135 178 124 180 173 145 180 168 163 180 177 189 178 172 188 198 201 217 204 238 221 224 225 207 237 221 232 213 224 190 194 192 196 213 194 214 215 211 211 211 185 212 222
173 175 167 147 167 137 153 172 184 180 188 183 182 175 167 217 210 213 229 222 226 235 222 223 240 232 240 236 236 224 236 220 206 196 195 207 183 188 207 204 211 205 203 215 209
178 133 174 163 178 207 186 180 194 222 185 184 201 193 202 229 212 215 218 212 217 234 251 259 252 281 244 246 230 220 226 222 208 197 190 206 207 190 198 210 204 193 217 206 212
163 197 176 127 123 173 187 218 178 186 214 174 226 204 232 223 216 220 220 241 299 275 266 272 270 291 262 226 301 228 230 210 207 206 196 207 204 204 197 200 207 212 220 215 204
151 204 134 169 187 198 168 210 226 170 227 226 218 218 220 218 218 226 247 282 271 263 275 280 306 304 287 300 286 234 228 219 204 203 201 198 197 203 206 207 203 209 201 211 227
137 180 206 175 145 212 211 229 184 209 229 225 221 221 232 220 236 256 256 298 287 290 293 297 297 296 277 274 280 235 225 225 207 204 202 206 202 201 206 166 197 205 210 214 216
206 118 215 209 199 229 235 234 226 224 229 223 227 229 216 240 249 267 250 296 299 296 285 271 275 273 267 269 267 230 233 217 224 221 212 210 204 203 189 198 209 199 213 213 231
204 184 178 164 223 203 236 223 230 225 221 225 224 232 225 237 258 321 306 309 311 288 281 268 258 255 253 249 253 258 221 220 204 205 207 206 208 214 206 205 198 204 227 239 210
205 189 216 237 204 230 227 226 228 224 230 223 243 236 251 260 314 308 310 305 282 287 277 265 254 246 247 242 242 233 236 225 217 207 211 208 212 210 199 201 208 209 227 229 230
189 214 172 226 224 235 234 219 222 225 235 241 241 248 263 291 318 299 298 301 290 285 283 265 260 248 240 238 235 237 228 224 214 218 212 221 197 188 208 207 108 231 225 216 250
207 179 228 229 229 222 232 234 232 231 230 249 242 239 281 307 266 314 314 294 285 275 264 270 260 251 243 236 229 227 227 230 220 212 216 225 223 214 218 222 212 217 224 195 269
215 220 238 221 220 238 236 228 232 240 232 242 229 271 301 297 289 313 314 300 286 276 267 261 262 246 245 236 238 238 232 226 225 221 221 224 227 215 213 209 228 223 233 249 312
228 229 214 235 217 241 231 232 240 247 251 256 259 271 285 302 308 307 306 296 291 281 275 255 256 254 240 239 233 230 232 231 226 228 223 221 217 218 209 214 231 219 232 258 313
231 246 240 237 232 235 229 247 284 261 277 242 260 285 319 311 304 302 310 301 291 285 285 269 247 253 249 239 237 233 226 228 228 227 220 212 212 216 203 131 214 233 245 278 297
229 235 245 233 228 249 246 251 243 240 262 260 290 299 306 312 304 293 292 295 292 292 283 285 264 256 250 246 241 231 228 228 227 223 217 215 212 213 231 230 150 244 245 279 231
247 225 238 238 229 254 236 232 265 244 259 297 302 312 312 314 314 312 310 310 303 285 293 288 280 289 249 242 245 234 233 223 222 213 215 213 221 228 223 215 222 247 284 277 265
229 260 257 228 231 238 270 261 282 266 300 295 309 322 322 316 320 317 312 295 300 304 290 280 282 287 258 249 242 244 233 229 226 224 232 234 238 229 229 197 245 254 268 283 249
249 241 235 231 241 253 249 264 293 289 297 313 318 316 313 306 297 289 289 302 309 292 289 306 259 289 278 257 251 245 237 238 238 231 230 228 237 230 199 251 259 283 256 266 241
253 260 242 252 280 281 274 294 284 291 314 309 302 294 290 309 337 310 297 287 280 297 296 298 309 266 280 277 255 248 244 240 236 233 234 236 226 238 227 274 290 259 274 239 229
250 253 280 281 266 282 293 277 302 317 304 290 373 436 422 412 311 427 448 382 330 274 287 296 297 316 275 275 272 257 250 248 244 236 241 247 246 263 250 277 272 156 246 238 206
294 282 276 286 270 279 292 306 304 293 287 369 372 405 406 402 438 451 414 437 414 334 272 283 294 307 282 276 271 267 258 251 250 249 246 251 259 263 257 264 255 245 234 233 210
280 280 267 281 281 295 302 294 285 330 315 357 364 387 387 424 407 417 423 408 427 358 314 272 275 285 304 273 276 272 265 256 252 251 251 253 262 252 265 253 243 240 216 234 214
272 276 294 285 294 292 282 278 330 311 331 352 354 374 377 395 393 402 419 438 427 363 317 292 271 273 280 301 294 284 274 263 257 251 245 249 249 285 255 242 244 247 236 224 227

GFSSW_2pvu_pres_081.txt.gz
Presure
144 180 183 161 149 173 141 127 175 144 159 187 105 122 161 118 170 185 124 147 183 175 177 166 158 183 163 193 195 186 206 198 214 208 223 239 232 190 221 224 217 219 209 205 199
159 161 182 184 157 123 167 131 137 138 125 174 170 183 145 152 177 168 173 135 189 190 174 181 173 192 185 179 193 198 204 204 212 212 222 228 216 62 211 186 164 225 220 199 200
175 156 149 127 181 175 134 156 196 130 125 174 157 178 144 195 173 157 178 187 178 174 192 189 179 183 187 196 203 156 216 223 223 228 229 221 229 227 227 198 176 208 191 216 212
189 177 165 177 176 130 172 183 146 140 183 183 128 130 155 174 185 200 175 174 191 191 188 163 182 191 196 194 209 212 209 217 222 232 211 218 221 220 226 200 209 191 208 222 226
127 189 184 151 183 184 153 178 154 181 134 132 142 147 185 144 180 174 206 190 185 188 180 161 188 195 203 218 236 232 225 221 229 218 215 223 219 218 225 214 186 191 204 224 92
178 180 170 169 183 159 138 123 144 185 165 143 185 166 128 182 165 223 172 192 159 181 193 204 215 210 217 219 230 230 249 241 236 229 227 226 223 186 222 212 196 196 198 207 192
180 191 194 177 180 185 187 188 185 145 179 187 207 146 174 190 183 212 224 213 176 219 188 237 218 213 242 269 295 283 280 280 261 253 235 226 227 225 218 209 202 189 75 205 204
192 184 180 196 185 169 168 144 202 194 190 129 139 166 204 215 200 193 164 215 213 204 228 232 237 235 289 284 305 296 288 276 262 272 237 249 218 224 217 208 201 192 202 191 191
167 191 191 172 149 183 206 135 177 203 125 167 196 201 218 222 223 218 174 189 223 216 232 208 260 280 298 311 303 267 269 263 282 287 252 232 216 224 215 202 200 196 197 204 202
146 192 185 127 161 193 212 199 178 183 133 204 195 229 221 227 178 232 225 235 220 235 241 243 313 308 298 299 298 307 321 286 297 287 246 239 218 226 206 204 193 197 197 195 199
179 196 126 218 224 207 206 213 157 213 192 207 201 223 226 231 235 226 233 232 232 237 240 323 305 305 293 301 301 292 298 274 284 273 247 261 228 209 209 192 201 199 200 199 189
210 226 189 158 203 211 222 214 211 210 202 222 206 223 231 227 172 239 229 245 239 267 328 308 309 303 294 283 279 281 278 261 268 277 281 242 230 210 212 205 199 200 208 210 206
221 218 205 213 205 205 212 225 208 207 190 150 187 221 236 220 244 247 239 239 269 265 328 306 300 288 284 273 264 275 267 253 257 249 270 227 225 208 208 201 202 204 200 198 200
227 219 213 211 201 210 208 203 194 208 202 145 219 178 229 226 256 244 248 296 272 273 310 319 306 280 277 279 263 255 262 254 246 244 240 244 211 219 206 208 212 203 205 203 209
218 212 218 211 206 203 212 197 205 217 219 228 227 240 157 254 239 263 262 238 260 303 314 318 301 279 282 283 263 245 252 245 242 243 245 222 220 208 214 215 204 206 207 215 218
225 208 219 206 174 222 192 213 194 205 182 216 176 228 247 231 250 244 240 255 298 311 327 320 302 284 270 271 262 255 246 241 237 234 232 238 223 219 210 217 206 209 205 211 211
216 209 198 206 210 218 216 171 218 228 218 240 238 225 219 250 244 283 269 264 305 315 317 318 301 285 270 261 261 259 244 237 233 230 227 233 229 220 212 216 206 198 210 217 217
218 220 215 213 222 218 225 219 211 234 232 248 244 224 228 257 262 272 267 302 308 315 309 317 296 296 271 257 259 250 248 242 235 226 223 218 221 223 215 213 218 218 219 225 232
213 215 220 224 221 227 224 223 239 239 250 221 280 271 243 255 280 264 297 302 312 324 307 291 309 299 279 259 262 247 244 239 238 234 232 227 224 225 219 213 210 218 219 214 205
219 220 233 229 227 234 234 231 230 220 233 234 244 280 280 293 287 293 290 309 328 321 319 299 294 297 290 267 253 256 246 235 232 229 228 225 223 229 226 226 225 223 203 209 158
227 232 234 237 239 240 240 241 232 253 234 266 276 283 285 289 299 297 313 308 325 278 315 313 317 277 301 284 255 258 248 240 236 230 227 222 219 223 221 220 215 213 217 218 174
233 242 228 224 226 233 249 241 230 273 259 240 286 278 294 285 301 320 326 308 307 302 304 307 310 337 288 293 280 249 256 246 240 233 225 223 224 224 225 220 213 222 228 236 222
245 240 237 237 252 257 267 267 244 284 294 293 287 296 290 309 329 304 303 336 326 313 281 287 303 304 304 290 291 269 249 254 243 238 233 227 221 223 219 214 220 232 232 241 230
265 260 247 265 264 270 266 265 279 290 284 279 289 301 318 306 316 409 388 440 442 434 337 278 278 304 304 293 290 279 266 247 251 241 239 234 231 228 234 233 222 232 221 232 284
265 260 257 261 264 266 279 286 287 284 280 288 307 305 292 352 414 419 438 369 439 420 447 344 269 278 304 295 286 290 277 257 249 253 242 237 236 236 235 234 235 221 258 300 281
251 268 267 281 282 275 272 286 274 291 304 300 294 286 324 350 384 404 430 410 423 467 405 395 324 273 283 302 307 251 289 269 252 246 243 247 240 238 239 234 238 209 266 277 255
275 284 284 265 268 275 273 291 297 298 296 285 282 320 344 336 373 393 409 415 418 426 392 401 350 310 270 287 298 303 263 278 265 248 243 242 247 248 245 243 216 242 278 254 246

GFSSW_2pvu_pres_084.txt.gz
Presure
160 168 167 125 165 138 156 185 160 185 187 135 134 140 140 154 171 122 123 133 184 158 180 128 156 183 159 167 193 191 146 166 181 163 156 167 205 187 204 211 216 190 239 193 210
181 167 170 164 172 133 170 180 142 170 184 130 165 179 150 152 169 160 191 150 155 179 125 141 174 180 175 197 184 190 196 179 182 188 196 209 203 213 212 214 225 236 228 220 214
174 176 172 129 165 159 131 175 196 185 141 179 181 127 188 162 162 186 141 171 166 192 181 152 180 153 200 193 199 199 197 168 188 187 206 212 199 199 209 234 226 241 227 227 227
182 184 182 178 185 153 192 139 179 132 179 125 134 185 133 160 160 129 164 185 179 182 145 204 191 180 208 205 186 177 187 199 190 201 212 220 215 218 232 227 225 235 231 219 215
179 170 156 174 153 154 190 190 180 183 184 186 166 168 127 131 183 140 156 177 178 187 179 177 157 203 185 205 186 192 185 194 209 205 209 215 232 207 238 207 230 230 234 217 223
184 183 164 176 178 175 178 189 172 185 193 142 156 190 158 175 153 134 146 198 181 185 157 204 184 200 217 207 169 220 207 220 230 241 223 236 238 234 233 228 166 215 227 225 226
171 178 182 184 122 178 177 183 169 164 147 128 187 193 190 179 198 161 202 189 206 182 136 217 222 229 225 196 232 215 176 229 209 216 329 244 288 257 240 239 232 234 235 218 226
185 186 183 174 170 173 180 176 173 179 146 179 184 189 180 165 156 195 144 143 204 151 198 216 227 167 235 227 244 223 232 244 278 275 289 277 300 263 280 257 251 244 247 214 218
194 186 176 162 180 180 181 167 172 150 134 164 116 163 195 203 210 143 165 170 184 198 171 169 229 226 213 242 244 244 280 356 335 321 319 316 310 280 284 277 269 266 231 223 214
175 187 155 138 191 178 143 182 193 190 175 180 221 216 219 214 203 219 216 204 192 218 214 221 230 232 248 229 245 274 339 329 316 300 300 314 297 264 259 256 265 240 230 228 210
217 149 187 178 185 133 108 193 194 187 206 227 222 141 209 212 187 225 200 224 220 150 220 224 245 246 236 239 315 316 322 320 308 307 304 312 295 296 297 281 266 237 217 221 209
154 210 173 186 190 180 159 179 193 201 206 231 219 212 221 217 217 195 214 216 222 220 206 160 191 191 298 255 247 325 316 315 299 291 294 298 287 298 298 270 238 221 212 219 210
183 186 192 192 190 190 182 217 204 202 213 230 217 225 215 219 138 224 212 218 207 214 231 243 212 211 215 236 318 318 310 302 292 281 290 271 266 278 260 244 244 247 169 214 201
198 187 185 201 193 212 202 208 204 209 214 228 221 218 213 211 211 215 215 218 221 228 240 241 264 244 277 320 320 319 298 295 279 273 284 268 271 262 274 261 244 221 226 206 206
203 199 209 181 202 211 211 209 206 200 209 231 223 215 211 211 213 220 224 225 233 230 261 295 249 256 290 325 337 307 293 285 270 266 277 252 262 247 255 247 217 216 117 205 198
213 210 185 192 208 214 205 206 202 204 213 233 220 213 218 218 218 179 230 226 242 244 256 242 254 287 311 329 333 295 286 279 269 258 270 249 249 232 237 225 225 208 211 209 211
217 218 214 213 214 212 215 214 223 208 226 229 224 222 213 221 227 207 230 239 241 246 303 275 290 303 313 322 324 292 278 274 276 253 249 246 241 239 243 244 217 215 214 162 208
222 222 221 219 168 187 239 234 237 230 231 225 221 216 223 225 228 230 244 249 252 282 263 291 304 295 325 321 321 294 280 264 269 253 240 242 241 237 229 224 227 211 205 206 202
258 259 173 269 252 236 240 237 241 247 236 214 214 222 236 229 232 241 251 260 273 251 302 302 306 304 331 340 312 298 272 261 259 254 243 232 233 234 229 228 229 214 208 206 201
254 252 260 263 253 244 240 236 239 240 234 228 224 226 233 245 235 239 252 266 277 301 299 301 302 329 344 341 317 303 271 259 251 252 244 231 228 229 217 224 225 228 213 212 212
243 251 249 251 258 255 249 255 229 241 239 228 228 236 235 230 254 266 285 297 299 288 305 311 324 333 325 363 322 291 269 259 253 249 246 236 227 222 220 214 221 222 220 217 219
254 244 249 242 240 252 243 236 233 239 246 228 240 250 237 243 274 275 294 293 290 309 334 334 312 306 306 334 324 301 288 261 257 240 241 237 229 223 224 226 229 223 221 217 221
246 250 251 243 240 250 253 257 254 255 248 265 250 264 276 275 279 294 294 298 319 318 317 308 321 297 294 307 327 308 292 264 261 244 238 238 233 233 233 235 227 228 222 222 221
254 255 252 252 249 258 267 260 258 264 263 268 262 270 268 290 293 286 310 319 309 343 459 409 466 380 318 282 324 336 291 271 260 253 240 240 231 231 229 226 222 228 221 219 220
247 252 252 240 263 260 258 261 264 263 267 271 275 286 283 285 306 318 312 324 362 457 460 470 439 434 348 282 296 306 274 292 257 256 249 241 237 233 230 226 224 217 218 221 212
247 247 256 264 267 258 261 259 260 257 264 285 278 279 289 313 311 298 330 356 395 434 428 430 443 445 398 306 286 317 303 284 269 248 254 248 248 241 228 226 228 222 219 218 231
264 250 257 262 263 268 266 275 278 286 277 277 285 304 305 297 292 333 357 338 437 427 417 410 383 399 478 314 283 302 289 304 286 255 255 263 251 242 238 235 233 228 227 229 234

GFSSW_2pvu_pres_090.txt.gz
Presure
168 188 182 182 189 179 186 133 179 159 169 177 184 155 182 170 179 160 184 166 193 196 181 164 176 132 133 121 173 173 178 142 181 182 168 192 192 190 194 216 206 193 186 200 208
167 173 125 171 161 171 169 168 179 124 186 176 157 162 129 161 177 179 170 158 137 155 174 189 157 188 169 163 142 187 192 161 140 139 197 210 206 209 213 170 186 193 201 201 203
185 172 188 175 166 154 180 183 171 180 182 169 136 179 182 174 177 189 180 182 184 204 176 190 195 187 189 198 195 131 188 146 194 192 144 199 194 198 148 213 208 209 195 205 207
200 185 193 181 176 175 189 172 182 188 137 179 190 189 175 185 152 173 135 189 161 201 198 159 183 176 185 202 152 184 184 135 159 191 186 199 158 198 204 204 210 195 208 213 254
183 193 205 194 183 186 192 190 183 194 187 152 187 186 175 185 162 164 151 198 178 176 194 188 184 134 187 183 176 118 171 137 134 197 192 169 207 208 201 201 194 207 220 235 235
181 184 186 163 190 158 185 182 176 189 195 183 148 163 144 137 189 194 193 194 180 192 191 177 183 189 193 150 157 187 183 194 194 203 197 212 207 203 198 199 223 223 236 247 268
198 172 192 194 126 195 186 184 195 201 179 197 160 181 196 190 198 183 198 125 167 138 190 163 183 134 141 193 167 190 191 184 206 202 220 225 173 212 218 220 240 248 257 255 258
196 174 188 195 165 188 184 147 186 189 190 200 192 181 158 206 184 191 194 199 176 190 194 190 149 150 154 184 188 195 231 204 209 210 211 194 222 219 202 226 217 259 255 275 293
193 170 183 175 169 188 196 163 190 181 198 189 197 200 200 192 200 202 197 192 183 190 194 175 177 182 191 172 198 210 194 225 220 222 216 210 210 220 223 238 264 297 276 278 273
210 169 166 186 200 185 203 164 193 168 179 148 178 191 170 199 190 193 196 187 193 191 156 199 195 195 198 194 191 140 214 230 232 210 228 213 232 227 240 261 343 287 318 263 322
151 192 202 188 163 187 194 194 207 186 193 172 179 181 190 199 173 197 205 206 201 161 190 203 190 198 204 198 174 220 228 235 149 219 225 218 229 231 256 300 322 300 353 341 317
175 138 203 185 182 193 155 207 162 165 199 183 193 186 207 197 198 178 195 184 188 197 193 179 197 198 211 200 227 220 232 238 229 227 228 229 241 239 309 354 360 352 335 325 316
201 224 194 203 151 218 207 202 152 186 197 152 212 183 201 162 191 167 202 197 199 188 194 204 203 205 194 210 202 234 220 230 224 234 229 237 242 300 370 145 224 329 320 303 302
218 226 164 199 195 240 203 168 161 206 197 215 197 197 162 198 216 209 209 205 213 196 191 200 206 206 219 224 217 211 229 235 237 238 232 224 269 166 353 340 328 306 305 284 272
180 247 233 195 219 226 235 104 157 202 201 222 199 184 192 195 190 197 190 198 212 205 182 202 201 204 224 217 221 234 237 235 214 244 262 210 361 345 330 313 292 283 270 266 269
288 227 234 238 167 235 226 187 172 162 227 187 196 184 193 217 178 202 193 197 199 208 206 204 218 212 218 228 230 241 245 245 249 264 241 300 382 320 315 294 292 261 268 260 262
311 316 271 155 226 212 241 191 245 174 216 178 182 195 191 195 204 225 207 200 204 201 202 215 225 224 231 230 240 249 244 251 259 265 281 344 382 311 297 276 268 257 249 256 259
152 302 308 312 281 253 242 246 184 225 182 217 222 133 217 194 204 227 217 209 228 236 224 227 219 234 234 251 248 244 252 266 263 266 338 366 343 294 281 274 259 245 250 262 256
314 320 324 298 265 299 274 229 224 214 237 163 233 224 225 223 242 233 245 247 233 229 242 244 247 251 252 248 250 270 247 260 276 311 335 385 324 285 266 260 245 231 239 247 243
293 302 294 292 289 155 267 272 266 268 173 246 240 247 244 245 255 260 211 262 264 254 254 250 256 263 264 267 248 255 267 279 297 321 361 354 308 271 256 255 245 229 231 249 237
277 281 279 268 271 258 264 266 254 252 256 252 255 264 268 266 251 255 249 247 262 264 264 267 266 261 247 262 271 271 282 295 306 314 360 340 297 268 247 251 248 232 243 244 233
273 283 265 261 252 254 251 256 254 255 257 259 251 256 253 256 257 243 258 252 256 261 255 259 258 272 270 273 273 285 301 305 308 336 364 330 285 254 246 240 236 240 243 236 225
280 265 266 264 248 258 247 246 261 251 253 255 258 240 267 266 261 261 260 250 251 251 254 257 266 288 283 271 278 295 299 321 326 316 326 326 271 256 238 242 240 249 244 234 233
273 270 264 259 252 260 263 248 241 243 240 249 240 260 254 247 245 248 248 250 251 252 257 263 275 279 307 308 292 307 224 324 228 306 312 312 265 268 242 237 229 231 222 233 234
264 256 253 255 262 250 241 240 240 241 252 237 260 249 241 246 244 246 255 253 254 255 290 289 295 303 308 208 326 308 374 378 347 295 337 297 261 259 254 240 232 232 234 233 232
279 249 261 254 250 249 250 264 263 263 254 252 249 244 251 250 247 253 257 264 268 281 294 303 304 332 312 305 400 408 394 386 376 329 298 306 268 261 256 252 240 244 242 236 227
270 264 251 252 264 258 262 263 262 262 255 252 248 247 248 246 258 264 274 277 292 290 297 312 305 320 372 452 457 485 500 438 355 329 336 302 287 256 258 260 251 244 239 234 223

GFSSW_2pvu_pres_093.txt.gz
Presure
184 190 178 189 191 179 138 144 179 162 185 186 155 121 171 183 175 185 153 171 174 186 161 182 181 180 183 205 186 200 170 169 136 190 192 198 194 109 117 134 202 209 209 209 221
190 175 178 185 192 189 181 198 183 180 180 192 166 179 176 134 184 145 158 162 177 167 191 182 173 162 170 180 192 197 194 162 191 165 136 175 168 159 169 150 133 198 168 211 205
180 197 177 195 176 185 185 186 204 180 180 199 185 180 189 176 177 189 156 186 179 176 190 193 191 178 121 188 198 175 204 160 190 201 178 192 183 187 141 193 197 199 201 200 215
184 195 187 196 190 156 172 200 185 190 190 198 185 173 186 141 183 168 190 186 190 175 185 181 185 191 200 187 205 195 172 185 156 142 194 152 150 130 173 161 190 192 201 197 201
157 185 170 168 152 193 187 193 181 157 183 185 194 171 192 180 171 178 191 187 163 169 131 181 195 200 192 188 192 166 199 146 189 175 163 194 184 146 192 184 195 195 213 196 214
175 182 151 191 194 186 182 188 194 183 190 183 175 182 192 183 193 151 195 135 201 187 190 190 195 197 195 190 199 183 201 191 193 197 172 162 191 197 198 200 208 223 217 219 222
195 172 198 142 200 191 184 198 205 200 180 201 170 197 184 192 202 195 175 198 184 191 183 186 184 160 189 199 176 200 199 135 141 156 192 199 195 189 198 202 224 229 217 206 216
162 153 206 189 170 192 182 219 189 209 144 175 178 187 197 188 195 197 194 192 176 192 192 130 188 196 199 201 196 159 187 180 202 207 199 203 186 175 220 254 231 216 225 223 211
179 191 140 163 183 175 218 205 175 193 202 200 171 194 178 193 187 203 198 181 197 172 199 191 195 197 196 208 194 195 194 189 182 198 182 202 187 203 192 199 233 226 214 220 223
151 147 173 199 221 159 181 183 194 208 170 182 160 174 194 199 194 194 203 177 142 201 179 197 197 202 190 166 203 165 189 190 189 195 203 204 199 201 199 236 235 240 233 231 233
202 141 200 135 153 128 179 164 207 186 212 193 196 206 195 189 206 192 206 205 197 191 202 202 198 206 189 207 186 195 201 172 201 192 199 204 206 194 215 238 240 241 244 237 244
235 208 205 154 204 188 197 190 159 182 195 168 198 189 174 201 158 210 171 197 174 207 177 154 204 212 193 199 203 201 204 202 196 199 195 201 210 163 237 240 242 248 232 260 213
196 200 219 191 213 200 239 141 223 169 233 179 198 158 173 192 196 211 163 210 198 204 199 190 187 196 159 218 213 201 211 207 205 198 209 200 222 228 236 226 262 253 274 318 385
273 246 234 142 250 258 183 151 177 212 207 154 179 167 148 205 189 195 214 211 213 201 203 207 211 206 223 192 200 189 193 200 207 204 208 219 238 240 229 253 253 286 363 373 334
349 344 160 340 317 325 223 258 256 194 234 250 204 198 214 219 199 196 131 200 209 219 198 206 195 198 192 193 202 206 220 204 202 214 210 233 248 235 175 266 283 306 376 324 300
305 295 320 284 332 327 336 301 237 149 146 256 197 222 219 229 214 213 211 204 198 192 188 210 207 199 197 203 197 207 211 207 216 216 228 244 242 257 266 277 277 369 334 294 280
292 292 301 285 296 316 343 344 176 221 180 178 218 220 150 208 205 227 216 193 200 205 185 224 194 192 205 210 207 205 224 207 236 237 247 251 263 264 273 277 378 336 295 277 268
268 281 287 275 287 300 300 354 323 324 292 254 241 240 202 196 196 206 214 234 137 197 197 202 201 199 223 213 216 240 258 253 244 250 255 257 265 283 275 416 340 301 280 263 261
269 284 274 292 289 276 301 304 305 319 330 304 259 246 229 232 194 207 238 191 168 227 222 197 224 235 231 228 254 246 251 248 251 258 270 269 265 273 322 398 311 286 265 263 258
295 287 289 280 273 299 303 286 280 295 302 294 243 264 257 264 228 230 174 232 212 209 238 240 221 233 155 255 261 261 260 253 251 260 272 257 309 311 335 320 287 275 261 251 273
292 294 310 308 308 299 330 308 292 280 267 264 239 268 279 265 238 214 260 242 241 248 244 243 251 263 257 252 246 246 254 261 256 250 269 307 293 309 372 292 277 271 254 252 260
291 270 264 287 285 280 299 276 273 266 259 267 266 261 260 261 261 262 252 251 245 241 262 253 254 253 246 241 260 259 257 262 264 269 283 286 329 317 391 280 263 261 254 246 257
282 272 258 279 269 268 277 263 260 255 241 239 248 249 247 246 248 257 260 255 257 252 251 267 275 271 260 253 252 251 251 260 269 281 226 324 320 342 337 273 267 257 254 249 235
260 264 271 279 274 261 249 251 247 242 245 249 245 242 247 257 253 246 243 254 243 275 265 255 255 253 253 259 254 255 263 274 299 326 317 321 353 323 306 261 258 251 257 261 233
279 308 294 267 254 261 252 247 250 242 246 238 242 245 241 243 235 242 255 241 268 258 251 258 255 258 267 265 267 289 273 304 329 334 351 318 321 340 281 256 246 242 255 261 241
272 291 280 277 253 252 257 255 253 251 252 261 249 233 239 237 252 245 238 247 254 255 264 260 253 260 267 296 312 329 325 329 322 319 305 300 306 335 283 259 245 250 251 244 237
277 285 275 267 256 251 241 246 248 251 242 241 242 239 238 240 250 261 262 263 256 256 260 259 265 280 315 324 333 315 380 488 480 409 415 409 298 304 283 254 252 252 241 247 253

GFSSW_2pvu_pres_096.txt.gz
Presure
172 175 153 197 152 189 164 171 154 187 157 201 126 171 199 204 199 132 187 182 172 174 189 182 140 173 172 195 191 187 183 174 186 176 202 200 123 206 202 194 200 136 119 207 160
182 181 181 180 190 177 182 174 190 185 184 187 187 188 175 163 180 190 179 152 177 189 135 179 132 166 187 155 161 193 185 181 176 190 173 195 201 116 164 182 198 171 197 192 192
190 181 191 182 154 182 177 186 159 178 191 182 158 156 194 184 187 174 194 190 154 133 184 158 169 181 179 155 181 184 168 186 176 197 186 187 191 204 190 167 195 190 193 183 150
188 157 178 157 167 168 183 183 184 169 174 145 200 159 180 149 195 182 176 187 188 182 190 191 148 184 157 182 181 178 190 194 200 187 198 199 194 179 177 197 149 169 154 172 196
184 182 190 190 195 184 191 134 202 168 189 159 190 154 191 198 184 166 199 191 189 186 193 175 161 190 140 139 200 192 184 181 193 192 200 196 205 195 190 180 194 205 192 199 202
191 200 195 129 196 178 197 202 201 170 157 180 169 168 146 189 186 198 181 202 197 168 153 178 201 188 131 179 183 197 162 194 190 191 202 204 176 205 198 200 167 157 186 200 200
199 202 201 131 199 207 184 184 179 176 196 200 178 214 194 202 203 183 193 181 189 198 179 196 189 193 182 193 188 195 199 200 196 198 200 206 195 187 192 130 199 191 195 201 195
198 150 193 193 196 181 161 206 204 192 197 207 197 140 191 188 196 194 201 200 190 188 195 197 192 192 197 190 196 190 141 199 190 187 197 174 192 169 192 172 204 151 186 206 195
132 207 212 188 212 204 200 170 206 196 202 173 176 148 201 178 184 210 199 190 186 180 192 188 184 187 192 197 188 171 194 199 177 205 207 205 190 201 189 187 186 198 195 196 201
185 181 202 212 207 130 224 164 195 189 191 215 207 206 201 213 194 182 170 184 179 187 205 190 174 184 195 173 161 209 190 197 189 133 204 176 196 207 202 206 200 201 192 201 199
204 226 210 190 226 208 217 221 224 165 222 219 137 140 172 163 195 192 181 209 198 198 191 207 193 193 213 208 204 197 210 197 180 217 205 188 174 207 209 215 216 189 213 204 202
180 224 201 132 218 202 249 167 267 151 218 174 180 192 170 207 215 155 205 150 209 195 216 194 203 187 185 200 208 172 216 211 208 196 199 213 212 190 197 194 211 201 206 203 219
221 231 260 219 171 191 235 190 194 254 190 149 229 196 149 212 199 223 199 150 200 200 182 189 210 212 217 164 159 171 173 204 207 209 220 211 193 186 206 200 214 214 218 221 215
221 240 295 203 254 183 348 363 317 160 192 242 256 244 178 198 150 210 205 212 136 199 159 205 208 208 198 175 183 208 212 209 184 220 229 212 208 201 200 200 224 220 217 228 273
376 379 369 358 365 356 212 318 164 355 343 379 230 202 230 250 207 188 181 211 161 207 155 189 158 211 202 203 192 198 206 215 197 208 195 220 200 194 197 205 203 212 234 143 254
349 351 352 339 327 342 321 295 296 337 322 221 373 279 156 226 211 242 232 203 231 168 228 202 199 201 217 192 220 221 213 201 206 208 199 201 207 210 203 210 223 247 265 270 282
299 300 309 318 310 309 297 294 303 306 302 320 331 324 325 352 304 280 243 188 255 226 216 228 198 207 200 216 194 214 217 211 216 215 198 204 213 228 231 247 260 256 266 279 296
288 299 301 308 283 285 294 285 306 296 287 312 311 345 334 332 337 310 284 169 208 234 233 200 216 208 221 201 205 229 229 210 235 228 219 220 232 221 257 258 258 261 201 289 407
290 309 301 280 287 276 281 291 277 280 273 278 310 299 327 322 304 295 315 289 268 191 242 228 213 228 222 170 150 229 237 224 205 210 213 252 243 259 263 265 259 264 269 395 351
303 315 284 291 276 292 296 285 283 269 283 271 289 298 320 309 302 305 284 274 279 247 248 221 205 228 212 226 226 167 149 220 239 223 255 249 262 267 253 249 268 249 282 379 300
306 317 299 288 277 284 282 281 283 286 271 288 278 293 288 296 286 282 303 278 254 241 281 252 241 150 236 219 216 235 238 245 253 254 260 264 256 250 269 262 264 271 315 325 283
337 314 297 300 315 267 297 298 307 300 323 274 265 273 268 272 271 268 259 261 259 247 230 219 249 252 232 253 241 246 254 254 252 263 258 260 265 269 267 264 271 279 372 298 272
320 297 292 288 284 267 277 278 284 301 315 273 264 263 257 250 254 261 257 257 255 259 252 253 258 253 250 254 250 246 113 238 259 262 272 273 272 272 84 276 280 334 359 285 267
294 310 295 287 266 258 272 269 276 279 266 253 256 253 253 257 254 252 250 251 252 252 252 248 248 248 253 258 252 246 252 275 268 265 264 268 271 263 282 296 305 341 322 279 260
336 306 297 277 276 270 270 257 261 262 256 255 249 249 247 243 235 242 241 240 243 248 258 251 245 247 259 246 262 272 262 260 263 264 273 273 289 305 313 324 344 351 288 276 263
318 290 282 260 274 288 272 255 262 251 252 241 253 241 243 235 245 239 241 250 246 252 244 238 237 254 244 248 263 267 266 266 271 276 288 298 363 334 343 328 330 327 283 276 265
303 300 278 273 307 284 264 252 252 242 249 253 238 237 238 234 230 237 254 244 240 246 249 245 250 259 265 268 272 273 272 279 291 332 346 338 316 307 307 310 318 304 276 276 264

GFSSW_2pvu_pres_099.txt.gz
Presure
167 187 178 163 176 173 161 163 168 186 192 190 173 170 185 192 143 197 159 134 174 202 160 166 186 178 174 178 189 171 167 171 170 159 178 187 190 183 191 174 166 176 127 188 172
185 161 163 177 190 181 200 193 186 189 178 168 179 170 177 200 180 177 180 196 179 135 132 184 186 188 177 182 180 162 144 178 185 144 160 185 185 187 189 170 167 120 197 185 163
160 183 187 183 165 159 175 184 174 198 190 187 186 185 144 143 137 191 190 196 186 184 159 180 188 152 187 185 188 179 173 175 163 150 182 150 186 187 192 198 185 202 182 198 133
183 164 181 183 181 150 193 172 185 181 183 130 129 192 187 197 166 200 194 189 193 178 181 201 179 180 189 178 185 178 127 164 183 181 183 179 183 190 181 185 197 200 201 197 195
135 180 179 178 168 184 173 185 195 167 200 192 174 148 193 187 175 194 176 182 178 183 188 191 182 190 164 195 142 189 174 168 194 172 176 180 201 184 179 195 199 206 202 204 202
185 176 177 183 178 184 184 197 195 181 194 188 138 184 184 195 189 170 198 182 168 184 170 193 178 194 197 193 176 151 156 190 197 129 141 188 193 194 182 201 188 196 202 193 182
166 169 192 194 117 196 184 196 195 203 198 202 156 201 208 181 200 204 148 181 189 207 194 171 189 201 191 176 164 169 190 162 137 167 191 191 174 198 184 194 207 199 201 204 200
201 195 194 189 179 166 194 204 141 193 152 212 216 128 141 152 202 200 176 202 190 193 220 198 193 191 206 186 191 180 195 185 205 195 190 194 190 169 207 205 184 183 207 204 191
203 192 170 197 199 207 181 156 202 213 215 177 218 184 157 183 148 207 164 208 182 206 166 177 207 182 193 211 207 193 191 185 191 188 197 193 190 184 184 198 193 206 201 195 198
151 189 188 186 196 187 194 226 203 208 205 218 160 204 199 202 192 200 187 202 212 194 163 218 215 214 208 195 175 212 194 182 208 196 186 185 188 202 211 187 197 209 191 197 208
192 195 207 203 212 194 162 195 151 168 137 216 236 223 145 215 191 212 222 209 157 196 224 210 178 192 208 208 191 177 211 185 178 179 200 192 174 176 194 215 215 213 192 207 200
186 208 207 169 211 164 221 208 210 168 205 180 239 188 218 223 214 203 214 220 214 196 178 175 200 179 187 211 214 206 203 201 204 197 195 186 204 195 203 216 218 191 218 200 188
202 224 218 221 214 205 228 231 184 245 235 147 208 198 196 203 219 228 234 217 238 190 196 197 164 200 209 191 202 196 170 198 193 214 197 190 193 197 165 215 206 206 201 196 218
225 221 220 240 197 204 260 239 248 247 223 397 345 233 198 203 410 233 256 145 202 227 210 244 196 165 173 199 216 212 198 194 191 203 200 201 170 193 210 203 207 177 211 198 198
215 206 217 227 265 261 238 249 232 270 338 355 358 329 287 329 290 236 306 302 286 139 143 187 196 240 210 215 206 205 200 188 203 168 204 201 202 167 185 216 220 198 204 223 200
242 219 244 259 249 251 363 368 349 339 322 318 318 305 310 333 336 353 343 309 292 274 246 225 236 255 204 154 177 213 199 214 223 209 208 213 192 212 202 203 217 228 216 232 231
243 261 247 276 329 332 327 324 304 328 323 308 305 290 313 312 323 316 361 359 329 297 286 275 269 219 217 221 210 219 194 207 215 216 230 218 202 203 222 211 207 233 197 221 243
269 243 300 354 323 332 301 296 299 316 308 299 297 286 293 287 304 302 316 315 347 337 233 232 266 229 217 216 221 215 218 212 235 207 219 229 221 207 218 232 220 243 237 226 233
267 355 347 337 344 287 303 299 297 302 278 271 283 292 285 280 276 296 321 321 306 328 327 309 290 275 226 217 226 228 192 237 241 226 230 203 206 223 204 223 221 212 242 259 267
338 333 327 298 286 301 299 296 291 276 272 275 284 282 277 283 290 290 311 305 302 295 310 316 302 285 271 266 190 208 216 229 229 235 234 236 237 237 230 226 215 247 258 258 274
327 317 292 293 288 321 289 294 279 283 288 282 279 271 284 273 284 295 294 287 296 290 286 285 296 290 281 256 261 255 252 253 245 248 232 227 250 245 236 262 250 251 254 261 266
308 287 287 281 288 307 302 279 280 272 285 282 281 288 280 283 271 286 288 290 291 277 272 298 268 266 263 292 274 269 238 237 207 238 252 272 249 231 261 252 253 259 254 262 271
286 282 281 276 286 326 288 297 308 274 279 292 283 296 306 280 277 278 270 264 273 273 270 264 264 263 256 249 265 269 271 268 239 233 253 261 256 259 254 254 266 260 271 266 278
284 275 265 280 278 306 292 303 280 267 279 274 279 313 279 272 264 259 258 261 258 259 253 250 249 249 253 249 247 245 244 250 261 262 261 253 256 252 261 273 283 272 263 268 280
282 273 271 270 272 305 294 285 270 281 272 276 284 289 274 259 257 258 250 253 248 249 250 250 251 249 252 253 252 254 249 252 252 257 258 261 259 258 281 286 283 275 275 278 284
278 275 273 344 326 307 285 275 261 270 268 275 260 261 250 253 248 249 250 240 244 250 251 245 243 245 246 246 243 243 252 255 193 255 263 257 264 282 280 280 277 280 283 328 323
276 275 277 335 313 296 293 280 272 266 267 255 261 252 243 252 249 249 250 236 232 241 242 238 239 245 253 256 259 252 247 252 255 264 287 281 284 292 303 314 347 344 321 337 328

GFSSW_2pvu_pres_102.txt.gz
Presure
164 177 176 179 175 176 174 192 148 189 184 183 179 165 196 174 183 199 164 185 182 194 192 187 194 177 201 171 178 181 174 176 175 174 188 186 178 186 178 185 163 197 190 141 189
184 176 172 179 160 177 184 187 167 187 176 170 183 166 179 178 171 190 200 180 200 193 202 187 146 188 165 195 169 158 174 155 174 172 186 177 177 185 174 157 160 170 187 186 183
178 178 177 184 186 172 191 154 184 190 191 189 170 176 190 190 178 180 170 193 167 185 185 192 175 158 192 181 172 186 181 186 176 171 180 170 174 134 171 182 195 189 193 189 186
155 135 186 187 179 164 172 196 175 180 188 161 181 149 185 182 178 185 197 183 182 185 193 191 143 150 189 171 179 196 179 187 182 183 181 168 156 175 175 176 189 181 180 188 191
146 176 173 177 176 183 182 174 192 188 185 166 183 181 153 190 176 197 168 182 172 179 189 146 170 188 176 192 185 189 189 176 177 189 194 175 156 167 189 181 191 188 192 182 201
180 173 175 186 176 172 179 181 171 177 191 127 188 185 190 177 194 175 200 192 196 190 184 190 169 179 188 186 194 184 182 177 182 183 155 190 190 187 169 180 183 189 194 193 194
179 171 167 179 180 160 170 184 187 169 196 192 181 204 200 192 192 198 202 201 179 201 177 190 201 182 197 177 183 197 206 173 197 192 192 205 176 190 179 187 200 167 188 192 187
184 189 192 196 201 184 190 154 196 213 191 204 185 189 184 203 200 203 190 187 162 120 191 216 185 199 212 203 199 158 190 211 202 195 193 189 177 179 176 182 192 201 200 174 193
178 194 153 189 193 177 207 207 184 197 199 205 183 189 208 193 134 164 199 200 184 217 183 160 169 222 179 183 203 193 166 196 198 204 179 214 212 186 205 176 197 200 199 179 210
159 171 138 177 173 192 207 199 194 197 211 177 193 206 160 174 209 197 188 151 159 172 167 219 149 169 224 199 185 176 200 198 191 211 196 197 204 190 191 187 220 184 199 214 198
187 196 194 189 188 162 205 193 131 171 201 216 210 196 206 226 213 178 224 174 228 213 217 216 176 202 178 224 204 216 215 193 215 180 207 170 197 204 180 180 213 214 205 196 164
168 206 157 142 194 164 154 182 197 216 217 226 214 184 214 236 187 236 221 194 135 232 187 206 204 195 217 187 218 190 191 212 197 208 205 201 191 197 212 204 207 180 206 202 191
217 214 203 212 156 201 166 213 220 191 207 222 192 216 211 212 223 244 238 260 205 185 167 178 214 182 214 209 175 194 224 192 210 214 189 212 202 192 193 199 198 188 205 188 197
204 215 144 204 212 157 218 219 197 168 213 227 209 247 249 287 259 298 389 358 382 392 324 177 318 306 133 221 212 201 199 222 209 189 208 191 195 192 203 188 200 196 204 200 194
224 146 208 222 232 223 203 220 205 213 217 240 254 254 252 358 347 277 346 347 343 200 339 278 324 143 282 246 254 235 217 217 184 233 220 197 195 190 214 214 187 174 169 210 209
202 224 194 220 171 218 224 206 213 219 235 243 244 245 351 350 328 316 327 337 324 360 348 175 252 256 271 215 262 201 207 222 180 221 204 205 197 228 199 213 212 207 210 219 223
204 227 238 216 225 229 229 224 242 241 242 237 340 341 319 335 317 311 305 309 326 327 362 290 289 244 208 202 282 247 277 252 244 205 213 207 202 195 227 197 204 205 204 219 210
239 222 223 239 220 227 249 237 210 238 237 335 317 329 290 330 301 290 300 291 298 308 310 329 268 277 274 267 129 266 141 263 263 251 201 201 229 244 212 210 193 215 209 223 222
242 226 262 231 228 221 269 216 250 345 325 310 311 298 305 291 281 303 289 280 272 192 304 345 291 272 261 262 265 259 256 265 267 256 232 256 241 213 221 199 204 236 227 142 230
250 237 262 253 221 248 260 252 351 343 318 299 300 292 295 284 282 290 277 271 277 289 296 315 326 290 273 270 265 261 262 253 159 264 265 206 222 219 224 217 219 238 241 235 234
263 252 266 283 262 276 314 334 322 304 289 292 298 291 284 293 296 298 281 269 284 293 293 298 299 292 330 324 290 265 255 264 271 236 261 253 218 215 214 228 241 217 241 231 244
265 276 275 299 335 339 311 317 297 288 288 301 282 291 280 296 292 296 281 272 276 276 288 295 287 290 292 296 318 304 297 291 235 266 260 257 251 245 245 246 231 250 248 249 236
290 327 337 328 296 277 308 286 284 287 313 304 298 288 284 298 305 308 274 275 267 267 279 279 271 276 275 276 274 278 282 281 277 272 264 259 255 254 255 258 258 200 277 263 246
289 262 259 278 308 295 286 279 274 285 309 295 310 281 277 278 294 294 270 267 266 268 266 270 270 271 269 264 266 268 261 263 263 273 270 268 266 268 274 273 269 251 245 254 256
320 299 303 305 295 279 278 276 272 300 314 300 293 273 271 279 309 277 269 266 263 260 262 266 264 263 261 256 253 252 254 253 249 251 254 254 249 253 257 251 253 259 257 257 264
316 303 302 297 282 278 273 266 279 281 303 286 283 273 280 299 282 267 263 263 260 256 261 255 255 249 246 246 247 247 249 250 252 251 250 251 256 264 264 260 94 259 262 276 260
301 297 288 278 280 278 271 270 272 291 281 271 272 267 282 274 264 260 254 258 250 246 251 247 242 245 246 247 249 250 250 250 251 251 253 249 253 259 268 268 263 272 275 291 297

GFSSW_2pvu_pres_105.txt.gz
Presure
170 185 177 185 177 180 181 179 176 175 176 178 167 172 186 190 173 200 199 163 180 173 201 189 191 189 199 189 193 163 179 191 187 176 187 180 177 181 182 173 137 182 174 178 166
179 175 174 174 179 177 172 186 174 178 184 183 188 170 158 177 181 184 181 178 187 196 194 180 188 192 189 194 188 186 185 193 194 188 188 184 162 183 177 180 173 149 182 181 180
172 177 170 172 167 178 191 184 168 179 183 179 179 171 181 174 183 178 186 183 187 182 182 158 170 200 144 190 197 197 185 184 164 187 142 153 139 179 178 177 179 184 181 174 138
175 171 173 178 132 170 173 179 178 191 184 177 178 178 170 181 165 184 178 186 185 185 190 186 182 189 179 177 175 189 169 169 188 140 193 170 176 182 180 175 169 180 137 180 176
170 164 169 165 174 182 163 181 139 177 176 175 177 183 171 184 167 168 123 180 182 183 186 177 183 185 195 182 174 182 177 178 180 190 181 174 190 178 179 182 180 180 182 173 173
171 169 168 177 181 165 171 185 123 174 185 183 181 168 170 178 177 171 182 155 182 187 190 191 190 196 187 191 167 186 177 182 180 164 175 161 147 197 183 195 183 188 191 188 196
170 179 183 93 159 187 201 174 175 157 164 178 163 185 180 189 196 195 193 195 192 199 193 195 199 188 201 197 181 198 196 189 183 180 166 198 159 186 199 174 172 179 177 191 140
150 185 194 187 179 174 171 184 176 181 160 172 182 184 167 183 190 208 214 148 197 217 210 201 205 207 200 200 161 189 214 175 208 200 203 198 186 180 207 180 173 190 185 197 183
191 186 179 159 172 165 172 175 171 175 184 189 193 201 199 142 196 202 204 205 195 195 213 213 199 217 186 209 227 160 186 205 191 191 208 206 196 207 196 173 177 210 192 188 204
176 152 174 170 168 177 173 183 177 178 193 186 179 185 211 201 200 145 203 206 210 219 225 175 216 226 223 180 184 174 217 193 214 197 199 177 201 214 192 194 205 195 198 194 195
159 159 132 175 178 183 181 133 168 172 144 126 184 151 218 216 168 208 213 215 207 214 207 203 223 229 206 222 177 217 166 220 216 211 224 199 204 209 166 206 199 195 206 198 181
153 166 184 185 185 197 189 168 168 201 187 204 203 197 204 191 203 204 210 194 228 232 170 180 198 202 205 216 169 225 232 172 201 220 189 212 188 198 206 197 203 182 215 202 226
191 185 172 189 171 160 174 197 179 204 190 214 162 224 217 216 207 219 232 227 227 232 223 184 213 174 249 296 309 237 241 206 203 186 221 200 218 209 185 202 212 195 214 211 196
207 174 202 204 190 194 182 156 202 181 237 234 168 208 211 214 232 216 224 250 242 185 161 247 250 365 348 415 327 199 335 299 282 275 195 231 189 211 198 152 208 206 221 208 209
199 184 197 186 192 209 206 218 155 188 238 226 195 227 159 229 219 229 224 234 241 254 256 334 336 345 349 377 225 295 325 312 260 172 210 223 191 199 230 189 200 200 218 200 200
195 198 219 224 192 197 213 217 222 157 203 200 233 229 162 236 224 231 233 242 248 279 336 331 336 334 321 185 318 309 282 291 200 185 188 235 210 201 222 176 198 181 205 188 204
216 222 229 210 220 216 223 227 229 221 230 234 233 195 228 233 244 249 230 344 271 326 329 320 263 327 277 311 258 294 254 194 256 268 219 197 299 201 186 226 219 151 152 215 226
221 216 222 224 218 222 223 227 239 245 244 223 217 241 253 225 276 230 280 319 320 311 301 300 293 300 345 203 292 281 268 138 254 255 258 242 255 251 259 262 216 243 209 83 218
224 223 218 221 249 240 238 241 250 216 241 237 245 229 255 267 323 264 333 303 301 293 292 290 292 298 313 288 276 292 266 260 195 252 177 252 168 141 240 271 260 200 221 168 232
232 235 249 244 241 248 250 239 256 236 250 245 240 247 253 293 324 320 318 297 295 291 282 280 285 293 303 329 279 267 237 264 250 192 244 149 182 238 224 240 244 260 259 254 242
260 252 259 256 251 247 263 272 261 252 255 254 255 260 321 326 314 302 282 296 285 289 282 274 272 292 293 285 294 265 275 284 256 246 241 242 249 253 246 256 254 251 255 254 244
264 255 264 266 264 260 274 272 253 249 252 267 257 346 324 308 292 281 287 291 286 285 282 272 276 280 292 304 303 278 268 265 269 268 264 252 248 160 250 250 246 256 254 254 258
282 284 280 279 284 283 268 273 263 256 282 334 332 314 301 286 305 297 289 287 297 286 272 264 272 274 278 286 288 301 271 261 254 256 250 239 243 249 245 247 254 261 266 241 255
319 309 283 284 290 273 270 284 273 300 329 291 281 292 284 276 306 307 284 295 289 291 275 265 271 270 270 277 279 282 296 267 254 242 242 247 256 254 256 257 251 269 260 264 257
342 335 331 321 316 315 323 326 329 276 265 285 286 283 284 298 290 291 278 276 282 286 271 266 266 275 276 276 277 273 277 280 284 293 294 298 294 265 265 267 268 268 266 267 267
395 272 280 320 327 321 311 317 266 257 297 281 282 274 336 308 310 281 271 273 287 278 266 265 270 264 271 271 267 264 262 263 261 260 259 257 259 260 257 261 87 257 256 255 91
372 356 314 293 278 315 308 294 297 296 276 280 271 266 314 292 274 270 277 295 282 260 263 271 258 258 262 259 258 257 254 253 253 251 251 249 252 252 253 253 254 255 255 250 247

GFSSW_2pvu_pres_108.txt.gz
Presure
146 157 104 163 172 179 177 174 175 178 175 176 182 179 181 175 171 151 185 186 174 165 190 181 191 202 176 170 202 179 192 196 181 128 173 195 184 152 197 182 188 184 185 193 124
155 178 178 183 186 181 173 164 175 174 184 171 163 180 182 181 188 188 182 182 122 178 124 186 178 198 175 193 182 195 167 211 201 194 204 192 187 179 201 191 175 184 176 173 183
177 183 173 172 164 154 163 164 175 179 170 168 175 171 176 173 181 178 178 128 175 183 169 186 158 176 186 188 187 186 149 159 192 196 194 184 190 173 192 187 185 150 155 128 179
176 178 177 155 152 169 167 169 169 182 171 172 171 182 179 169 184 181 175 182 184 191 180 179 177 186 177 173 180 184 187 191 173 195 173 161 183 186 188 182 185 165 183 179 172
164 169 174 171 176 153 173 168 165 172 182 176 168 181 166 172 174 173 181 174 177 172 172 177 177 177 175 180 184 171 186 163 181 179 154 182 188 174 173 174 174 182 188 174 181
177 173 173 173 164 162 170 180 172 174 164 184 161 181 177 184 171 167 185 182 173 178 182 182 190 183 188 176 164 176 179 178 179 179 176 169 176 172 161 176 181 187 166 189 160
175 172 173 187 163 181 179 164 155 166 175 182 183 137 165 165 168 184 164 186 191 183 186 185 214 201 192 207 213 203 193 189 188 185 194 194 205 169 179 184 177 161 176 184 177
175 149 168 166 166 159 163 147 164 160 196 160 195 185 168 161 170 175 184 187 190 189 179 188 201 189 213 195 208 211 216 226 225 215 201 208 189 197 196 199 181 177 184 177 181
177 182 174 183 165 176 159 174 171 184 198 186 180 177 161 154 174 186 194 188 192 190 194 189 183 213 210 207 211 212 213 193 231 180 219 214 181 180 183 203 197 187 200 200 196
192 167 178 172 147 119 183 177 193 164 146 169 185 179 182 177 183 189 181 185 201 201 201 150 148 215 216 218 226 211 220 213 226 230 203 211 202 183 187 207 196 180 194 203 211
167 164 180 166 165 189 197 190 169 160 159 192 179 179 187 185 191 189 193 140 199 206 207 215 213 224 220 216 228 218 218 213 180 165 206 174 218 205 229 214 190 189 202 186 210
185 186 171 181 167 181 163 176 190 191 156 198 191 192 198 196 189 179 200 210 218 207 210 234 240 232 219 218 219 225 231 232 212 219 206 185 199 199 219 237 211 204 196 195 214
174 179 173 183 174 162 163 188 170 185 205 131 209 199 208 212 196 198 209 175 148 225 231 239 236 210 234 233 224 197 222 206 237 250 196 200 176 228 255 217 215 197 218 211 210
184 182 184 134 164 142 135 184 202 208 217 198 222 219 135 210 205 162 207 228 229 236 209 231 237 247 249 252 239 245 239 240 329 223 349 169 335 166 173 259 234 207 224 239 206
193 182 182 172 180 183 198 213 213 177 218 216 214 134 182 198 224 228 231 230 224 239 228 238 242 238 246 225 245 375 362 355 360 363 177 270 353 390 313 327 290 225 212 247 205
159 194 194 217 212 206 213 138 195 218 210 211 154 199 218 223 224 231 223 187 231 185 257 258 179 262 239 263 328 337 351 358 351 403 322 313 314 292 274 295 185 288 243 184 238
210 200 231 175 202 182 207 193 166 201 185 198 188 223 225 181 215 219 219 218 245 244 252 256 258 258 257 324 312 319 341 321 320 327 304 243 280 281 262 256 265 142 271 231 264
215 214 196 214 207 193 221 222 204 226 155 226 227 220 220 226 228 229 250 242 247 254 270 261 268 255 324 311 300 290 310 324 295 305 281 263 280 158 266 192 262 148 196 190 133
214 210 204 203 209 196 189 202 229 219 224 225 227 211 224 226 233 255 253 260 259 266 263 274 261 314 304 308 294 296 310 311 296 299 278 258 263 253 248 240 240 253 241 276 160
224 209 222 223 218 220 223 222 230 222 227 228 228 230 233 226 249 256 255 247 271 233 261 267 305 301 296 292 286 288 296 305 278 293 270 258 248 245 156 244 243 149 246 241 246
237 239 231 226 229 235 230 233 234 231 239 240 235 234 238 247 255 255 255 266 268 256 313 302 291 285 290 290 292 290 281 309 281 283 270 258 247 240 236 239 251 246 250 244 243
247 247 251 246 241 250 246 245 245 240 245 250 254 255 261 256 259 262 261 278 251 318 292 287 280 288 293 286 281 283 286 281 300 274 275 260 250 247 240 238 241 249 256 252 249
287 295 278 261 268 283 284 276 278 267 269 266 263 263 255 261 275 277 278 256 319 293 278 278 269 283 287 282 275 284 273 289 269 289 270 274 252 250 250 243 249 253 238 236 235
292 301 302 293 291 281 273 270 270 273 277 273 267 267 271 281 276 296 316 305 287 278 279 275 280 284 295 287 270 268 271 282 278 281 295 266 276 260 251 253 246 247 240 233 235
361 350 358 304 284 272 281 285 279 271 272 268 277 282 276 283 306 293 276 287 274 287 290 281 280 276 294 281 272 274 270 273 279 273 274 281 263 280 267 250 244 242 245 248 246
371 296 381 410 344 334 321 320 337 328 323 323 316 313 318 312 272 271 279 275 264 282 274 277 273 272 285 272 270 277 270 270 266 269 271 274 287 305 268 262 270 250 248 256 251
163 169 371 374 386 355 337 326 318 312 317 306 311 310 296 258 290 271 274 278 295 295 283 273 271 283 270 266 270 266 266 265 264 262 259 259 267 277 270 258 251 249 249 249 250

GFSSW_2pvu_pres_111.txt.gz
Presure
148 165 169 123 168 183 162 162 174 186 181 181 184 173 169 174 181 183 164 172 183 178 189 186 185 192 198 170 188 186 163 186 191 201 184 174 169 62 180 191 189 185 152 191 197
157 172 161 157 146 176 171 177 183 178 148 180 173 180 168 171 172 185 180 175 175 175 189 181 182 188 189 186 198 180 170 177 160 195 185 198 175 201 206 184 174 187 178 197 204
175 154 178 186 181 160 156 174 188 175 164 170 165 176 164 163 167 178 187 179 152 185 177 185 193 189 191 188 189 171 206 185 165 192 189 158 189 184 193 192 188 189 195 186 181
177 158 139 165 157 142 162 178 171 170 171 154 174 177 163 169 172 175 178 183 183 180 182 183 180 171 182 181 184 177 183 182 172 175 178 182 189 176 169 178 173 195 188 196 182
156 167 168 170 178 176 172 173 175 161 176 178 171 167 170 172 171 154 180 181 169 176 182 180 177 176 180 150 169 165 167 176 179 180 175 179 168 168 158 182 184 179 161 171 180
127 169 166 178 167 180 189 207 180 172 178 174 181 166 168 174 155 179 189 185 174 183 180 168 172 177 186 170 198 192 189 196 180 196 169 184 182 182 174 165 167 175 175 176 189
170 165 174 171 187 183 179 178 178 191 171 173 181 176 183 148 163 180 170 197 195 198 200 197 163 168 180 188 186 185 195 177 206 179 220 225 176 186 173 181 188 177 179 172 170
163 171 175 172 181 179 174 198 190 172 173 171 178 156 149 175 181 178 178 182 197 190 179 163 172 175 181 170 188 190 196 203 207 213 226 217 227 202 200 195 183 184 192 189 193
178 175 185 174 192 178 188 177 175 179 172 173 149 179 174 174 178 180 177 168 181 192 186 181 157 191 190 192 204 193 206 209 217 206 236 219 226 217 201 199 206 213 217 202 205
179 181 190 177 190 154 182 185 173 174 116 161 179 184 178 184 169 179 182 186 179 185 195 176 182 191 205 204 201 199 211 193 223 231 232 218 219 221 203 204 200 203 218 217 207
168 169 193 162 179 200 194 174 185 190 191 193 159 176 174 162 189 169 142 188 192 191 192 195 176 210 206 208 209 211 213 228 245 245 225 232 231 241 71 82 199 232 208 201 211
187 192 184 186 186 172 182 190 193 143 197 152 169 188 190 146 186 186 191 191 156 198 203 211 201 215 210 190 200 216 240 240 236 218 227 230 243 217 238 225 201 231 221 191 189
182 176 174 199 189 183 192 191 158 180 190 190 191 190 184 162 180 187 197 193 206 211 208 216 212 207 195 191 232 240 201 231 253 251 255 221 260 250 236 268 247 189 214 166 212
197 194 199 203 209 191 191 192 190 197 190 193 189 185 168 135 191 198 197 210 222 229 222 223 197 201 212 222 180 221 229 235 268 178 269 162 338 419 350 406 402 258 157 247 130
205 207 201 213 195 201 195 131 203 144 201 190 160 198 192 196 196 220 216 215 223 217 215 205 202 216 230 227 228 227 273 252 267 271 186 152 155 439 400 355 341 437 148 158 286
202 210 197 205 207 202 195 172 185 203 200 200 199 200 196 197 204 198 207 203 213 211 193 203 224 229 226 222 233 267 179 262 266 290 358 108 320 391 134 136 240 348 300 216 156
203 204 207 205 213 190 184 189 199 214 211 198 225 215 225 221 222 190 205 181 214 198 215 228 226 225 231 238 252 275 262 279 275 332 326 321 341 66 313 242 147 151 299 306 156
196 176 218 184 183 193 184 186 204 199 209 219 205 219 204 207 197 215 199 196 209 221 230 230 225 234 238 255 268 257 173 269 320 314 313 307 321 314 290 290 271 264 272 270 281
208 211 188 219 194 221 204 191 192 190 194 216 209 211 195 198 208 213 223 225 218 223 234 230 244 239 254 260 257 267 273 314 307 298 302 309 310 279 273 268 255 244 254 256 255
216 207 219 216 199 208 212 209 204 204 214 221 234 215 219 197 224 217 226 218 226 230 232 234 246 263 266 256 274 279 242 298 290 290 297 300 309 272 261 260 240 240 252 197 257
228 232 232 233 233 228 226 233 219 215 210 197 221 229 208 230 211 227 233 235 241 242 247 262 272 267 255 283 259 292 296 281 293 297 298 292 301 258 266 249 246 239 243 243 225
247 253 242 229 231 229 237 229 238 243 236 243 248 240 233 232 243 242 250 245 252 273 270 268 272 265 286 296 293 286 276 290 281 282 288 291 290 264 251 248 263 241 242 240 244
270 256 254 262 260 255 259 251 247 254 245 243 246 250 254 253 253 253 260 274 277 260 264 266 268 272 321 299 283 284 277 293 288 276 274 284 297 266 265 252 251 250 256 245 249
291 294 288 278 302 290 285 277 246 255 254 245 247 260 282 269 281 283 275 268 271 269 272 289 274 309 307 279 278 276 286 306 286 274 265 275 290 284 289 271 248 246 244 245 239
272 289 284 295 293 286 294 297 290 293 296 294 296 290 291 285 271 279 277 276 270 261 282 291 303 281 277 293 284 278 277 301 283 267 271 272 284 282 276 298 278 249 239 244 247
136 351 378 361 382 350 373 356 290 285 271 270 277 271 271 268 271 262 265 320 304 291 309 283 270 274 296 289 280 282 288 280 268 277 273 276 276 264 263 266 275 294 254 262 261
217 371 374 217 377 380 402 393 385 347 334 327 328 321 310 287 316 322 313 305 302 299 269 273 276 267 281 278 277 277 280 265 267 266 266 267 263 258 259 261 262 263 268 280 280

GFSSW_2pvu_pres_114.txt.gz
Presure
167 164 156 170 181 173 160 149 151 174 151 165 162 152 173 144 185 181 187 173 186 163 166 174 185 180 169 186 177 187 183 192 188 196 173 177 179 189 146 167 70 185 194 201 197
171 173 156 171 168 174 162 181 179 153 134 156 178 147 155 162 186 184 169 160 176 181 161 176 175 184 181 181 175 188 172 203 193 191 181 182 189 202 210 207 175 175 186 197 184
169 175 164 160 171 174 155 178 155 171 186 153 149 153 143 168 176 172 173 174 177 179 173 171 174 170 179 193 191 192 196 198 194 199 199 151 181 204 172 168 201 184 188 173 170
173 167 164 186 169 171 165 172 168 192 152 176 183 173 174 181 176 179 175 181 183 175 173 180 169 187 195 194 191 194 197 178 200 191 191 188 176 187 193 185 183 184 179 184 194
172 163 179 169 173 176 187 146 163 171 172 159 164 164 170 190 184 191 167 166 178 177 172 173 160 168 174 178 200 190 184 178 175 184 186 185 185 181 178 186 168 182 170 171 191
164 166 188 158 165 192 172 153 176 171 174 163 170 173 184 169 174 179 179 185 167 176 171 165 177 168 171 178 195 202 207 200 179 176 158 170 181 194 196 196 208 176 195 194 183
161 168 168 163 179 176 190 180 165 172 175 171 173 167 172 177 183 179 181 181 170 157 176 170 182 183 174 185 167 175 191 171 161 176 180 177 191 195 191 191 202 211 215 183 166
174 186 147 178 182 162 172 175 165 178 173 175 168 187 173 171 186 182 173 183 179 179 181 186 179 190 177 175 179 182 183 193 190 177 184 188 185 196 191 199 204 222 202 241 217
161 180 164 178 191 173 171 173 172 172 183 181 176 189 174 179 183 173 184 171 145 176 187 180 186 181 178 175 190 187 191 196 196 198 199 207 220 208 124 204 215 210 218 236 219
176 159 180 184 161 179 182 157 180 180 178 163 165 178 193 174 176 183 184 180 183 178 185 183 179 178 182 185 183 190 196 197 203 213 218 213 222 221 211 213 214 240 231 235 230
173 136 182 149 180 173 178 174 166 160 153 197 194 160 162 177 184 191 174 181 196 190 193 186 179 192 189 184 183 185 194 207 202 207 225 223 212 207 236 229 235 232 236 249 237
163 180 188 181 171 158 169 159 168 175 192 173 180 192 193 174 184 182 155 192 190 191 184 161 173 190 182 188 194 195 206 104 222 228 229 212 218 178 200 215 236 192 225 253 269
192 184 190 161 151 158 162 177 182 177 170 192 185 181 182 197 193 193 192 186 189 191 189 191 189 183 192 196 194 213 233 231 226 212 209 211 216 236 239 256 288 282 292 296 299
169 167 183 161 176 181 172 187 193 189 194 168 192 194 195 194 199 189 193 190 178 194 196 198 186 191 196 198 199 200 206 213 217 215 225 200 241 240 296 289 320 344 388 402 410
202 211 202 206 199 193 179 181 209 188 202 198 209 198 194 208 197 199 196 197 196 195 197 202 196 196 201 219 225 225 208 207 225 232 245 179 217 60 191 143 131 377 391 379 353
199 207 213 202 187 203 209 188 210 184 197 183 211 202 205 195 202 199 194 203 203 202 185 202 209 225 219 208 199 211 222 211 218 232 244 246 273 291 233 83 82 258 181 200 319
208 207 211 215 210 204 210 211 213 220 214 211 208 214 208 206 220 198 189 208 205 205 211 213 204 209 211 223 216 214 225 229 235 236 245 275 270 325 262 360 319 314 211 331 310
206 205 210 204 204 201 211 222 215 201 208 208 200 204 212 181 165 221 216 220 221 219 209 205 200 196 196 209 215 216 217 230 242 250 274 213 295 333 293 312 279 290 284 294 290
209 208 204 207 208 208 216 214 203 212 198 204 219 206 182 178 207 147 195 191 185 189 194 205 220 201 202 209 222 225 220 241 282 270 275 299 315 327 325 288 267 274 268 279 264
211 205 204 204 206 208 212 219 204 216 206 197 202 200 210 213 201 210 209 215 202 202 213 213 205 211 209 213 226 242 263 279 267 269 296 303 315 308 323 281 274 270 257 262 249
226 225 225 228 227 223 220 218 214 222 211 201 211 200 210 214 209 215 233 214 227 218 227 208 237 240 240 246 257 287 277 267 271 276 287 306 296 298 328 281 266 253 242 233 242
232 231 233 231 235 233 237 239 240 246 229 228 238 236 230 226 227 236 223 237 236 235 235 250 243 250 252 282 291 272 266 273 276 284 305 290 291 299 306 274 266 252 255 241 236
252 253 254 253 244 244 245 248 253 248 247 248 249 247 243 245 248 250 245 241 250 257 257 258 261 263 288 279 280 274 265 271 310 304 296 282 299 299 283 308 258 260 253 247 244
271 267 268 263 275 260 252 258 255 246 247 250 258 258 258 262 267 268 278 284 285 282 265 287 294 289 271 270 278 268 281 304 307 294 282 288 305 281 268 296 278 250 250 244 245
294 301 292 278 283 230 282 291 301 292 288 282 280 275 276 270 284 300 296 297 294 290 287 266 260 274 254 259 269 281 304 293 283 292 284 293 295 271 267 280 284 272 259 244 242
276 277 269 291 298 287 276 276 286 288 279 284 280 280 282 276 282 271 273 267 260 262 267 271 267 270 267 286 281 305 282 268 298 285 285 287 271 272 273 276 276 279 276 289 268
303 294 301 244 289 268 304 285 283 280 279 279 276 271 272 283 269 266 272 288 288 284 294 287 280 284 293 291 293 269 275 289 281 272 292 275 265 257 264 268 268 266 265 271 271

GFSSW_2pvu_pres_117.txt.gz
Presure
177 143 153 161 143 166 164 152 162 161 176 168 163 161 162 168 174 158 167 176 177 180 154 188 191 174 157 161 174 169 167 181 187 182 181 180 188 183 207 195 199 204 175 185 194
172 152 157 167 165 164 161 178 188 166 163 168 130 158 173 163 185 170 182 161 159 180 166 186 182 177 175 177 180 180 172 193 176 182 183 188 192 202 230 188 191 200 201 168 178
172 162 167 167 170 166 188 188 185 166 172 186 168 171 163 173 178 167 177 179 181 173 179 183 183 181 183 182 189 177 179 177 181 178 189 195 213 216 191 205 205 198 181 190 177
175 174 175 169 174 178 185 175 180 166 174 168 157 171 175 173 186 170 182 170 183 173 179 186 169 204 190 184 185 192 182 165 187 175 181 193 206 193 185 178 189 191 192 188 187
181 193 184 182 197 178 158 182 136 169 166 160 170 169 174 177 171 160 176 178 175 175 174 183 172 176 188 182 189 168 181 177 186 185 170 181 183 199 196 169 174 176 181 180 182
181 184 170 182 173 163 173 177 171 165 183 162 178 151 161 165 182 180 180 180 175 176 175 176 190 180 179 182 185 178 183 179 185 172 180 170 169 177 186 187 171 178 176 167 197
189 180 174 174 178 185 173 177 161 176 165 168 164 162 172 192 165 181 169 167 185 179 172 185 191 185 141 191 175 184 176 168 183 182 175 184 185 183 172 187 188 191 196 186 183
181 196 175 165 179 169 168 172 182 184 171 167 164 172 170 171 159 166 166 174 183 172 169 166 185 173 181 182 184 173 179 177 173 189 187 176 177 175 185 189 194 192 198 205 207
172 154 174 161 172 161 163 154 166 183 154 164 176 178 174 183 172 173 181 177 173 170 185 180 193 193 182 177 178 184 178 171 159 185 182 186 187 186 187 191 194 197 214 223 220
175 181 165 183 180 179 169 203 180 162 174 175 178 162 185 158 177 177 176 175 175 199 187 187 188 190 179 174 185 176 183 194 193 179 183 189 181 185 192 197 70 237 227 231 233
166 187 175 174 180 149 183 173 163 147 141 172 170 172 177 175 156 170 160 188 174 192 178 186 194 190 178 175 184 187 195 190 186 193 194 188 179 179 201 200 211 221 225 223 224
142 169 165 168 158 156 148 169 182 157 169 171 169 176 172 179 170 185 116 182 182 189 185 178 179 179 184 185 190 193 189 189 196 159 197 192 201 200 210 235 242 233 220 223 217
200 200 196 181 181 176 168 188 183 189 162 171 177 174 169 182 174 179 202 182 183 178 193 185 191 192 186 189 193 191 195 196 198 203 196 202 99 203 226 224 226 230 234 151 231
173 198 200 182 197 199 184 192 206 160 196 170 186 187 173 196 193 192 182 186 182 184 196 184 189 189 188 201 194 195 202 202 203 204 197 204 123 222 220 238 225 226 235 247 290
195 186 184 193 205 201 199 201 176 212 200 198 179 185 174 192 186 199 191 186 201 193 195 192 197 201 203 205 202 201 199 201 205 206 217 220 207 215 81 217 237 237 244 301 314
193 178 214 174 186 190 184 184 188 196 171 181 182 191 199 196 196 201 192 207 206 204 199 204 209 199 204 198 199 202 203 214 214 201 216 224 207 244 232 227 227 135 292 291 367
234 225 225 221 206 212 191 212 217 211 189 200 206 208 205 199 220 208 213 214 204 212 211 217 206 208 206 196 206 211 204 213 212 220 211 210 225 212 230 243 207 93 358 344 321
222 225 228 208 215 225 222 220 214 195 183 199 201 136 213 221 198 207 227 211 216 209 201 210 199 205 203 212 192 204 193 193 206 209 210 228 223 241 253 293 267 287 292 310 297
211 206 220 226 219 199 210 209 227 214 212 222 218 234 202 224 215 197 216 222 203 199 209 202 216 214 185 189 198 213 207 212 224 220 235 249 248 249 293 294 287 358 297 292 277
202 208 201 201 205 214 222 216 206 169 224 204 203 201 199 196 170 211 208 209 197 199 209 205 187 207 202 206 215 220 220 227 227 230 239 249 255 284 285 288 289 314 274 284 262
218 216 208 202 205 213 214 208 189 201 205 208 212 209 207 202 211 216 225 218 216 211 213 214 222 231 223 215 219 222 230 241 228 242 272 299 293 278 281 278 315 310 281 267 254
226 225 222 219 215 218 219 215 213 209 212 213 216 222 228 222 226 231 233 236 234 231 232 240 240 233 238 240 242 239 252 289 287 283 305 292 281 271 278 307 291 312 274 269 246
241 236 229 227 228 229 224 226 222 221 223 227 228 227 226 230 233 239 241 242 245 246 247 251 250 255 264 259 269 272 290 285 290 294 286 281 281 281 314 295 271 299 278 275 255
245 254 251 249 247 242 241 243 240 239 242 244 246 248 254 260 252 249 248 253 256 258 264 262 265 250 269 288 300 293 284 271 267 289 263 288 283 315 302 283 307 278 297 274 265
270 273 262 252 260 259 254 256 263 264 263 256 260 260 265 258 263 266 261 264 271 286 283 282 282 281 278 277 273 271 253 265 279 279 283 277 307 280 270 290 308 290 295 273 257
291 288 280 263 264 265 260 302 263 258 269 268 270 278 275 282 279 277 287 294 286 287 280 280 276 273 271 270 272 273 268 276 280 270 281 288 275 303 286 294 291 280 276 296 268
293 278 293 285 275 281 274 272 276 277 269 286 270 276 288 278 271 280 272 270 274 271 270 260 268 268 268 269 283 296 292 283 272 284 290 275 288 280 292 280 270 274 278 279 312

GFSSW_2pvu_pres_120.txt.gz
Presure
174 163 159 179 117 180 179 180 175 151 168 165 169 171 168 173 180 155 170 160 170 186 164 171 164 166 169 185 181 165 186 179 177 175 181 190 185 177 180 177 187 191 192 189 185
181 196 183 186 178 164 171 178 176 180 177 172 171 166 167 161 182 180 165 173 167 169 148 169 179 175 171 175 170 178 183 177 188 198 177 187 183 177 181 190 177 179 222 210 139
189 174 169 176 178 178 176 177 173 181 177 170 172 169 166 174 177 169 175 169 170 176 173 169 174 188 175 180 177 172 178 179 174 186 195 181 186 183 171 186 190 186 202 229 157
166 164 172 183 186 177 179 180 183 169 173 172 170 170 167 188 177 178 167 177 158 168 179 174 169 185 179 185 181 167 177 180 189 179 175 185 171 185 182 186 187 192 173 191 207
161 178 172 173 185 180 167 160 162 174 181 173 171 172 181 166 179 183 166 143 164 169 167 170 186 180 183 180 188 187 179 180 181 184 184 188 177 179 176 189 181 187 195 175 182
171 174 164 142 165 179 181 153 174 176 153 180 180 171 178 169 176 165 163 145 184 164 188 177 178 162 185 174 185 181 183 171 185 190 181 169 170 178 179 168 164 188 187 177 188
186 186 181 163 174 193 147 175 172 166 172 183 171 161 172 180 171 162 160 173 179 167 169 176 166 185 176 179 177 175 175 185 185 190 189 179 182 185 174 184 184 190 182 182 183
195 187 168 171 187 161 170 190 189 172 177 184 180 174 182 170 167 171 162 177 171 182 170 171 193 188 183 180 184 179 187 198 183 181 190 185 182 184 185 180 186 191 196 183 195
174 181 182 168 146 167 155 166 172 148 173 180 173 167 173 171 163 167 174 174 171 174 178 149 184 176 182 165 175 190 178 181 195 187 192 180 171 164 185 189 197 175 187 185 198
157 176 145 163 190 143 188 185 175 158 183 185 162 157 150 164 165 166 169 173 168 178 173 179 186 164 169 180 196 183 188 179 192 181 179 177 177 197 191 198 113 192 191 198 196
176 192 181 173 184 144 166 157 168 181 171 169 176 171 172 186 173 162 191 171 176 170 172 186 183 149 187 178 191 187 183 186 185 196 185 190 192 196 203 198 196 200 198 191 204
172 179 185 171 166 189 172 191 181 172 170 161 168 172 171 180 175 177 172 169 175 176 174 177 151 178 182 186 180 184 186 192 188 196 191 192 183 201 208 205 206 207 207 203 204
191 164 185 198 171 177 165 200 170 172 196 172 165 160 180 174 160 160 169 171 192 176 181 194 178 194 189 182 193 189 191 201 201 194 197 196 193 201 206 205 202 207 211 211 215
180 209 157 196 181 176 183 175 167 187 195 197 187 184 183 175 179 181 181 172 171 201 197 195 189 180 186 186 185 191 197 195 202 207 205 198 201 199 200 175 215 212 222 226 223
185 213 192 138 194 179 185 184 191 175 196 182 179 190 199 202 195 190 201 188 180 189 202 197 195 186 192 188 177 205 196 205 202 215 216 197 214 215 211 199 216 220 211 214 227
161 196 193 202 173 193 190 155 172 188 169 182 196 168 181 191 185 196 195 195 201 189 198 180 188 189 184 195 205 203 210 215 213 218 211 213 209 203 209 214 177 85 200 141 128
185 191 171 181 182 185 194 203 205 189 178 204 197 197 220 202 171 191 181 178 178 192 188 188 201 210 206 197 205 211 220 201 213 206 206 216 214 223 190 195 210 216 226 225 103
207 183 190 200 199 193 165 164 198 157 213 209 199 213 230 235 221 215 216 205 189 213 203 211 191 197 216 208 206 212 201 214 209 206 209 219 208 198 204 215 221 231 212 166 210
211 192 206 197 206 202 208 203 208 206 201 214 209 215 207 226 221 231 227 221 218 206 206 197 212 222 213 213 207 204 203 198 200 206 218 216 209 210 213 235 236 255 267 289 293
213 207 212 211 209 215 184 203 200 193 206 216 222 222 204 212 228 232 212 216 218 211 216 222 194 200 195 189 194 203 206 207 220 227 232 243 249 256 255 265 302 301 289 283 283
224 223 219 203 212 202 205 209 204 198 222 219 206 208 208 186 202 204 211 213 190 189 206 205 198 211 203 206 223 229 231 232 239 247 244 254 271 265 296 306 300 288 260 224 279
215 225 220 217 222 226 233 226 217 209 201 216 217 211 195 202 211 201 216 189 210 204 211 207 209 214 226 229 229 226 234 247 251 258 259 276 267 306 301 300 279 268 275 283 317
224 228 226 220 218 224 222 212 208 218 224 218 221 220 221 218 220 224 218 217 217 219 219 218 218 226 234 239 252 259 253 267 269 281 278 289 292 302 279 273 263 265 283 321 318
239 247 236 232 231 231 232 232 229 225 225 229 228 223 227 225 224 225 220 225 230 225 230 234 240 247 258 266 287 270 271 288 282 275 274 276 276 269 251 270 260 276 282 303 294
257 255 252 263 261 244 236 237 245 251 253 251 238 234 231 237 238 238 237 239 243 254 263 267 267 271 278 278 279 290 293 273 273 269 267 258 266 279 273 272 264 279 288 274 290
297 291 274 258 253 253 255 259 260 239 261 252 251 249 254 264 256 256 254 260 267 270 260 261 255 272 284 287 286 283 272 269 254 256 257 248 264 276 280 266 275 281 269 297 270
323 315 290 284 264 262 259 251 249 255 260 261 262 259 258 259 259 257 270 264 260 263 271 273 282 257 282 265 277 266 261 266 273 302 293 288 283 281 268 274 286 267 289 273 292

GFSSW_2pvu_pres_123.txt.gz
Presure
153 153 164 138 163 169 193 186 130 172 177 174 131 174 180 184 178 104 103 168 169 172 169 166 179 166 175 163 171 168 161 176 176 177 137 168 179 180 180 189 201 182 182 182 176
166 161 161 162 200 183 145 184 190 192 180 172 174 180 182 176 170 173 176 181 181 169 165 167 178 178 169 176 170 168 182 175 171 184 191 183 172 182 176 186 190 179 178 181 181
201 193 170 191 174 190 189 189 181 178 174 164 166 163 177 176 155 172 184 177 172 172 164 165 177 177 171 154 178 169 168 174 177 171 176 179 184 193 181 181 189 185 180 182 165
163 154 165 169 189 181 175 175 173 165 160 172 172 170 180 179 153 190 171 174 166 176 179 188 174 170 175 172 171 183 169 174 160 185 174 170 181 181 179 188 179 189 190 188 181
166 169 162 172 168 168 168 158 176 176 173 178 158 168 169 174 159 173 180 177 171 183 170 177 169 169 150 168 173 178 173 172 172 183 182 176 179 185 176 198 192 195 195 174 194
160 168 175 173 173 168 169 164 183 166 177 178 166 192 175 144 167 176 160 172 176 185 160 159 177 174 157 168 172 186 171 165 167 194 176 175 179 180 192 190 196 196 185 187 191
171 160 159 169 178 180 182 181 179 181 173 168 177 159 167 157 169 163 164 166 186 182 175 179 174 167 171 171 159 172 182 163 171 168 177 182 172 198 190 185 194 187 193 204 182
182 175 175 184 139 166 193 186 176 182 184 151 166 179 170 156 152 179 174 169 174 182 173 175 171 186 166 170 168 172 173 173 178 181 183 182 182 184 192 187 180 185 196 187 181
189 196 160 141 166 169 168 175 165 166 156 158 165 166 170 180 151 167 179 164 182 158 162 182 173 176 173 175 169 170 167 166 172 168 180 178 180 187 180 190 188 191 194 192 198
148 173 146 155 175 158 194 181 185 169 182 167 165 173 180 176 153 168 181 180 170 184 169 155 170 168 181 165 169 189 175 176 173 179 176 182 193 202 196 192 185 196 192 195 188
202 153 181 151 202 182 163 171 180 185 176 179 169 149 181 180 188 178 168 172 178 167 168 177 187 186 164 159 166 175 170 180 186 177 185 181 185 175 187 183 192 188 190 194 191
159 192 173 184 188 197 151 208 178 171 189 171 164 170 178 173 171 177 176 169 178 169 181 173 164 173 177 173 176 178 179 172 178 182 200 202 182 187 204 200 201 200 202 198 199
147 174 196 205 165 162 188 188 174 173 183 186 176 164 169 171 162 177 185 171 173 177 177 185 184 177 180 179 181 176 180 187 183 184 197 202 203 193 202 187 196 199 206 200 207
144 172 195 164 145 187 199 200 158 166 181 194 190 177 150 170 185 175 160 176 163 185 189 185 165 188 190 186 185 181 185 204 205 193 199 185 200 200 199 191 208 207 211 211 216
163 201 176 171 168 159 189 182 209 157 153 187 187 173 191 181 166 170 178 166 179 176 174 184 178 185 192 197 203 205 204 196 184 184 194 190 192 203 201 205 198 210 202 215 211
168 194 203 191 204 174 157 168 177 178 169 200 194 167 162 175 182 167 170 175 178 190 160 166 178 197 181 174 189 193 193 186 186 201 215 216 210 194 210 207 219 202 216 222 209
181 199 189 164 179 199 166 168 165 182 171 164 157 203 176 176 175 169 181 184 186 193 182 182 204 189 199 195 216 212 186 209 205 210 205 197 204 196 203 212 206 206 129 203 210
206 198 199 194 182 182 174 203 186 169 169 211 172 168 197 174 183 179 170 191 189 192 201 174 170 206 215 215 212 216 214 210 220 221 218 213 226 208 195 191 196 206 210 229 240
205 184 190 204 195 187 205 206 201 191 175 219 177 178 166 164 195 187 196 144 206 205 194 193 208 200 202 218 223 214 204 212 198 206 217 222 211 194 208 206 225 236 236 263 271
208 208 199 193 206 195 208 235 198 170 159 221 204 208 211 188 191 129 203 200 195 197 196 201 207 207 219 195 204 217 222 220 209 207 202 210 207 206 215 235 238 266 272 290 303
210 222 216 218 228 232 232 197 231 234 192 214 215 201 204 193 183 201 205 205 200 197 191 211 211 185 209 202 187 193 194 187 194 218 199 220 229 231 248 275 275 294 291 295 304
242 233 228 220 225 224 227 210 211 214 221 89 220 217 205 205 203 207 84 201 198 210 215 211 202 215 216 192 208 214 197 210 215 219 230 231 250 283 281 284 296 285 289 282 280
254 248 244 225 219 226 221 214 97 210 195 224 217 219 218 215 212 219 218 214 224 218 219 209 217 215 217 220 153 221 220 218 225 238 256 280 289 274 289 289 281 281 275 274 269
301 267 253 252 243 242 236 231 222 210 217 212 211 210 210 208 209 212 210 210 211 212 209 213 216 221 223 225 233 235 238 235 249 272 277 271 278 291 273 275 266 278 270 254 270
344 315 273 257 252 254 247 241 239 235 230 222 221 215 210 214 218 214 212 214 222 224 225 231 241 241 244 131 246 253 258 268 280 268 271 275 270 278 258 253 255 261 273 270 274
341 350 322 298 280 263 254 262 253 241 241 233 236 227 223 217 210 213 219 223 227 226 230 230 255 253 250 250 263 267 266 259 267 283 282 262 272 259 258 262 257 285 285 276 277
335 342 347 331 304 292 274 266 251 249 254 256 239 239 240 238 232 232 237 244 257 254 249 250 243 246 269 260 265 278 271 260 269 264 262 260 266 264 274 274 293 295 279 279 278